GFSSGP_sfc_temp_000.txt.gz
Temp
85 92 96 97 81 86 76 79 90 85 85 92 78 73 73 69 76 64 87 89 90 89 86 86 83 83 83 83 82 82 83 83 83 83 83 84 84 84 84 84 84 85 85 85 85 85 85 85 84
95 100 101 92 83 75 75 85 81 86 90 95 92 86 83 75 84 83 84 89 91 91 90 87 82 83 83 83 82 83 83 84 83 83 84 84 84 84 85 85 85 84 85 85 85 85 85 85 84
93 100 91 89 84 76 76 85 87 91 94 93 87 91 87 81 88 85 89 91 91 88 86 84 83 83 83 83 83 84 83 84 84 84 84 84 84 84 85 85 84 85 85 85 85 85 85 85 85
101 96 95 87 81 86 86 89 91 91 93 92 89 82 91 92 87 89 91 90 89 89 88 84 84 84 84 84 84 84 84 84 84 84 84 85 85 85 85 85 85 85 85 85 85 85 85 85 85
97 79 84 84 84 89 94 95 94 90 91 90 88 80 83 89 93 93 91 92 89 89 88 87 84 84 84 84 84 84 84 84 84 84 84 85 85 85 85 85 85 85 85 85 86 85 85 85 84
84 88 81 79 84 89 95 97 96 93 91 88 85 82 83 93 92 93 93 93 94 90 89 87 84 84 84 84 84 84 84 84 84 85 85 85 85 85 85 85 85 85 86 86 85 85 85 84 84
84 82 83 84 80 78 77 99 93 91 89 88 90 78 85 91 95 97 96 91 94 93 90 87 86 85 84 84 84 84 84 84 84 85 85 85 85 85 85 85 85 86 86 86 86 85 85 84 84
86 84 85 84 83 78 85 97 98 93 90 98 94 79 79 90 97 98 95 92 93 92 90 88 87 87 85 85 85 85 84 85 85 85 85 85 85 85 84 84 84 85 85 85 85 85 85 84 84
98 83 85 86 87 89 98 93 99 101 94 95 96 90 92 95 98 94 92 91 91 90 91 90 88 87 86 86 86 85 85 85 85 85 85 85 86 81 76 79 83 85 85 85 85 85 84 84 84
99 88 90 96 98 78 77 92 95 93 92 92 91 94 94 95 94 91 89 88 89 88 89 91 91 88 88 90 85 85 87 86 85 85 84 85 86 81 81 80 83 84 85 85 85 84 84 84 84
100 92 98 98 100 88 84 87 81 73 86 91 86 88 91 91 91 91 91 89 90 91 91 92 87 89 87 80 87 88 88 88 87 86 85 85 83 75 85 80 82 83 85 86 86 85 85 85 84
95 100 100 100 96 95 95 95 81 75 75 95 93 92 91 90 91 91 92 91 90 90 91 87 84 84 85 85 90 89 89 87 83 85 86 83 84 82 85 85 85 82 82 82 82 83 83 84 85
97 98 100 100 100 99 97 91 88 84 92 96 95 93 91 91 92 93 94 93 91 89 92 92 86 85 89 85 86 84 85 86 89 86 85 87 85 83 84 83 84 82 82 84 82 83 83 82 84
101 100 99 101 99 98 93 91 91 90 94 92 92 91 92 92 92 92 92 91 90 91 91 92 89 87 87 86 85 85 87 86 88 86 86 87 84 81 82 80 81 83 83 84 80 80 81 81 82
101 93 97 97 97 93 97 86 84 91 93 90 90 91 93 93 94 91 93 91 91 91 90 89 91 89 86 85 86 87 87 90 88 88 87 87 84 82 80 79 79 81 82 82 81 80 80 81 83
94 95 85 94 92 89 91 77 87 93 91 88 90 92 92 92 93 93 94 92 92 92 87 86 91 89 87 85 85 85 87 87 86 87 85 85 86 84 80 79 80 81 80 79 80 79 79 80 80
91 82 84 85 91 90 88 81 89 94 92 89 91 92 92 91 93 93 93 91 90 90 89 87 88 88 87 85 86 85 86 86 85 86 84 85 87 84 80 79 81 80 79 79 79 79 77 75 76
83 82 85 84 90 89 86 83 89 94 93 90 91 91 91 91 92 93 91 91 92 90 87 85 87 87 84 83 83 86 83 85 86 83 80 84 83 83 82 79 79 79 77 77 76 75 76 76 77
93 89 84 88 89 86 85 84 88 93 93 90 91 90 91 92 94 95 94 93 94 93 88 84 85 87 86 83 81 81 80 82 84 85 84 85 85 83 82 79 81 79 78 78 78 78 75 76 77
93 89 87 92 95 91 83 82 89 92 92 92 91 90 92 93 92 92 93 94 94 91 88 88 86 86 85 83 83 84 83 82 82 84 84 86 85 83 83 81 81 80 79 78 79 77 74 75 74
91 88 88 87 92 93 89 80 75 89 94 94 95 94 94 93 91 91 91 92 93 91 89 88 87 85 86 86 84 81 83 84 83 84 79 83 84 84 83 83 81 80 79 78 77 77 74 71 74
84 94 92 91 86 77 89 71 74 82 87 91 93 93 94 93 93 92 92 92 93 90 91 88 88 87 87 87 86 82 81 78 82 83 80 81 84 83 82 81 80 79 78 76 76 76 74 73 70
87 96 92 91 86 84 83 76 75 86 81 87 92 94 95 96 95 94 93 93 94 92 91 89 87 86 85 84 84 82 80 80 82 82 82 81 79 80 83 83 81 78 78 76 75 75 74 74 71
97 92 92 90 86 73 81 80 74 73 81 85 86 94 95 97 96 96 96 94 93 93 92 90 85 83 84 84 84 83 83 81 79 79 78 79 80 81 81 81 79 78 77 76 76 75 74 73 72
94 86 73 70 71 70 85 80 80 86 91 89 82 80 96 98 97 95 93 92 90 89 90 87 83 81 83 84 84 84 83 83 81 79 80 79 78 80 77 79 79 77 77 77 76 75 74 73 72
88 86 75 63 67 73 84 73 80 94 97 92 92 96 98 96 96 94 93 91 90 89 88 86 82 80 82 83 83 82 83 81 81 80 79 78 78 79 82 80 80 78 78 78 77 76 75 75 73
86 81 92 80 83 75 79 83 91 94 94 95 96 98 96 97 97 96 95 93 90 89 87 84 82 81 82 83 81 81 81 81 81 81 81 79 81 81 79 80 78 78 78 77 76 75 75 74 74
91 94 79 81 66 64 76 77 78 83 87 92 93 95 97 98 97 98 96 93 90 91 89 85 84 81 82 83 82 82 81 81 81 81 79 80 79 80 79 79 78 78 77 76 75 75 74 73 73
88 84 86 86 80 70 68 71 87 86 90 91 94 96 96 98 97 97 96 93 90 91 89 86 84 83 82 83 82 82 82 82 81 80 80 80 80 80 79 78 77 77 76 76 75 74 74 72 73
94 87 86 75 72 78 75 75 94 93 94 94 94 96 97 98 97 96 96 94 91 89 89 87 86 85 84 83 82 81 81 82 82 80 80 81 79 79 78 78 77 76 76 75 74 74 74 73 71

GFSSGP_sfc_temp_003.txt.gz
Temp
82 85 84 80 66 68 67 72 79 73 69 74 82 77 73 73 71 59 78 82 83 81 81 83 82 83 83 82 82 82 83 83 83 83 83 84 84 84 84 84 84 84 84 85 84 84 84 84 84
87 89 83 76 66 63 63 76 75 78 80 78 81 79 74 68 78 77 78 80 84 83 80 81 82 83 83 83 82 83 84 84 83 83 83 84 84 84 84 84 84 84 84 84 85 84 85 84 84
86 92 77 71 68 64 65 77 80 78 82 82 80 83 77 70 80 80 84 87 84 81 81 81 82 83 83 83 83 83 83 84 83 84 84 84 84 84 84 84 84 84 84 84 85 84 84 84 84
86 82 79 70 69 76 77 81 85 82 84 86 82 74 80 84 82 84 86 85 82 81 82 83 83 83 84 84 83 83 84 84 84 84 84 84 84 85 85 85 85 85 85 85 84 84 84 84 84
83 75 66 69 73 81 84 87 87 81 81 81 80 72 73 82 86 86 84 86 81 81 81 82 83 83 83 83 84 84 84 84 84 84 84 84 85 85 85 85 85 85 85 85 85 85 84 84 83
78 75 64 64 73 82 85 89 86 81 81 81 75 73 73 83 84 85 86 85 85 82 81 82 84 83 83 84 84 84 84 84 83 84 84 84 84 84 84 85 85 85 86 85 85 85 84 84 84
73 64 63 70 75 78 82 89 83 82 80 80 82 70 77 81 86 88 86 86 85 84 81 80 81 83 84 84 84 84 84 84 84 84 84 84 84 84 84 85 85 85 85 85 85 84 84 84 83
79 72 68 68 71 73 85 87 88 85 82 89 86 72 72 82 88 88 88 86 85 82 81 80 79 79 79 81 84 84 84 84 84 84 84 84 84 85 85 81 81 85 85 85 85 84 83 83 83
89 66 66 64 70 75 89 85 91 94 86 87 88 83 85 89 88 86 82 83 82 83 82 82 79 78 78 79 83 84 84 84 84 84 84 82 77 77 80 79 83 83 85 85 84 84 83 83 83
80 71 78 77 83 78 82 84 81 84 83 80 82 87 89 89 86 82 82 79 78 79 82 83 82 80 80 85 79 79 81 79 78 79 78 77 77 75 79 79 82 83 85 84 84 83 83 83 78
84 80 87 84 90 84 80 84 82 79 79 81 78 82 86 85 83 82 82 80 79 81 83 82 80 79 79 78 77 76 75 78 79 78 77 77 75 73 75 75 76 75 82 79 81 80 79 79 78
87 94 91 89 88 83 79 79 81 82 81 87 85 86 85 83 83 83 83 80 82 82 83 81 81 79 77 79 79 78 76 79 78 79 78 75 74 73 75 75 76 76 75 75 75 75 77 77 78
88 90 93 93 90 86 86 81 78 81 86 89 88 87 84 82 83 84 85 83 82 81 83 82 80 79 78 77 77 80 80 78 80 76 77 76 74 75 76 75 75 75 75 75 75 75 75 75 77
93 92 91 91 88 89 85 79 81 82 88 88 86 84 84 84 84 83 82 81 81 82 82 81 80 81 80 78 78 77 80 79 79 78 78 81 76 75 75 74 74 74 74 75 73 73 73 73 75
94 84 90 88 88 85 87 78 78 85 88 85 85 85 86 85 86 83 82 81 81 81 82 81 80 81 79 78 78 78 78 80 77 78 79 79 75 74 74 72 73 73 73 74 73 73 73 72 75
84 81 71 82 85 86 80 68 81 86 84 82 85 86 86 84 84 85 84 82 82 81 80 81 87 81 79 78 77 77 76 77 77 78 78 80 78 75 74 71 72 73 73 72 71 70 70 71 71
76 67 71 76 84 85 77 71 82 86 84 81 83 85 85 84 84 85 86 83 82 80 80 80 82 80 78 78 77 77 78 77 77 77 76 78 78 77 74 73 73 71 71 70 71 70 70 69 69
68 71 74 74 82 84 77 73 81 84 83 82 83 83 83 83 82 85 85 85 83 82 81 80 80 79 78 76 76 77 75 76 77 76 75 76 75 79 75 73 72 72 72 71 71 70 70 70 69
81 79 75 81 87 80 76 76 80 83 83 81 79 80 81 82 83 85 86 86 85 83 80 79 79 76 76 74 74 73 72 73 74 76 77 77 77 77 75 73 73 73 71 71 71 70 69 68 70
82 79 73 80 87 79 75 76 81 81 82 83 82 81 82 82 81 83 84 85 84 82 79 78 78 78 77 75 75 75 74 75 75 76 76 77 77 76 75 73 72 71 71 71 70 70 68 68 69
79 75 77 75 82 84 77 68 67 80 80 84 85 85 84 82 81 81 82 83 84 82 80 79 78 77 77 77 76 75 74 74 73 75 74 75 77 77 74 74 72 71 70 70 69 70 68 66 68
68 84 85 83 75 63 75 55 61 70 74 82 83 83 84 83 83 82 81 80 82 82 82 79 78 78 79 78 75 74 70 68 71 71 72 73 75 75 75 74 73 71 69 69 69 71 68 67 65
78 86 82 80 71 66 70 61 66 69 67 77 81 84 86 84 84 83 83 83 83 84 82 80 78 77 77 74 73 70 68 70 70 70 70 70 72 73 75 75 72 71 69 69 70 69 68 67 66
89 80 76 75 66 55 65 63 58 65 71 81 84 86 87 86 85 85 86 85 83 85 83 80 77 75 75 74 73 73 71 69 68 69 68 69 71 70 73 73 71 70 69 69 69 69 69 68 67
80 65 55 52 53 54 67 65 62 77 82 80 81 80 83 88 85 84 84 83 82 82 81 79 76 73 73 74 74 73 71 71 71 71 68 68 67 68 70 70 70 69 70 70 69 69 68 67 66
73 68 56 50 51 59 72 60 67 83 84 82 87 84 85 87 87 85 84 84 82 83 80 79 76 73 73 73 72 72 72 71 70 70 68 69 67 69 70 70 71 71 71 71 70 69 68 68 67
74 65 74 62 62 57 62 68 76 81 80 82 85 84 82 83 86 86 85 84 83 82 79 78 76 74 73 73 71 72 73 71 70 70 70 68 69 73 71 72 71 70 70 70 69 68 67 68 67
77 80 63 60 50 50 61 63 62 69 73 79 78 80 81 84 86 86 86 84 83 83 80 78 77 76 75 73 73 73 72 72 71 70 69 70 70 71 71 71 71 70 70 70 69 68 69 67 66
71 68 66 65 60 53 52 57 70 73 76 77 79 82 81 86 86 86 86 85 83 83 80 78 77 76 75 73 73 73 71 71 71 70 70 70 70 70 70 70 70 69 69 69 68 68 68 67 66
79 73 68 56 56 58 57 61 80 78 80 79 80 82 81 82 88 87 86 84 83 82 79 79 78 77 75 73 73 72 72 73 70 70 70 71 70 70 70 70 69 69 69 69 68 67 68 67 65

GFSSGP_sfc_temp_006.txt.gz
Temp
84 84 82 79 68 67 62 66 72 69 70 75 79 76 68 71 69 58 74 77 79 78 79 82 82 83 83 82 83 83 83 83 83 83 83 83 83 83 83 84 84 84 84 84 84 84 84 84 84
84 85 81 72 64 58 60 74 68 75 77 78 79 77 71 67 76 73 74 78 81 79 79 80 82 83 83 83 83 83 84 83 83 83 83 83 83 84 84 84 84 84 84 84 84 84 84 84 83
87 88 72 66 62 58 62 73 75 78 80 79 76 79 73 69 77 77 79 81 81 78 79 80 82 83 83 83 83 83 83 83 83 83 83 84 84 84 84 84 84 84 84 84 84 84 84 84 84
82 78 76 68 63 70 71 74 78 76 79 81 78 70 77 82 80 81 83 82 79 79 81 82 83 83 83 83 83 83 83 83 83 83 84 84 84 84 84 84 84 84 84 84 84 84 84 84 83
80 73 65 63 67 75 78 78 79 76 77 76 77 68 71 80 82 82 81 81 78 78 80 81 83 83 83 83 83 83 84 84 83 83 84 84 84 85 84 84 85 85 85 85 84 84 84 83 83
72 71 62 60 67 76 79 82 80 76 75 74 71 70 70 81 80 81 82 80 80 79 80 81 82 83 83 84 84 83 84 84 83 83 84 83 84 84 84 84 85 85 85 85 84 84 83 83 83
76 65 63 65 69 72 76 82 76 73 75 74 78 68 71 77 81 83 82 81 80 80 79 79 80 83 84 84 84 84 84 84 83 84 84 84 84 84 84 84 84 85 85 85 85 84 83 83 83
78 75 68 64 65 68 79 79 81 77 77 83 82 67 66 77 83 84 82 79 79 78 77 77 77 79 79 81 84 84 84 84 84 84 84 84 84 84 85 81 83 85 85 85 84 84 83 83 83
82 63 63 69 69 71 82 78 83 86 78 82 84 79 80 83 84 81 79 77 77 79 76 76 77 77 77 78 82 83 84 84 84 83 84 82 76 78 80 80 82 84 85 85 84 84 83 83 83
79 67 70 78 76 75 82 82 81 78 77 77 78 83 84 84 82 78 76 74 75 76 76 77 76 76 77 83 76 76 79 78 77 77 77 76 76 74 78 79 82 84 84 84 84 83 83 82 77
80 76 83 81 83 82 79 79 81 77 72 76 75 78 81 80 79 78 78 77 76 78 79 78 78 76 77 77 75 75 75 76 76 76 76 75 74 74 73 74 75 74 80 78 80 79 78 77 76
77 87 85 81 84 79 79 79 78 77 77 83 83 82 81 79 79 79 78 78 77 78 79 79 77 77 76 76 77 76 75 75 75 75 76 74 72 72 73 74 74 74 74 75 75 74 75 76 75
84 85 87 86 82 80 81 77 77 78 82 85 85 84 80 80 80 81 81 80 80 78 79 78 79 77 76 77 75 76 76 76 77 75 76 75 73 73 74 73 74 74 74 73 73 71 72 74 75
88 85 84 84 80 80 78 77 79 79 83 83 83 80 81 81 81 80 80 79 79 80 81 80 79 78 76 75 75 74 76 77 76 76 75 75 74 73 73 72 72 72 72 73 72 72 72 71 72
89 79 82 81 80 79 83 74 74 81 83 80 80 81 81 81 81 80 80 80 80 79 79 78 77 78 77 76 76 76 75 76 75 76 77 75 75 74 73 71 70 72 72 73 72 72 71 70 72
79 77 67 76 81 81 76 64 77 82 80 77 80 81 82 80 81 82 82 81 80 78 78 78 84 78 76 75 75 76 75 75 75 75 76 77 76 74 73 70 70 72 71 71 70 69 69 69 69
69 64 68 72 79 78 72 66 78 82 80 77 79 81 81 79 81 82 82 81 81 79 78 78 79 77 76 76 75 75 76 75 75 75 73 75 74 74 72 71 71 71 70 69 69 69 68 68 68
63 64 73 70 77 76 71 69 77 80 79 78 79 80 80 80 80 81 82 83 81 79 79 79 77 76 76 75 75 74 74 73 74 73 72 75 74 74 74 72 72 71 70 70 70 69 68 68 68
73 70 72 77 80 73 71 71 75 78 79 78 77 77 79 79 82 82 83 83 81 79 77 77 76 74 74 73 72 72 71 72 72 74 75 75 75 75 73 72 72 71 70 70 70 68 68 67 68
72 71 71 75 80 73 70 70 76 78 78 79 78 77 79 76 78 81 81 81 79 79 77 75 75 74 74 73 72 72 72 72 73 74 74 74 75 75 74 72 71 70 69 68 68 67 66 66 68
70 70 72 74 79 75 71 64 68 76 80 81 81 81 81 77 77 79 79 79 80 78 75 76 74 75 74 74 73 73 72 71 70 71 71 73 75 74 72 71 69 69 68 67 67 67 67 64 66
64 79 81 77 74 60 72 53 62 72 73 76 78 79 80 78 79 79 79 78 79 79 79 77 75 74 75 74 73 72 69 67 67 68 70 71 73 73 72 72 70 68 67 67 67 69 67 66 63
74 80 78 76 72 63 64 56 67 66 64 69 75 79 81 79 80 79 80 80 81 81 80 78 76 74 75 73 73 69 66 66 66 67 68 67 67 70 72 71 69 68 67 67 67 67 66 65 64
85 77 69 65 60 52 63 60 56 62 71 75 76 81 82 81 80 81 82 81 81 82 81 78 75 73 72 71 69 68 67 65 66 65 65 65 65 67 70 71 68 68 67 67 67 67 67 66 65
75 62 52 52 50 51 58 61 66 70 79 77 77 80 83 82 81 80 80 79 78 79 79 78 75 71 71 70 69 68 68 67 66 66 65 65 65 65 67 67 67 67 67 67 67 66 66 65 64
68 65 52 47 48 54 61 57 69 75 81 81 83 83 84 81 82 81 81 80 79 80 79 78 74 73 71 70 70 69 68 68 67 67 66 65 65 66 67 67 68 69 68 68 67 65 66 65 65
70 61 67 57 50 52 57 65 72 75 77 80 78 79 81 81 81 81 82 81 80 80 79 78 75 75 73 71 68 68 68 67 67 67 67 66 66 68 68 69 68 68 68 68 67 65 67 65 64
77 74 60 54 49 46 54 58 59 65 71 74 76 76 78 82 82 82 82 81 81 82 80 79 77 76 74 72 71 70 70 68 68 67 67 66 67 67 68 68 68 68 68 67 66 65 65 64 64
67 63 61 60 54 50 48 54 66 72 73 73 75 80 76 79 82 82 82 83 81 82 80 78 77 76 75 73 68 69 69 69 68 67 67 67 67 67 67 67 67 67 67 67 66 65 65 65 64
72 68 62 55 53 52 53 56 73 74 74 78 79 79 76 80 81 83 83 82 80 80 79 77 77 76 75 73 70 71 70 68 67 67 68 67 67 67 67 67 66 66 67 66 65 65 66 65 63

GFSSGP_sfc_temp_009.txt.gz
Temp
82 82 81 76 65 64 56 63 71 68 69 73 78 72 66 68 67 57 72 75 77 77 78 80 81 82 82 82 83 83 83 83 83 83 83 83 83 83 83 83 83 83 84 84 83 83 83 83 83
84 84 79 70 61 55 56 69 67 70 74 76 77 74 69 66 73 69 71 77 78 77 76 79 81 82 83 83 83 83 83 83 83 83 83 83 83 84 84 84 84 84 84 84 84 84 83 83 83
84 86 72 66 61 56 57 68 70 74 78 79 72 76 72 67 73 74 77 79 79 76 77 79 82 82 83 83 83 83 83 83 83 83 83 84 84 84 84 84 84 84 84 84 84 83 83 83 83
83 76 72 65 62 69 69 71 74 74 77 78 75 67 75 80 77 77 79 79 77 76 79 82 83 83 83 83 83 83 83 83 83 83 84 84 84 84 84 84 84 84 84 83 83 83 83 83 83
77 70 63 63 65 70 73 77 76 72 74 74 75 67 70 77 80 79 79 79 76 76 79 81 83 83 83 83 83 83 84 84 83 83 84 84 84 84 84 84 84 84 84 84 84 84 83 83 83
69 68 61 57 63 71 73 78 76 74 73 72 70 68 67 77 78 78 79 77 78 77 78 80 83 83 83 84 83 83 84 83 83 83 84 83 84 84 84 84 84 84 84 84 84 84 83 83 83
72 63 61 61 65 68 72 79 73 71 73 72 76 65 69 73 78 79 78 78 78 78 77 77 78 82 83 83 84 84 84 84 83 83 82 83 83 84 84 84 84 84 85 85 84 84 83 83 83
77 72 62 61 65 65 75 75 76 75 73 81 78 64 66 74 80 79 78 76 76 76 76 76 76 78 78 80 84 84 84 84 84 83 84 83 84 84 84 82 82 84 84 85 84 84 82 82 82
80 63 62 65 66 68 77 73 79 81 76 80 81 75 77 79 80 76 74 74 74 76 75 76 76 76 76 77 81 83 84 84 84 83 84 82 76 77 79 80 82 83 83 83 83 83 82 83 82
73 62 68 75 75 72 77 76 76 74 74 74 75 78 79 79 77 73 72 71 72 73 74 75 76 76 76 81 77 76 78 77 76 76 77 75 75 74 78 79 82 83 84 84 83 83 83 81 76
75 70 77 78 79 81 78 76 78 73 69 73 71 73 77 77 76 74 74 73 73 75 76 75 75 76 75 76 75 75 75 74 75 75 75 75 74 74 73 72 74 73 79 76 78 77 76 76 74
72 81 81 79 81 78 77 77 74 74 73 80 78 78 77 76 75 75 74 74 74 74 76 76 76 75 75 75 75 74 74 74 74 74 74 73 72 71 71 72 73 73 73 74 74 73 73 74 74
76 79 82 82 79 78 79 75 75 75 79 81 79 78 76 76 76 77 78 77 76 75 76 76 76 76 76 74 74 74 74 74 74 74 75 74 72 71 72 73 73 73 72 72 72 71 71 71 73
81 80 80 78 76 77 74 74 74 76 81 79 78 76 77 77 77 78 77 76 76 77 77 77 77 76 75 73 74 74 74 74 74 74 74 75 73 72 72 72 71 71 72 72 72 71 71 70 71
83 73 77 76 74 74 78 70 69 77 80 76 76 77 77 78 79 77 78 77 78 78 79 77 78 76 74 74 74 72 73 73 74 74 74 74 74 73 72 70 70 71 71 71 71 70 70 69 70
74 70 66 71 75 78 73 61 72 78 77 75 77 77 77 77 78 79 80 79 79 78 76 78 81 78 74 74 74 74 74 74 73 74 74 74 74 74 72 69 70 71 70 70 70 69 68 68 68
68 63 61 68 76 75 69 63 73 78 76 74 76 77 78 77 78 79 81 79 78 78 78 76 77 75 74 74 74 74 74 74 74 73 72 73 74 74 72 70 70 70 69 69 69 68 67 67 67
65 62 65 67 75 73 67 65 72 76 75 74 75 76 77 77 76 79 80 81 79 78 78 77 76 75 74 73 73 73 73 73 73 72 72 73 73 74 72 71 71 70 69 68 68 67 67 67 67
71 66 67 72 74 69 67 66 71 74 74 73 74 74 76 77 79 80 81 81 79 77 76 74 73 73 73 72 71 71 71 72 72 72 74 74 73 74 72 71 70 70 69 68 68 67 66 66 66
72 68 66 72 75 70 65 65 73 74 74 75 75 75 76 77 75 78 78 79 78 76 75 74 75 72 73 72 71 71 71 71 72 72 73 73 74 73 72 71 70 69 68 67 67 66 64 65 66
66 65 66 68 72 71 68 61 66 73 75 77 78 78 79 76 75 76 77 77 78 75 74 74 73 72 73 73 72 71 71 70 69 70 70 71 73 73 71 70 68 67 66 65 66 66 65 63 64
58 74 75 72 69 57 68 51 60 68 70 74 76 76 78 77 78 78 77 76 77 76 77 75 73 72 73 73 72 71 69 67 66 67 68 70 71 70 70 69 68 67 66 66 66 67 65 64 62
70 75 73 71 67 60 60 55 58 65 63 70 75 76 78 78 79 78 78 78 79 79 77 75 73 72 73 72 72 70 66 65 66 66 67 66 66 68 70 69 68 67 65 65 66 65 65 64 63
77 71 65 58 57 51 60 58 54 62 68 72 76 77 79 78 79 79 81 80 79 79 78 76 73 73 72 72 71 69 67 65 64 64 64 63 63 65 67 69 67 66 65 65 65 65 65 64 63
70 60 50 48 48 48 57 56 60 68 76 77 76 77 79 79 78 78 78 77 77 77 77 76 74 72 72 70 68 67 67 65 65 64 64 63 63 64 65 66 65 65 65 65 65 65 64 63 63
64 61 51 45 44 52 56 53 64 75 79 81 81 80 80 79 79 78 78 78 78 78 77 77 74 74 70 69 67 66 65 64 64 64 63 63 63 65 65 66 66 66 67 66 65 64 64 64 63
63 57 64 54 45 48 52 60 70 72 73 78 78 79 78 79 78 78 79 78 79 79 77 77 76 75 71 70 69 66 66 65 65 65 65 64 64 67 66 66 66 66 66 66 65 64 64 64 63
72 69 56 51 45 43 51 55 58 66 66 72 75 76 78 79 78 78 79 79 79 80 79 78 77 75 73 72 71 69 66 67 66 65 65 65 65 66 66 66 66 66 66 65 64 63 64 63 62
63 58 55 56 50 47 46 52 63 70 67 70 74 78 79 78 78 79 79 80 80 80 80 78 76 75 73 73 68 67 67 66 66 65 65 65 65 65 65 65 65 65 65 65 64 63 64 63 62
68 65 63 58 50 47 50 54 70 71 70 74 75 77 74 78 78 79 80 80 80 79 79 78 77 76 74 73 68 69 68 67 66 65 66 65 65 65 66 65 65 65 65 64 64 63 64 63 62

GFSSGP_sfc_temp_012.txt.gz
Temp
82 81 80 77 64 61 55 60 68 66 67 71 74 71 65 66 65 57 70 74 76 75 77 81 82 82 82 82 82 82 83 83 83 83 83 83 84 83 83 84 84 83 84 84 83 83 83 83 83
80 82 77 69 61 52 55 66 64 68 71 74 74 72 68 64 71 68 70 76 78 76 75 78 81 82 82 82 82 83 83 83 83 83 83 83 84 84 84 84 83 83 83 84 83 83 83 83 83
82 84 71 63 57 53 55 66 67 72 75 75 71 74 70 65 71 71 74 77 77 75 76 78 82 82 83 83 83 83 83 83 83 83 83 84 84 84 84 84 83 83 83 83 83 83 82 82 83
80 76 72 61 58 63 65 68 71 71 75 74 73 66 73 77 74 75 78 77 75 75 78 81 83 83 83 83 83 83 83 83 83 83 84 84 84 84 84 84 84 83 83 83 83 83 83 82 83
76 69 61 60 61 68 70 73 73 70 71 72 73 66 68 75 77 77 76 77 74 75 78 80 82 83 83 83 83 84 84 84 83 83 84 84 84 84 84 84 84 83 83 83 83 83 83 83 83
68 66 60 56 60 67 71 74 73 71 70 70 69 67 66 75 75 76 77 75 77 76 77 79 82 83 83 84 84 83 84 84 83 83 84 84 84 84 84 84 84 84 84 84 84 84 83 83 82
68 62 59 59 61 64 69 75 69 69 69 69 73 64 69 71 76 77 76 76 76 77 76 77 78 82 84 84 84 84 84 83 83 83 83 83 83 84 83 84 84 84 84 84 84 84 83 82 82
72 66 59 60 61 62 73 73 74 71 71 78 76 64 65 71 77 76 76 74 75 75 76 75 76 77 78 79 84 84 84 84 83 83 83 83 84 84 84 83 82 84 84 84 84 83 83 82 82
77 62 59 63 64 66 74 70 77 78 73 77 77 73 75 76 77 74 72 73 74 75 75 75 75 76 76 76 81 83 84 84 84 82 84 82 77 79 80 81 82 83 84 84 84 83 83 83 82
70 62 67 72 72 68 73 73 73 71 72 71 71 75 76 76 73 71 71 71 73 73 74 75 75 75 76 80 77 77 78 78 77 78 77 76 76 76 77 80 82 83 84 84 83 83 83 80 79
71 68 74 75 76 77 74 73 76 71 66 70 67 70 73 73 72 71 72 72 73 74 75 75 75 75 75 76 76 75 75 75 76 76 76 76 76 75 75 75 75 76 80 78 79 77 79 78 76
70 77 78 77 78 74 72 75 71 72 71 77 75 74 73 72 71 71 72 72 72 73 74 75 75 75 75 75 75 75 75 75 75 75 75 74 74 73 73 74 75 75 75 76 76 75 76 76 76
72 75 78 79 75 76 77 72 71 73 76 78 76 75 73 73 73 75 75 75 74 72 74 74 75 75 75 74 75 75 75 75 75 75 75 75 74 72 72 74 75 74 74 75 74 74 74 74 75
77 75 75 75 74 75 72 72 73 73 77 75 74 73 74 74 74 75 75 73 73 75 75 75 75 75 75 74 74 74 75 75 75 75 75 75 75 72 72 73 73 73 74 74 74 74 73 73 74
78 70 74 73 72 71 77 68 69 75 76 73 73 73 74 75 76 75 76 74 75 76 76 75 76 76 74 75 75 73 74 75 74 74 75 74 75 73 73 72 72 73 74 74 73 73 73 73 74
69 68 63 68 73 73 72 61 69 75 73 71 73 74 74 74 75 77 78 77 76 76 75 76 80 77 74 74 74 75 74 73 73 75 75 74 75 74 73 72 71 73 73 73 73 72 72 72 71
64 58 60 65 73 72 67 61 70 75 73 70 72 73 74 74 76 77 78 78 77 76 76 75 76 76 74 74 74 74 75 74 75 75 75 75 75 75 74 72 72 73 72 71 71 71 71 70 71
58 58 59 62 70 71 65 62 69 73 72 71 72 73 73 73 75 77 78 79 78 77 76 76 76 75 74 73 73 74 74 74 75 74 73 75 74 76 73 73 72 72 71 71 70 70 70 70 70
67 65 65 67 72 66 63 63 67 71 72 71 71 72 73 74 78 79 79 79 77 77 74 74 73 73 74 72 71 72 72 73 73 74 75 75 74 75 73 72 72 71 71 71 71 70 69 69 69
68 64 64 68 71 69 62 63 68 70 71 72 72 72 73 75 73 75 76 77 76 75 74 73 74 73 73 72 72 73 73 73 73 74 74 75 75 74 74 73 72 72 71 70 70 69 68 68 69
63 63 62 68 68 67 65 59 62 68 71 73 74 75 75 75 73 73 75 75 76 74 73 73 73 73 73 73 72 72 72 71 71 72 73 73 74 74 73 72 71 70 70 69 69 69 68 67 68
58 70 71 67 66 55 65 51 57 65 67 70 73 74 75 75 77 75 75 75 76 75 76 74 74 72 73 73 72 72 70 69 69 70 71 72 73 72 72 71 70 69 69 68 68 69 68 67 66
68 72 69 67 61 57 57 54 58 64 61 68 72 75 76 77 77 76 76 77 78 78 76 75 72 72 73 73 73 72 69 69 68 68 69 69 69 70 71 70 70 69 69 68 69 68 68 67 66
74 68 62 56 54 48 57 58 55 56 66 71 74 76 77 78 78 78 78 78 77 78 77 75 72 72 72 73 72 72 70 67 66 66 67 67 67 68 69 70 70 69 68 68 69 69 68 67 67
66 58 48 46 46 46 55 53 64 66 72 75 75 76 78 79 77 77 76 76 75 75 75 75 73 72 72 73 72 72 70 67 67 66 67 65 66 67 67 68 68 68 68 68 68 68 68 67 66
62 60 49 44 43 50 53 51 62 77 76 77 77 78 78 78 77 77 77 77 77 76 75 75 73 73 72 73 72 71 69 68 67 67 66 66 67 68 68 68 68 68 68 69 68 68 68 67 67
59 55 61 50 43 47 50 58 69 72 72 72 74 73 75 77 77 78 78 78 78 77 76 75 73 73 72 73 71 68 67 66 66 66 66 66 66 68 68 68 68 68 68 69 68 68 68 67 67
67 65 56 48 43 40 48 51 57 63 68 70 69 72 75 77 77 78 78 78 78 79 78 77 76 74 74 73 72 69 68 67 67 66 66 65 66 68 68 68 68 68 68 68 67 67 68 67 67
59 56 53 53 48 45 44 49 61 67 69 70 71 75 76 77 77 77 78 79 79 80 79 77 76 75 74 73 71 71 68 69 67 67 67 67 66 67 67 67 67 67 67 68 66 66 67 66 66
66 61 59 55 47 46 48 53 68 70 69 69 72 75 75 76 77 77 78 78 78 78 79 78 77 77 76 74 70 70 69 68 68 67 67 67 67 66 67 67 67 67 68 67 67 67 68 67 66

GFSSGP_sfc_temp_015.txt.gz
Temp
84 87 86 79 76 78 67 68 76 72 73 77 79 76 70 71 70 66 82 83 84 84 84 85 81 82 82 82 82 83 83 83 83 83 83 84 84 84 84 84 83 84 84 84 84 84 83 83 83
88 86 85 84 74 67 67 73 72 75 76 80 79 77 73 67 75 76 78 83 85 86 86 86 81 82 82 83 82 83 83 83 83 83 83 84 84 84 84 84 84 84 84 84 84 84 83 83 83
87 88 83 80 75 67 67 73 75 77 80 79 75 79 75 70 76 79 84 84 86 84 85 85 81 82 83 82 83 83 83 83 83 83 83 84 84 84 84 84 84 83 83 83 83 83 83 83 83
88 87 85 76 70 72 73 76 78 77 79 79 79 72 78 82 80 83 85 85 85 85 86 84 82 83 83 82 83 83 83 83 83 83 84 84 84 84 84 84 84 83 83 83 83 83 83 83 83
89 84 78 73 71 75 79 80 80 76 76 77 78 71 72 79 84 85 84 86 85 86 86 86 82 83 83 83 83 84 84 84 83 84 84 84 84 84 84 84 84 84 84 84 84 84 84 83 83
84 83 76 71 70 75 79 81 80 76 77 76 76 74 74 81 82 84 86 86 88 87 88 87 83 83 83 84 84 84 84 84 84 84 84 84 84 84 84 84 84 84 84 84 84 84 83 83 83
82 80 72 73 71 73 76 84 78 76 75 75 80 72 73 79 84 85 86 86 88 88 87 86 87 85 84 84 84 84 84 84 84 84 84 84 84 84 83 84 84 84 84 85 84 84 83 83 83
87 84 75 75 74 74 80 81 82 80 75 83 84 71 70 79 84 85 85 86 86 87 86 85 85 87 86 87 84 84 84 83 83 84 83 83 84 84 84 83 83 83 84 84 84 84 83 83 83
87 81 75 74 75 78 82 79 82 84 79 80 82 80 84 83 84 83 82 82 83 83 84 86 86 86 85 86 87 84 84 84 83 84 84 85 90 88 86 83 82 84 84 84 84 84 84 82 82
85 80 79 84 85 82 82 81 80 77 78 77 77 81 82 82 81 80 80 80 81 82 83 84 86 86 86 88 85 86 87 88 87 87 86 86 86 86 86 84 82 83 84 83 84 83 83 85 91
84 81 84 84 86 87 83 81 83 77 75 79 75 77 79 80 80 80 81 81 81 83 85 85 84 85 85 84 86 86 86 86 87 85 85 85 86 86 87 88 89 88 85 91 89 87 90 86 86
82 86 87 86 86 85 82 85 80 80 81 86 82 81 80 79 80 81 81 81 81 82 83 85 84 83 84 85 85 86 86 86 86 87 84 84 85 84 84 87 86 83 86 86 87 89 85 86 85
83 86 87 88 86 86 85 81 81 79 84 86 83 81 79 80 81 83 84 84 83 81 83 84 84 83 83 82 85 85 85 86 86 86 86 86 85 81 81 83 84 83 84 86 82 83 84 84 85
86 84 84 86 84 84 82 80 82 81 82 81 80 79 81 81 81 82 82 82 82 83 84 85 84 84 84 83 82 84 85 86 86 86 86 84 84 81 82 83 81 82 85 87 83 82 84 84 84
85 79 81 82 83 80 84 74 77 82 81 78 79 79 80 81 83 81 83 82 83 84 85 84 84 85 83 83 83 83 86 82 86 87 83 83 83 83 83 81 81 84 85 82 84 83 84 84 85
81 81 75 79 82 80 84 75 80 82 80 77 78 79 79 81 83 84 85 84 85 85 83 84 87 86 83 83 84 85 85 85 83 84 82 85 82 84 84 81 82 82 83 84 84 84 84 84 84
78 75 75 74 83 79 80 77 81 82 81 78 79 80 80 80 82 84 86 85 86 84 84 83 84 85 84 83 84 85 82 82 81 85 85 84 83 83 81 83 81 81 83 81 84 84 82 82 83
73 73 75 75 78 80 77 76 77 80 81 79 79 80 80 81 82 84 86 87 87 86 84 84 85 84 83 84 82 84 83 84 85 81 84 85 83 84 83 81 81 81 81 83 83 80 82 81 81
82 78 77 77 80 78 77 77 76 79 79 79 80 79 81 82 86 87 86 87 86 85 84 83 82 82 83 83 82 82 83 83 83 82 84 84 83 83 82 82 82 82 82 82 81 82 79 82 81
79 77 77 78 80 80 76 75 78 79 78 80 80 79 80 82 84 84 85 86 85 84 83 82 82 82 82 84 83 84 83 85 86 85 83 84 84 83 83 82 82 81 83 79 80 79 80 81 80
77 77 76 77 77 77 76 74 75 78 80 81 82 83 83 82 83 83 83 84 85 83 83 82 82 82 82 83 83 81 82 82 83 83 83 84 84 83 82 82 82 80 81 82 79 79 76 78 79
75 80 80 77 75 69 78 67 73 78 75 77 80 82 83 83 85 86 85 84 85 84 85 84 83 82 82 81 81 80 82 81 84 83 84 84 83 83 82 81 81 79 82 79 80 80 79 77 77
79 81 80 79 77 73 70 69 78 74 73 76 80 82 84 87 86 86 86 86 86 86 86 84 83 82 82 81 82 81 81 84 84 82 80 81 80 81 82 81 80 79 81 79 78 77 76 79 78
81 77 74 75 76 63 73 70 74 72 75 80 83 84 85 87 88 88 89 88 86 88 86 85 82 80 81 81 81 80 80 81 80 80 80 81 81 81 79 80 80 80 79 78 79 77 76 77 77
80 77 65 62 61 62 75 68 74 83 84 86 87 84 86 88 88 87 86 86 85 84 84 84 81 79 80 80 81 81 80 80 79 79 81 80 80 80 79 78 78 79 78 78 78 77 77 76 77
76 78 68 56 59 65 66 63 73 85 90 87 89 90 88 87 88 86 86 85 85 84 83 83 81 80 80 81 80 81 81 83 82 80 82 82 82 82 80 79 79 78 78 78 77 79 79 77 77
74 69 83 71 65 66 70 71 78 83 84 86 86 87 87 87 88 88 88 87 86 84 83 83 81 80 81 81 81 80 80 80 81 79 77 80 79 82 79 79 78 78 77 77 77 79 77 77 76
78 82 69 69 59 56 65 66 74 79 83 87 85 86 88 88 88 89 89 87 87 87 86 84 83 81 82 82 82 82 81 76 79 79 76 78 79 79 78 78 78 77 77 77 76 77 77 75 78
74 72 71 76 71 64 61 68 81 83 86 88 89 88 89 88 88 89 88 88 87 87 87 85 84 83 83 82 82 81 79 78 76 78 77 72 77 76 77 77 77 78 77 77 75 76 77 75 75
82 76 76 68 62 67 70 72 85 84 89 90 90 90 90 88 88 88 88 88 87 86 87 86 87 85 85 84 82 81 78 74 77 71 76 78 74 74 76 76 75 76 76 77 76 76 77 75 74

GFSSGP_sfc_temp_021.txt.gz
Temp
85 92 95 87 67 67 72 79 86 79 81 89 90 80 78 69 77 68 88 91 90 91 90 89 82 82 82 83 83 83 83 83 83 84 84 84 84 84 84 84 84 84 84 84 84 84 84 84 84
98 97 98 90 75 64 73 83 78 84 90 92 91 88 81 80 88 85 84 89 92 92 92 92 81 82 82 83 83 83 84 84 84 84 84 84 84 84 84 84 84 84 84 84 84 84 84 84 84
101 102 89 86 78 68 74 80 87 89 92 91 88 92 87 81 88 87 93 92 92 88 89 88 82 83 83 83 83 84 84 84 84 84 84 84 84 84 84 84 84 84 84 84 84 84 84 84 84
99 98 96 86 83 86 84 87 91 90 92 93 91 83 92 96 91 95 96 92 90 93 92 85 83 83 83 84 84 84 84 84 84 84 84 84 85 85 85 84 85 85 84 85 85 84 84 84 84
103 98 90 85 84 89 90 93 93 86 90 91 91 82 84 93 98 98 96 93 91 92 92 90 83 83 83 83 84 84 84 84 84 84 84 85 85 85 85 85 85 85 85 85 85 85 84 84 84
94 100 88 82 84 89 93 94 94 93 92 90 88 85 85 96 96 97 97 96 93 94 96 90 84 83 84 84 84 84 84 84 84 84 84 84 85 85 85 85 85 85 85 85 85 85 84 84 84
92 90 89 88 84 87 90 97 94 92 90 90 94 83 87 93 98 100 100 100 97 97 96 92 91 87 84 84 84 84 84 84 84 84 84 84 84 84 85 85 85 85 85 85 85 85 84 84 84
100 94 90 91 87 85 94 95 97 94 91 99 98 83 83 93 99 101 102 102 96 96 94 91 91 91 90 89 85 85 84 84 84 84 84 84 85 85 85 85 84 84 85 85 85 85 84 84 84
105 85 85 88 89 89 96 93 97 100 94 94 96 94 95 97 100 99 98 96 91 94 93 94 91 90 92 92 89 85 85 85 84 85 85 86 91 89 91 86 85 84 84 85 85 85 85 85 84
96 70 86 98 95 94 95 95 95 93 91 90 92 98 97 96 96 94 94 92 92 90 92 93 93 95 94 97 89 90 92 92 92 92 89 92 95 94 92 90 86 85 85 86 85 85 86 85 88
99 85 97 98 100 100 96 96 98 93 88 92 90 91 93 94 94 94 95 95 93 92 94 100 96 95 96 91 94 95 96 96 95 93 92 94 95 94 96 93 87 85 83 87 89 89 94 87 92
93 93 99 99 100 100 96 100 94 94 96 99 97 95 94 92 94 95 95 95 94 93 96 98 96 93 94 96 96 98 98 97 97 95 91 91 92 93 92 95 84 90 94 91 89 88 92 92 89
96 98 100 101 101 101 101 96 95 95 99 101 99 95 93 94 95 97 98 98 96 94 96 96 95 92 92 92 96 97 97 97 98 97 94 94 94 93 93 93 92 89 87 85 90 86 88 90 90
101 100 99 100 101 100 96 96 96 96 100 98 96 94 95 95 96 96 96 95 94 94 95 96 95 92 92 91 91 93 95 96 97 97 96 91 92 92 94 84 85 84 92 87 91 83 84 86 87
101 93 97 98 99 97 99 91 91 98 98 95 94 94 95 96 97 95 96 95 95 95 96 95 94 94 91 90 91 92 95 96 94 90 95 93 90 89 88 89 91 89 87 90 88 87 89 90 91
95 95 88 97 98 98 96 84 94 99 97 94 94 94 94 95 97 97 98 97 97 96 94 95 98 96 92 91 92 94 95 86 91 96 86 92 90 88 87 90 84 85 89 86 89 87 83 92 92
92 84 87 90 98 96 93 73 95 99 97 94 94 95 94 94 96 98 99 98 98 96 94 94 95 96 93 91 92 93 94 92 96 88 92 93 92 91 89 91 89 90 89 86 89 80 90 89 90
83 85 89 87 94 94 90 85 95 97 97 96 95 95 94 94 95 98 98 98 98 97 95 93 94 93 92 92 89 92 88 92 96 94 91 88 91 90 90 92 90 89 88 89 82 85 89 87 88
92 90 88 93 97 92 89 90 92 96 96 96 96 94 95 95 98 99 98 99 98 97 94 92 90 90 91 90 89 88 90 91 93 94 92 90 90 88 87 87 87 88 88 87 87 87 86 87 89
91 89 89 94 96 93 91 89 94 95 94 96 96 96 95 96 97 97 97 98 97 95 93 91 90 90 89 90 89 94 94 96 96 93 90 91 90 90 90 89 87 87 91 87 86 84 84 88 88
90 88 89 89 94 95 90 85 90 96 97 97 98 100 99 97 97 97 96 96 97 94 93 91 90 90 90 90 91 91 92 93 93 94 93 91 91 92 89 88 89 88 87 90 85 85 83 84 87
84 94 93 92 79 77 92 76 86 93 93 95 96 98 100 99 100 100 98 96 97 96 95 93 91 89 90 89 90 88 90 89 93 94 96 95 92 92 91 90 89 87 89 86 86 87 83 82 84
87 96 92 92 89 84 84 80 83 92 90 94 97 99 100 102 101 101 100 98 98 98 97 95 91 89 90 89 88 91 88 93 95 95 90 89 89 91 91 90 88 86 88 86 85 84 82 85 84
96 92 92 92 89 73 84 77 83 82 91 95 99 100 100 102 103 102 103 102 99 100 98 96 91 88 89 89 88 87 89 88 92 91 90 90 92 90 89 90 87 86 87 86 86 84 83 82 82
91 87 75 72 73 72 86 81 78 95 97 99 99 102 103 103 103 102 100 100 99 97 97 97 91 87 89 89 89 87 88 88 88 89 90 90 92 92 87 87 85 86 85 86 85 83 82 83 82
87 87 76 63 69 76 87 77 85 99 102 104 104 106 106 103 103 102 100 100 99 98 96 95 91 88 89 89 88 88 88 90 90 90 93 92 94 94 89 86 86 86 86 85 84 85 84 84 83
87 82 92 82 84 78 83 87 93 98 99 100 101 103 104 104 103 103 103 102 100 98 96 94 92 89 89 90 88 88 87 88 90 89 89 93 92 95 90 87 85 85 85 84 83 84 83 82 82
89 94 81 84 68 67 78 80 82 89 91 97 99 101 104 106 105 105 104 102 102 101 99 97 94 90 90 91 90 89 89 88 89 90 89 89 91 90 89 86 86 85 84 83 82 83 84 81 82
84 85 86 87 82 72 70 78 95 92 94 95 99 102 105 106 106 106 105 105 103 102 100 98 95 92 91 91 90 89 89 89 89 90 90 88 89 88 88 85 85 83 80 80 80 81 81 81 80
90 85 86 80 72 80 79 80 99 99 99 100 101 104 106 107 108 107 107 106 104 102 102 99 98 95 94 93 91 90 90 89 89 88 90 88 86 87 86 85 84 80 78 75 75 79 80 81 80

GFSSGP_sfc_temp_024.txt.gz
Temp
83 87 93 81 63 64 63 71 82 77 79 86 83 73 70 69 73 62 84 84 86 86 85 85 82 82 82 83 83 83 83 83 83 83 84 84 84 84 84 84 84 84 84 84 84 84 84 84 84
91 91 82 68 59 58 68 81 68 77 87 85 80 74 78 74 83 80 80 87 89 90 89 87 81 82 82 83 83 83 84 84 84 84 84 84 84 84 84 84 84 84 84 84 84 84 84 84 84
95 94 73 68 70 58 69 78 85 89 89 89 82 78 83 76 84 84 89 90 91 89 88 84 82 82 83 83 83 84 84 84 84 84 84 84 84 84 84 84 84 84 84 84 84 84 84 84 84
90 87 87 77 75 71 83 87 91 89 91 91 89 79 87 91 87 88 91 93 91 90 88 83 83 84 84 84 84 84 84 84 84 84 84 84 85 85 85 85 85 85 85 85 85 84 84 84 84
93 78 77 83 83 86 91 89 87 86 87 86 87 78 79 89 93 93 91 92 87 89 87 85 83 83 84 84 84 84 84 84 84 84 84 85 85 85 85 85 85 85 85 85 85 85 84 84 84
81 86 75 80 84 89 93 90 87 90 90 87 83 80 80 93 89 91 92 91 92 90 89 86 84 84 84 84 84 84 84 84 84 84 84 85 85 85 85 85 85 85 86 85 85 85 84 84 84
86 85 82 86 84 86 90 98 91 91 90 87 89 76 85 89 93 95 95 95 95 91 89 86 86 85 84 84 84 84 84 84 84 84 84 84 85 85 85 85 85 85 85 85 85 85 85 84 84
90 88 83 88 84 83 93 96 96 94 87 98 93 80 80 90 95 97 96 91 93 90 90 86 85 86 84 84 84 84 84 84 84 84 84 85 85 85 86 85 85 85 85 85 85 85 85 85 85
82 67 79 84 87 87 96 92 98 99 94 94 94 90 94 97 99 95 89 93 91 92 91 90 89 87 86 86 86 84 84 84 84 85 84 84 80 81 88 86 85 85 85 85 85 85 85 85 85
67 63 79 84 93 91 95 94 94 92 91 91 91 95 96 97 96 93 89 89 88 89 90 91 91 90 89 92 83 85 86 86 85 86 85 85 81 79 89 89 87 86 85 85 84 85 83 85 87
75 64 84 89 94 98 95 95 97 91 86 91 87 90 93 95 94 94 91 90 85 89 89 92 89 89 90 85 85 87 88 88 87 86 81 86 86 87 86 83 86 79 86 84 82 77 78 79 87
77 87 88 95 100 97 95 98 94 94 92 97 95 93 92 92 93 94 93 91 89 89 91 90 88 88 85 85 88 90 90 89 87 89 88 86 87 86 86 82 85 82 82 83 83 75 76 86 87
94 88 93 102 100 100 99 95 93 94 98 100 97 93 91 92 93 96 97 96 91 89 92 90 90 87 89 88 89 87 87 87 92 87 87 87 86 83 86 84 85 85 85 84 83 83 81 78 84
100 99 99 101 100 100 94 95 95 96 100 97 95 92 92 93 94 94 95 93 92 92 93 93 91 88 89 88 89 87 89 90 87 87 85 87 88 84 83 83 83 85 82 84 84 83 83 83 85
99 93 97 98 99 97 99 89 90 96 99 94 93 92 93 94 95 94 95 93 93 93 94 92 91 90 87 87 88 88 89 93 88 86 85 87 86 87 86 83 84 84 83 83 84 84 83 82 85
93 94 85 95 98 98 96 79 93 98 96 92 92 92 93 93 95 96 96 95 94 93 91 92 95 91 87 86 87 88 89 84 85 84 86 86 84 86 85 84 84 81 80 81 78 81 79 79 82
89 81 85 88 98 95 92 76 88 98 96 92 92 92 93 93 95 96 97 96 94 93 91 90 91 91 87 86 87 87 86 84 86 84 84 84 86 84 83 84 80 83 81 83 80 80 78 79 80
79 83 86 86 93 95 89 77 84 93 95 93 93 93 93 93 94 96 97 97 97 94 91 89 91 89 86 86 85 86 85 88 85 86 86 84 86 88 80 84 83 84 84 82 81 80 81 79 78
88 87 86 90 91 91 86 73 71 83 93 94 93 93 93 93 96 98 97 97 96 94 90 88 87 86 87 87 85 84 84 85 86 87 82 83 86 87 86 82 84 84 81 80 81 81 78 78 79
87 85 86 92 90 90 89 82 81 91 93 95 94 93 94 95 95 95 95 96 95 92 89 87 86 86 86 87 85 85 84 87 86 88 87 86 84 84 84 81 82 81 80 81 80 79 76 77 79
86 84 86 87 92 93 90 85 88 94 95 96 98 98 97 95 95 94 94 94 95 91 89 87 85 86 85 87 85 84 85 87 85 84 83 86 87 87 84 85 84 82 82 80 79 79 79 75 78
80 91 90 88 85 75 88 73 82 89 90 93 95 97 97 97 98 98 96 94 95 92 92 87 86 85 86 85 84 83 83 83 85 86 85 86 86 86 85 85 84 81 80 78 79 81 78 77 74
85 93 90 90 85 82 79 74 81 87 84 90 94 97 99 100 100 99 98 95 96 95 93 90 86 85 85 85 84 84 84 86 87 86 84 83 84 87 87 85 83 81 80 80 80 78 77 77 76
95 90 89 89 86 71 79 75 77 82 80 89 96 98 99 101 101 100 101 98 96 97 94 91 86 84 85 85 84 83 83 83 85 86 83 83 83 84 85 85 81 81 80 79 80 79 80 78 77
90 84 73 70 72 71 85 77 79 89 92 93 90 91 101 102 102 99 98 98 94 93 93 91 86 83 84 85 84 83 84 83 83 86 84 83 84 83 81 82 80 80 80 81 79 78 78 77 77
85 84 74 61 67 72 85 76 82 92 95 93 90 91 103 101 101 100 98 97 95 93 92 91 85 83 84 84 84 84 84 86 86 85 87 86 86 86 81 82 81 81 80 80 78 78 77 76 76
84 78 89 78 81 75 81 85 93 95 93 93 94 99 100 101 102 102 101 100 98 93 91 89 86 84 84 85 84 84 83 84 85 84 84 86 84 87 82 82 80 80 80 79 77 77 76 76 76
87 92 77 79 64 64 76 77 80 85 81 90 95 97 102 103 104 103 103 100 98 97 94 91 88 85 85 86 85 86 85 84 85 85 84 83 85 86 82 81 81 80 79 78 75 76 77 75 77
83 80 82 84 79 70 68 76 94 90 91 92 95 98 102 104 104 103 103 102 98 98 95 93 90 87 86 86 86 85 85 85 84 86 85 84 84 83 81 80 80 79 79 78 76 75 77 75 75
89 83 82 73 70 78 77 79 99 96 96 98 98 100 103 103 106 105 105 102 99 97 96 94 93 91 88 87 86 85 85 85 84 84 86 85 83 83 82 80 79 79 79 77 75 75 77 75 74

GFSSGP_sfc_temp_027.txt.gz
Temp
81 82 83 75 62 60 57 65 77 73 71 75 78 72 70 71 70 59 73 78 78 77 78 81 82 83 83 82 82 83 83 83 83 83 83 83 83 83 83 84 84 84 84 84 84 84 83 83 83
82 83 73 65 59 55 59 74 71 74 74 76 76 76 73 67 77 74 72 79 81 79 79 80 81 83 83 83 83 83 83 83 83 83 83 83 83 84 84 84 84 84 84 84 84 84 84 83 83
86 80 65 60 60 55 62 74 75 76 79 78 73 82 75 69 77 77 81 83 83 81 80 80 82 82 83 83 83 83 83 83 83 83 83 83 84 84 84 84 84 84 84 84 84 84 84 83 83
85 76 69 61 61 70 75 78 83 81 81 81 79 73 80 84 80 82 86 87 81 80 81 82 83 83 83 83 83 83 83 83 83 83 84 84 84 84 84 84 84 84 84 84 84 84 83 83 83
82 74 62 66 69 77 82 87 85 79 80 80 80 73 73 82 86 87 86 86 81 80 80 81 83 83 83 83 83 83 83 83 83 83 84 84 84 84 84 84 85 85 85 85 84 84 83 83 83
69 71 62 64 73 82 83 86 80 82 80 79 76 73 73 84 84 85 87 85 83 80 80 81 83 83 83 84 83 83 84 84 83 84 84 84 84 84 84 85 85 85 85 85 85 84 84 83 83
71 62 66 65 74 79 82 89 84 80 78 78 82 70 76 81 85 87 87 86 85 83 80 80 81 83 84 83 83 83 84 84 83 84 84 84 84 84 84 85 85 85 85 85 85 84 84 83 84
72 66 68 73 76 75 85 87 89 84 80 87 85 70 69 80 87 87 87 85 84 82 80 79 78 78 78 80 84 84 84 84 84 84 84 84 84 84 85 84 84 85 85 85 85 85 84 84 84
76 60 60 70 79 78 87 84 91 91 84 85 88 82 82 87 88 86 83 82 82 82 81 80 79 78 77 78 82 83 84 84 84 83 84 83 78 77 82 83 84 85 85 85 85 84 84 84 83
68 59 69 83 83 80 89 87 87 85 82 83 85 88 88 89 87 81 80 79 80 79 80 81 81 80 80 84 78 77 80 78 77 78 78 77 76 75 80 83 85 85 85 85 84 84 82 83 78
73 69 80 83 87 89 86 86 90 84 77 82 81 84 87 86 83 81 83 82 81 82 83 83 83 82 82 82 78 78 78 77 78 77 77 77 77 74 77 79 78 74 82 77 80 79 76 76 78
74 84 87 84 90 88 87 89 86 87 85 89 88 88 88 83 83 83 83 82 82 82 83 84 83 83 81 80 79 80 80 79 79 79 79 78 76 78 80 79 79 78 78 79 76 74 75 75 81
79 82 90 92 90 89 93 88 87 87 89 91 90 89 86 86 85 86 85 83 83 82 83 86 84 81 81 83 80 80 82 83 82 81 80 80 78 79 81 78 78 80 80 80 75 75 77 76 78
86 87 90 92 91 92 87 88 87 88 90 88 87 85 86 86 85 85 85 83 83 84 84 85 84 81 82 80 80 81 84 85 82 80 81 82 79 77 78 78 78 78 81 79 78 77 76 76 79
90 84 88 88 88 88 91 85 84 89 90 85 85 85 86 86 87 84 86 83 84 85 85 84 84 82 80 80 80 80 80 81 83 80 80 81 80 78 76 76 77 77 78 79 77 80 77 78 80
81 78 71 84 88 90 83 68 87 89 87 83 85 86 86 85 87 86 87 85 86 85 84 85 89 84 80 79 79 80 80 79 79 80 79 82 80 79 77 76 76 77 79 78 74 75 75 77 74
71 66 71 79 90 87 80 69 85 89 86 83 84 85 85 85 86 87 88 87 86 85 83 85 84 83 81 79 79 79 80 79 83 80 81 80 80 79 76 76 75 78 75 74 74 73 74 71 72
64 67 73 76 83 86 74 72 85 87 85 83 84 85 85 85 85 88 89 89 87 86 83 83 82 83 82 80 78 78 77 79 80 80 81 79 79 80 76 77 75 76 74 73 74 74 75 71 71
77 75 74 80 88 83 75 73 79 83 80 81 83 83 84 85 88 89 90 89 87 86 83 83 80 79 81 79 78 75 75 77 78 78 80 79 80 78 76 75 76 76 74 74 77 72 71 70 72
77 74 74 83 87 80 76 72 77 81 81 82 85 84 85 85 87 87 88 88 87 84 83 82 81 78 82 81 78 77 76 76 77 78 78 79 80 79 78 75 75 76 78 74 73 71 67 69 70
76 73 74 77 81 83 77 68 71 82 84 85 87 87 87 86 85 85 87 87 87 84 82 82 81 79 80 80 79 76 76 76 78 80 78 82 80 79 78 77 76 75 74 72 72 71 69 67 70
69 82 82 80 76 67 79 61 66 75 80 82 86 87 87 87 88 88 87 86 87 84 84 83 81 80 80 79 78 75 75 74 76 82 81 77 80 79 78 78 76 74 73 71 71 73 70 68 67
76 84 82 81 75 68 70 65 67 75 74 80 83 87 89 89 89 88 88 89 88 87 84 82 82 81 82 81 79 78 74 79 77 74 76 77 77 78 79 78 75 74 72 71 72 71 69 69 67
86 80 79 78 73 58 68 67 67 70 77 78 80 86 90 91 91 90 91 90 89 88 86 83 81 80 81 80 78 78 76 76 75 74 75 77 75 75 77 77 74 73 72 71 71 71 70 68 68
81 69 61 57 60 57 71 67 68 81 82 85 87 87 90 92 92 91 89 88 88 87 86 83 81 80 81 80 80 79 77 77 76 76 76 74 74 73 74 74 73 72 72 73 72 72 69 69 68
75 72 62 48 54 60 69 61 70 86 88 90 91 89 89 92 93 91 90 89 88 88 85 83 80 80 81 81 80 80 81 78 78 77 77 78 78 78 76 76 75 74 73 73 71 70 70 69 68
70 68 75 59 63 57 65 71 79 85 85 86 87 90 91 90 92 92 92 91 89 88 85 84 80 81 81 81 81 80 80 81 78 77 77 77 78 80 77 77 76 75 73 72 71 70 69 70 69
78 74 65 68 53 53 64 65 65 73 79 81 84 87 88 85 86 91 93 91 89 89 88 86 82 81 81 82 82 81 81 80 80 77 77 77 78 77 78 76 76 74 74 72 70 69 70 69 69
69 72 66 67 67 56 55 64 73 75 81 80 84 89 89 90 92 93 94 93 90 90 88 86 83 82 81 82 82 82 81 81 80 79 77 78 78 76 77 77 76 75 73 73 71 69 69 69 69
81 74 67 60 52 59 61 64 82 85 83 86 87 88 90 93 95 96 95 93 89 89 89 86 83 82 82 83 82 81 81 81 80 81 79 79 79 75 77 77 75 75 75 73 72 70 72 69 68

GFSSGP_sfc_temp_030.txt.gz
Temp
81 82 80 74 62 60 58 65 72 70 70 75 77 74 67 69 68 57 71 75 77 76 77 80 81 83 83 82 83 83 83 83 83 83 83 83 83 83 83 83 83 84 84 84 84 83 83 83 83
81 81 74 67 59 54 57 70 68 73 74 77 78 75 70 66 73 69 70 76 78 77 77 78 81 82 83 83 83 83 83 83 83 83 83 83 83 83 84 84 84 83 83 84 84 83 83 83 82
84 82 68 60 58 54 60 71 72 72 78 76 74 77 72 67 72 73 76 78 78 77 77 79 82 82 83 83 83 83 83 83 83 83 83 83 84 84 84 84 83 83 83 83 83 83 83 83 83
82 72 68 59 59 67 70 72 75 74 78 80 77 68 75 80 77 78 79 79 78 77 79 82 83 83 83 83 83 83 83 83 83 83 83 84 84 84 84 84 84 84 84 84 84 83 83 83 83
80 72 61 60 66 74 77 77 77 73 76 75 76 68 70 79 82 80 80 81 77 77 78 81 83 83 83 83 83 83 83 83 83 83 84 84 84 84 84 84 84 84 84 84 84 83 83 83 83
69 68 59 57 66 78 78 80 79 77 77 74 71 70 68 81 80 81 81 79 79 77 79 81 83 83 83 84 83 83 84 83 83 83 84 84 84 84 84 84 84 85 85 84 84 84 83 83 83
64 63 62 63 62 72 76 83 77 76 74 73 77 66 71 77 82 83 81 80 79 79 78 79 80 82 84 83 84 83 83 83 83 83 83 83 84 84 84 84 84 84 85 85 84 84 83 83 83
70 65 64 68 70 71 78 79 81 77 75 83 81 66 66 77 83 83 81 79 78 78 77 76 76 77 77 80 84 84 83 83 83 83 83 83 84 84 84 84 83 84 85 85 84 84 84 83 84
76 63 62 67 73 73 82 77 83 86 78 80 82 77 79 83 84 81 78 77 76 77 76 76 75 75 75 77 81 83 84 83 84 83 84 82 77 77 80 82 84 85 85 85 85 84 83 84 83
66 64 70 76 78 74 83 80 80 78 76 77 78 81 82 83 81 78 76 73 74 74 75 77 76 76 75 82 77 76 78 77 76 76 76 76 76 74 79 81 85 85 85 85 84 84 83 80 75
71 68 75 81 83 81 82 79 83 76 72 77 74 76 80 80 79 78 77 76 75 76 77 77 77 77 76 78 74 74 74 73 74 75 75 75 76 74 75 76 77 74 79 75 80 79 76 76 75
70 79 83 83 86 84 81 83 79 80 80 84 82 81 80 79 79 78 77 77 77 77 78 78 78 78 77 77 76 74 74 74 74 75 75 74 74 75 74 76 74 74 73 75 75 74 75 76 76
73 79 85 88 86 86 87 83 80 81 85 86 84 82 80 80 80 81 81 80 79 77 79 78 79 78 79 76 76 74 76 76 77 76 76 76 75 75 76 77 75 75 77 77 74 73 74 74 76
80 82 84 87 87 88 83 83 82 82 87 84 83 80 81 80 81 81 81 79 79 80 80 81 79 79 79 78 74 76 79 79 79 81 77 80 76 76 75 76 76 76 74 76 74 73 74 74 79
83 76 81 84 85 84 86 76 77 83 85 83 83 82 81 81 83 81 82 80 81 81 82 81 81 80 79 79 78 80 83 84 81 79 78 79 77 76 75 74 75 75 75 76 74 75 74 77 76
72 69 63 79 84 87 81 67 79 83 82 80 82 83 82 80 82 83 83 83 83 82 81 82 86 81 79 78 79 78 79 77 77 78 78 79 78 76 75 74 74 75 78 77 74 73 72 72 71
63 59 65 72 82 83 75 65 79 83 81 78 80 82 82 81 81 84 84 83 83 83 82 81 84 81 79 77 77 78 78 77 76 76 77 78 78 77 75 74 74 75 74 73 73 71 72 70 70
58 59 64 68 76 82 71 69 79 81 79 78 79 80 81 82 82 83 83 85 84 82 83 82 83 81 80 77 75 75 75 76 76 76 76 77 76 77 75 75 74 74 73 72 72 72 71 69 69
68 66 65 73 79 75 73 75 76 79 79 78 78 79 80 82 85 85 85 85 84 81 81 81 81 80 79 74 73 72 72 74 75 76 78 79 77 77 75 73 74 74 72 72 73 70 69 68 68
70 68 68 72 79 74 71 75 78 79 79 79 79 79 80 82 83 84 83 84 84 81 81 81 79 80 79 79 79 75 74 74 75 75 76 77 78 77 76 74 73 74 73 72 71 69 65 66 67
70 67 69 68 75 76 72 67 69 77 80 81 82 83 83 82 82 83 83 83 84 83 80 81 79 79 80 79 77 73 73 73 73 74 75 76 80 77 76 74 73 73 71 70 70 68 67 66 67
61 76 76 73 67 62 73 55 65 72 74 77 80 81 82 83 85 84 85 82 84 83 83 82 79 78 79 79 79 78 74 72 73 75 79 76 77 77 76 75 74 72 71 70 70 70 67 66 65
68 77 74 73 65 61 63 57 60 69 68 71 77 81 83 85 85 84 85 86 85 86 83 82 80 78 79 79 80 79 75 76 74 73 75 73 75 76 77 74 73 72 71 70 70 68 67 67 65
80 72 70 65 63 53 65 64 58 69 71 76 79 82 85 85 86 87 88 88 86 86 84 82 80 79 79 79 79 78 77 74 72 71 71 72 76 75 74 75 73 71 70 69 69 68 67 67 66
73 59 51 52 53 52 61 58 67 75 78 81 82 82 86 87 87 86 85 86 85 84 83 82 79 79 79 78 79 78 77 76 74 72 73 72 72 70 72 72 71 70 70 70 69 68 67 67 66
64 67 55 44 45 51 60 55 67 79 83 85 87 87 88 87 88 87 86 86 86 84 82 81 79 79 79 79 78 79 78 79 77 74 74 77 78 76 74 74 73 72 71 70 69 68 67 67 66
65 60 69 53 48 50 56 62 71 77 78 84 86 86 86 88 89 88 87 87 87 84 82 81 79 80 79 80 79 79 79 79 77 74 75 75 77 76 74 74 74 73 71 70 68 67 67 67 66
74 69 57 49 50 49 53 57 63 68 74 77 83 85 87 88 90 90 89 88 87 87 84 82 81 80 80 80 80 80 79 80 78 75 75 76 76 76 74 74 74 73 71 69 68 67 67 67 66
68 64 56 61 58 54 47 60 69 71 72 76 82 86 87 88 88 91 91 90 89 88 85 82 81 81 80 81 81 80 79 79 80 76 77 77 77 76 74 75 74 74 72 70 69 67 67 66 66
76 70 62 60 50 52 62 63 75 76 76 78 82 86 89 91 86 90 92 92 88 86 86 83 81 81 81 81 81 80 80 79 78 79 78 77 77 77 77 75 74 74 73 71 70 69 70 67 66

GFSSGP_sfc_temp_036.txt.gz
Temp
80 80 77 71 60 58 56 60 67 65 66 71 75 71 66 65 63 57 73 75 76 75 77 79 82 83 83 82 82 83 83 83 83 83 83 83 83 83 83 83 83 83 83 83 83 83 83 83 82
80 77 72 64 56 52 55 65 63 67 70 73 73 71 67 63 69 67 70 75 76 76 75 77 81 82 83 82 83 83 83 83 83 83 83 83 83 83 83 83 83 83 83 83 83 83 83 83 83
79 81 64 60 55 53 54 66 66 71 74 73 69 73 70 65 70 70 73 76 76 74 74 77 82 82 83 83 83 83 83 83 83 83 83 83 83 83 83 83 83 83 83 83 83 83 83 83 82
76 69 67 60 58 62 65 68 71 70 74 74 71 64 71 76 72 73 76 76 74 74 76 81 82 83 83 83 83 83 83 83 83 83 83 83 83 83 83 83 83 83 83 83 83 83 82 83 82
77 69 59 58 60 67 70 72 72 69 71 71 73 64 64 73 75 75 75 76 73 73 75 80 83 83 83 83 83 83 83 83 83 83 83 83 83 83 83 83 83 83 83 83 83 83 83 82 82
65 67 59 57 62 69 71 75 73 71 70 69 68 66 65 73 73 74 76 75 76 75 76 79 82 83 83 83 83 83 83 83 83 83 83 83 83 83 83 83 84 84 84 84 83 83 83 83 83
64 61 60 61 63 65 71 76 70 69 69 69 73 62 67 69 74 76 75 75 76 76 76 76 78 81 83 83 83 83 83 83 83 83 83 83 83 83 83 83 83 84 84 84 84 83 83 83 83
66 62 60 63 59 62 73 75 75 72 71 78 75 61 63 70 75 76 75 74 73 74 75 74 75 77 77 78 83 83 83 83 83 83 83 83 83 84 84 83 82 84 84 84 83 84 83 83 83
73 58 56 64 66 68 75 72 77 78 73 75 76 72 74 75 76 73 71 71 72 74 73 74 74 74 75 76 80 83 83 83 83 83 83 82 78 78 80 81 82 84 84 84 82 84 83 83 83
63 55 62 71 73 68 75 74 73 71 71 72 72 75 75 75 72 70 70 69 71 72 73 73 73 74 75 79 76 76 77 78 77 77 77 77 77 76 80 81 82 84 85 85 84 84 83 79 78
65 60 68 76 77 76 75 73 77 72 66 71 67 69 73 72 71 70 71 71 72 73 75 74 74 74 75 76 74 74 74 75 75 75 75 75 76 75 75 76 77 77 80 78 78 77 77 77 76
62 70 73 75 79 75 74 76 74 74 73 78 74 74 73 70 70 70 70 71 71 72 75 74 74 74 73 73 73 73 73 73 73 74 74 74 73 73 74 75 76 76 76 76 76 75 76 77 78
66 73 76 79 77 77 78 75 75 73 79 78 76 74 72 71 72 73 74 73 73 71 73 73 74 74 73 72 72 72 72 73 73 74 74 74 74 73 75 76 76 75 76 76 76 76 76 76 78
73 74 77 78 79 79 75 75 75 75 78 75 74 72 73 73 73 73 73 72 72 73 73 75 74 74 74 73 71 72 72 73 73 73 74 75 75 73 73 74 75 75 75 77 75 76 76 76 77
74 68 72 74 76 75 78 69 71 77 77 73 72 73 73 74 75 74 75 73 74 74 75 74 74 75 73 72 71 71 73 74 75 76 75 77 75 75 74 74 75 76 76 76 76 76 76 76 76
65 63 59 68 74 77 74 63 75 78 75 71 73 73 73 74 75 76 77 76 76 75 74 75 78 75 73 73 72 73 73 74 76 78 76 76 76 75 75 75 75 76 76 76 75 75 74 74 74
57 53 59 66 74 74 71 63 75 77 75 72 72 73 74 73 75 77 78 78 77 76 75 74 76 75 74 73 73 74 74 74 76 76 75 76 76 76 75 75 75 75 75 75 75 73 74 73 73
53 53 57 63 69 70 66 66 70 75 75 73 72 73 73 73 74 78 78 79 78 78 76 75 76 75 74 75 74 73 73 74 74 75 75 75 76 77 75 76 75 75 74 74 74 74 72 71 71
62 59 60 64 70 68 65 64 67 73 74 73 72 72 73 74 77 79 79 80 79 78 75 75 74 74 74 73 72 72 73 73 74 75 76 76 76 77 75 75 75 75 74 74 74 72 72 71 69
62 59 60 64 72 66 65 66 69 72 73 74 74 73 73 75 76 77 78 79 78 77 76 75 75 75 75 76 76 75 75 73 75 75 76 76 76 77 76 75 74 74 74 73 73 72 70 69 69
57 59 59 60 67 66 63 59 63 71 72 75 76 76 77 76 75 75 77 78 79 77 76 76 75 76 76 76 75 72 73 73 72 73 74 75 77 77 77 75 74 74 74 73 72 71 70 68 69
50 64 67 65 59 54 63 50 57 66 68 72 74 75 76 77 78 77 78 78 78 78 78 77 76 76 76 76 75 74 75 74 75 73 74 75 76 76 77 76 75 74 73 72 71 71 69 69 69
61 69 65 64 58 52 56 52 56 63 63 68 72 75 78 80 80 78 78 79 80 81 79 78 76 76 76 76 76 75 75 75 73 73 74 73 74 76 77 76 75 73 73 72 71 70 69 69 69
69 63 58 54 52 46 56 56 52 56 65 69 73 76 78 80 81 82 80 81 81 82 80 78 76 75 76 75 76 75 75 73 72 71 72 73 73 74 75 76 75 74 73 71 71 70 69 69 69
64 54 42 41 42 49 54 53 63 64 72 74 74 76 78 80 81 81 80 79 79 78 79 78 75 74 75 75 75 76 75 74 73 73 73 71 72 72 73 75 73 72 72 72 71 69 69 69 69
58 53 42 37 38 47 51 50 58 71 75 77 80 80 81 80 81 81 81 81 79 79 78 77 75 74 75 75 75 76 76 77 76 75 75 75 74 75 75 75 75 73 72 72 70 70 69 69 69
54 54 59 46 40 43 48 55 66 69 71 74 77 79 79 80 82 82 83 83 82 80 79 77 76 75 75 76 75 75 76 76 76 74 75 75 75 76 75 75 74 72 72 71 70 70 69 69 68
62 62 51 42 39 37 44 48 55 61 68 71 71 76 80 81 82 84 84 84 84 83 81 80 78 75 77 77 77 77 76 76 76 75 74 74 74 75 74 74 74 72 72 71 70 69 69 69 68
55 55 49 54 45 43 39 48 60 64 70 75 77 76 78 80 82 84 85 85 85 84 82 80 79 77 77 77 77 77 77 77 77 76 75 75 74 74 74 74 74 73 71 71 70 69 69 68 68
70 59 52 47 44 47 44 51 65 70 72 72 76 80 77 79 82 84 86 86 85 83 82 81 80 79 78 78 77 77 77 77 76 75 76 75 74 74 74 74 73 73 72 71 71 70 71 69 68

GFSSGP_sfc_temp_039.txt.gz
Temp
81 83 79 77 65 66 64 66 75 71 72 77 80 76 72 69 68 59 74 79 79 81 81 84 82 83 82 82 82 83 83 83 83 83 83 83 83 83 83 83 83 83 83 83 83 83 83 83 83
83 80 79 73 65 64 66 73 71 74 75 79 78 75 71 67 71 70 71 79 83 84 84 84 81 82 83 83 83 83 83 83 83 83 83 83 83 83 83 83 83 83 83 83 83 83 83 83 84
83 83 72 69 69 64 66 73 74 76 79 77 73 78 74 68 74 73 79 83 83 84 85 84 82 83 83 83 83 83 83 83 83 83 83 83 83 83 83 83 83 83 83 83 83 83 83 83 83
81 77 73 68 68 71 72 75 77 76 78 78 77 69 74 80 77 80 83 84 85 85 86 84 83 83 83 83 83 83 83 83 83 83 83 83 83 83 83 83 83 83 83 83 83 83 83 83 83
82 77 69 68 69 74 78 79 79 76 76 76 76 67 66 77 81 82 82 85 85 86 86 87 83 83 83 83 83 83 83 83 83 83 83 83 84 84 83 83 83 83 84 84 83 83 83 82 82
73 73 68 68 70 75 77 80 80 77 75 74 73 71 69 79 80 82 84 85 87 86 87 87 84 83 83 84 83 83 83 83 83 83 83 83 83 83 83 84 84 84 84 84 83 83 83 83 82
71 72 70 70 69 73 75 82 78 76 74 73 78 69 68 74 82 83 84 85 87 87 86 86 87 85 84 83 83 83 83 83 83 83 83 83 83 83 83 83 84 84 84 84 84 83 83 83 83
77 75 70 72 71 71 79 80 81 78 75 82 81 68 65 75 82 83 84 84 86 86 85 84 85 87 86 87 83 83 83 83 83 83 83 83 83 84 84 83 82 84 84 84 84 84 84 84 83
78 71 72 72 71 75 81 77 82 84 78 79 80 79 81 80 82 81 81 82 82 83 85 87 86 85 85 86 86 84 83 83 83 84 83 85 90 88 87 83 83 85 84 85 84 84 83 83 84
74 72 73 80 81 79 81 81 79 78 77 77 77 81 80 79 79 78 78 78 80 81 83 86 86 86 85 87 85 86 87 88 87 87 86 88 87 86 87 85 82 85 84 85 84 84 83 85 93
74 71 77 82 84 84 82 81 84 78 74 79 75 75 77 78 78 78 79 80 80 82 84 85 84 84 85 85 86 86 87 87 87 84 85 86 86 87 89 89 91 89 85 89 89 89 93 88 90
70 76 79 83 86 83 81 84 80 80 81 87 82 80 78 77 78 79 79 80 80 81 82 84 84 82 83 85 85 86 86 86 86 86 84 84 86 85 85 89 89 86 89 86 86 87 87 89 89
72 77 80 83 85 85 86 82 81 80 85 86 82 79 78 79 79 82 83 82 81 80 82 83 83 82 82 81 85 85 85 86 87 86 85 86 86 84 86 83 86 87 88 84 85 86 88 87 89
80 79 81 85 86 86 82 82 82 84 83 80 79 78 79 79 80 80 81 80 80 81 82 83 82 82 82 82 81 83 84 85 85 86 86 84 85 85 86 86 87 88 88 89 86 84 86 85 83
81 76 82 84 85 84 85 75 77 83 82 78 78 78 79 80 81 80 81 80 81 82 83 82 82 84 81 81 82 83 84 86 86 86 84 84 84 85 83 86 87 89 87 84 84 85 86 88 88
77 78 73 82 83 85 84 75 82 85 80 77 77 78 78 79 81 82 83 83 83 83 81 82 85 84 82 82 82 83 85 85 86 86 87 85 84 84 84 86 87 88 83 83 84 86 87 87 81
73 71 71 77 84 81 81 77 86 85 82 78 78 78 78 79 81 83 84 84 84 83 81 81 82 83 82 81 82 82 82 83 86 87 84 86 84 85 85 87 87 84 85 82 86 85 85 85 86
67 68 72 73 80 81 78 79 82 84 82 80 79 79 79 79 80 83 84 85 85 84 82 82 82 82 81 82 81 83 84 84 86 86 86 85 86 85 85 84 84 85 86 82 84 83 84 85 85
73 71 72 78 82 80 78 79 84 83 83 81 80 79 80 80 84 85 85 86 85 84 82 81 80 80 81 81 81 81 81 83 85 86 85 84 85 85 84 86 81 85 84 85 83 84 81 83 83
71 70 72 77 79 78 78 78 82 82 81 82 81 79 80 82 83 83 84 85 84 83 82 81 80 80 80 82 82 84 84 86 86 87 86 86 86 85 85 85 86 84 86 82 82 80 83 83 83
70 69 72 72 76 79 76 75 76 79 82 83 84 83 83 82 82 83 83 83 85 83 82 81 80 81 81 82 82 82 84 83 84 85 86 86 86 86 84 80 81 84 84 85 82 81 80 83 82
65 74 74 72 70 67 78 66 71 78 76 79 82 82 84 84 84 86 85 84 84 84 84 83 81 81 81 81 81 80 82 82 85 86 87 87 86 86 86 84 84 83 86 84 83 82 82 81 81
69 76 73 73 71 71 71 67 75 74 73 77 81 83 85 87 86 85 86 86 87 87 86 84 82 81 82 81 81 81 81 85 87 86 84 83 85 85 86 85 84 83 85 84 82 79 78 82 83
78 74 72 71 71 60 69 68 71 74 75 80 82 84 85 87 88 88 88 88 87 88 87 85 81 80 81 81 81 80 81 82 84 82 84 85 86 86 84 85 84 84 84 83 83 81 79 80 81
75 70 59 57 57 57 74 67 70 81 83 87 84 84 86 87 88 88 87 86 86 86 86 85 81 79 80 81 81 81 81 81 81 82 84 84 86 86 84 83 82 84 82 83 82 79 80 79 80
70 71 62 52 57 63 69 62 71 83 88 88 90 90 89 87 88 88 88 87 86 86 85 84 81 79 80 81 80 81 81 84 84 84 86 86 87 87 86 84 84 83 83 83 81 82 82 80 80
69 65 76 66 61 61 68 72 78 81 84 86 86 87 88 88 88 88 89 90 88 86 84 84 81 80 80 81 80 80 81 81 84 83 83 86 85 88 86 85 84 83 83 82 80 83 79 79 79
73 77 62 66 54 53 63 64 70 75 79 84 86 86 88 90 90 90 91 91 90 89 87 86 83 80 81 82 82 82 82 82 83 83 82 84 85 84 86 84 84 83 82 82 80 81 80 78 80
68 68 70 71 66 59 59 66 78 78 82 83 86 88 91 91 91 91 91 92 91 91 89 86 84 83 82 82 82 82 82 83 83 84 83 83 83 84 84 83 83 83 82 81 80 80 80 78 78
76 71 71 62 57 64 66 68 81 83 85 87 88 91 92 92 93 92 93 92 91 90 91 88 87 86 84 84 82 82 82 82 83 83 84 84 82 83 83 83 83 83 82 81 80 80 81 78 78

GFSSGP_sfc_temp_042.txt.gz
Temp
83 84 85 77 64 76 71 74 81 77 78 84 87 80 78 72 70 60 71 79 77 81 86 87 82 83 83 83 83 83 83 83 83 83 83 84 83 83 84 84 83 83 84 83 84 84 84 84 84
89 88 84 86 70 70 74 80 77 82 84 87 85 83 80 69 77 70 74 86 80 88 91 90 81 82 83 83 83 83 84 83 83 83 83 84 84 84 84 83 84 84 84 83 84 84 84 84 84
90 91 81 80 85 73 75 81 82 84 86 85 81 86 83 71 78 73 79 86 88 86 88 88 82 82 83 83 83 83 84 84 83 83 84 84 84 84 84 84 84 84 84 84 84 83 84 84 84
84 87 83 74 77 80 81 83 85 83 85 86 86 77 82 85 82 82 89 88 87 90 91 85 83 83 84 84 83 84 84 84 84 84 84 84 84 84 84 84 84 84 84 84 83 83 84 84 84
90 87 79 78 79 83 87 87 87 83 83 84 84 72 72 81 87 88 87 90 91 94 93 90 83 83 84 84 84 84 84 84 84 84 84 84 84 84 84 84 84 84 84 84 84 84 83 84 84
82 84 79 80 80 84 87 89 88 85 84 82 81 75 70 84 84 86 91 92 95 95 95 91 84 83 84 84 84 84 84 83 83 84 84 84 84 84 84 84 84 85 85 84 84 84 84 84 84
79 82 82 82 80 83 84 91 86 85 82 82 87 77 76 81 85 89 91 93 93 95 95 92 91 87 84 84 84 84 84 84 83 84 84 84 84 84 84 84 84 84 85 85 84 84 84 84 84
85 86 82 84 82 81 88 89 90 87 83 91 90 75 74 80 88 91 93 91 90 95 94 91 91 91 90 90 84 84 84 83 84 84 84 84 84 84 84 84 84 84 85 85 85 85 84 84 84
87 82 82 82 82 84 90 86 90 92 86 86 88 87 88 89 92 90 87 86 87 93 94 95 94 92 91 92 89 84 83 84 84 85 84 85 93 94 93 85 84 86 85 85 85 85 84 85 84
84 83 83 89 90 89 89 88 88 86 84 84 85 91 89 89 88 86 86 85 87 90 92 95 95 93 92 95 90 91 93 94 93 93 91 95 93 90 92 88 85 86 86 86 85 85 85 84 93
87 80 88 90 92 92 91 89 91 87 82 87 83 84 86 87 87 87 88 88 88 90 93 95 92 92 92 92 92 93 94 95 93 90 90 93 94 94 98 97 95 95 87 98 91 93 96 94 96
81 88 89 92 93 92 90 94 88 88 89 94 91 88 87 86 87 89 89 89 89 89 91 93 92 89 90 93 93 94 95 94 95 94 89 91 92 92 93 97 96 92 95 94 94 96 91 93 94
83 88 89 92 93 93 93 90 89 89 93 96 92 88 87 87 88 91 92 92 90 88 90 91 90 88 88 88 92 94 93 94 95 94 92 94 94 92 94 93 95 95 97 96 94 94 92 94 92
90 89 90 92 93 94 90 90 91 92 94 91 89 87 88 88 89 89 90 90 89 89 90 92 90 88 88 88 87 90 92 94 93 95 94 90 92 93 94 92 96 96 96 88 93 92 94 94 93
90 82 88 91 93 91 93 86 86 94 91 89 88 88 88 89 90 89 90 89 90 91 91 91 90 90 87 87 88 89 93 94 94 94 91 90 90 90 87 94 94 97 93 91 91 91 93 90 90
84 86 80 91 93 93 91 82 90 94 90 88 88 87 88 88 91 91 92 91 91 91 89 90 93 91 88 88 89 91 93 94 94 95 94 91 89 89 90 93 96 94 92 92 92 86 89 89 86
84 78 81 85 93 92 89 84 94 94 92 89 88 88 88 88 90 91 93 92 92 91 89 89 90 91 89 88 89 90 90 91 94 95 94 91 90 90 90 94 96 89 89 93 92 93 90 90 93
77 78 84 82 89 90 86 86 92 94 92 90 89 88 88 88 89 91 92 93 93 92 90 88 90 88 87 89 87 91 92 92 93 94 94 91 91 91 90 93 91 91 95 93 92 88 91 92 91
84 82 80 86 91 87 86 87 90 94 92 91 90 88 89 89 92 93 93 94 93 92 89 87 86 86 87 87 88 88 89 90 92 93 92 91 90 90 88 91 91 91 90 90 88 88 86 90 91
81 79 80 86 88 86 86 85 91 94 92 92 92 89 90 91 91 91 91 92 92 90 89 87 86 85 86 89 89 91 90 93 93 94 92 91 91 90 90 89 92 91 93 88 89 87 91 91 91
77 77 79 80 86 88 85 82 86 92 94 94 96 95 93 92 91 91 91 91 93 90 89 87 86 86 86 88 89 88 90 90 91 92 92 92 91 92 90 91 90 90 89 93 88 87 85 89 89
73 83 82 81 78 74 86 72 84 90 90 91 94 95 94 94 94 95 93 92 92 91 91 89 87 86 86 86 88 85 87 88 91 92 94 94 92 92 92 90 87 87 93 91 89 89 88 85 87
77 86 81 80 78 78 79 75 82 89 86 89 93 95 95 96 96 95 95 94 95 94 93 91 88 86 87 86 86 87 86 91 93 93 91 89 91 91 93 91 90 89 91 89 88 86 84 89 89
84 81 80 79 78 68 77 77 78 84 85 90 94 96 95 97 97 97 98 97 95 96 95 93 88 86 86 86 84 86 86 87 91 90 91 92 93 93 90 91 89 89 89 89 89 87 85 86 87
81 76 66 64 65 65 81 76 79 89 94 94 95 96 97 97 98 97 95 96 95 94 93 93 89 84 86 86 86 85 86 86 87 88 90 91 93 94 92 89 88 88 88 89 88 86 86 85 85
76 77 70 58 64 70 80 71 79 92 96 96 98 101 100 98 98 97 96 96 95 94 94 92 89 85 86 86 86 86 86 89 90 90 93 93 95 95 92 90 90 89 90 89 88 89 88 86 85
76 73 84 76 76 71 79 80 88 92 93 94 96 98 100 99 98 98 99 98 96 94 93 92 89 86 86 87 86 86 86 86 90 89 89 93 92 96 93 91 89 89 89 88 87 89 86 87 85
83 84 72 76 61 60 73 74 77 83 86 92 94 98 100 101 100 100 100 99 99 98 95 93 91 87 87 88 88 88 88 87 88 90 88 89 92 91 93 90 90 89 89 88 86 88 87 84 87
77 76 78 80 76 67 66 75 90 87 89 90 95 98 100 101 101 101 101 101 100 100 98 95 92 89 88 89 89 88 89 89 88 89 89 89 89 90 89 90 89 89 89 88 86 87 88 84 83
84 78 79 70 66 73 74 78 92 92 95 95 96 98 102 103 104 104 104 103 101 99 100 97 95 93 91 91 89 88 89 88 89 88 90 90 89 89 89 89 88 89 89 88 86 86 88 85 83

GFSSGP_sfc_temp_045.txt.gz
Temp
84 90 89 78 63 72 68 79 88 82 79 86 85 83 74 75 72 61 71 76 77 86 89 87 82 83 83 83 83 83 83 83 83 83 84 84 84 84 84 84 84 84 84 84 84 84 84 84 84
94 91 87 77 61 61 73 82 78 79 87 88 89 87 82 72 73 69 74 77 85 90 92 90 81 82 83 83 83 83 84 84 84 84 84 84 84 84 84 84 84 84 84 84 84 84 84 84 84
91 91 78 73 67 64 72 80 83 87 91 86 85 82 84 75 75 75 87 81 88 89 88 87 82 83 83 83 84 84 84 84 84 84 84 84 84 84 84 84 84 84 84 84 84 84 84 84 84
84 85 85 64 61 85 81 86 89 86 88 90 87 79 87 88 79 87 88 90 87 85 93 84 83 84 84 84 84 84 84 84 84 84 84 84 84 84 84 84 84 84 84 84 84 84 84 84 84
89 87 79 76 82 86 91 93 89 83 87 89 85 79 77 84 91 91 90 92 89 89 92 89 83 84 84 84 84 84 84 84 84 84 84 84 84 84 84 85 85 85 84 84 84 84 84 85 85
78 88 64 61 83 89 93 94 95 92 90 88 82 78 77 86 87 88 91 90 91 90 95 90 84 84 84 84 84 84 84 84 84 84 84 84 84 84 85 85 85 85 85 85 85 84 84 84 85
80 84 75 84 84 84 90 97 93 91 89 88 89 76 80 82 87 90 91 92 92 94 94 91 91 87 84 84 84 84 84 84 84 84 84 84 84 84 85 84 85 85 86 85 85 85 84 84 84
91 89 80 88 82 85 93 95 96 93 89 96 94 78 75 82 88 91 92 91 93 95 94 91 90 91 90 89 84 84 84 84 84 84 84 84 85 85 85 85 85 85 86 86 85 85 85 84 84
96 82 70 77 75 89 96 92 97 99 91 92 93 90 89 88 89 88 88 87 89 94 96 96 94 92 92 92 89 85 84 84 84 85 84 85 91 87 90 86 86 86 86 86 86 85 85 85 84
89 79 65 95 88 87 95 95 93 92 89 88 92 93 91 89 86 84 83 84 87 91 96 97 96 95 94 97 88 90 92 93 91 89 90 79 90 95 90 90 86 87 87 87 86 86 86 86 80
92 84 71 95 97 97 96 94 96 92 87 91 87 88 89 90 88 84 86 86 88 95 97 98 96 94 95 95 93 95 95 96 95 91 92 84 93 89 81 89 84 87 88 84 85 88 81 89 79
88 94 92 94 98 97 92 96 94 93 94 97 95 93 91 91 90 88 87 88 92 93 95 97 96 92 93 95 95 97 97 97 97 95 92 92 90 94 94 83 88 88 90 90 91 88 93 78 87
90 91 96 97 97 98 97 93 93 94 98 100 97 93 91 92 93 94 95 95 95 93 95 96 94 91 91 91 95 97 97 97 98 96 93 96 95 91 84 90 84 87 89 88 86 84 94 89 93
96 94 96 98 98 98 95 95 95 96 99 97 94 92 93 93 94 95 95 94 94 94 94 96 94 91 91 90 91 93 95 97 97 97 96 92 94 94 95 92 82 83 85 91 94 87 84 84 92
97 89 93 95 97 95 98 89 91 98 98 95 93 92 93 93 95 94 95 94 95 95 95 95 94 93 89 89 90 92 95 97 96 97 94 92 91 92 89 80 86 83 92 92 91 91 92 79 89
89 90 83 93 96 97 96 82 95 100 96 93 92 92 92 93 95 95 96 96 95 95 93 94 96 94 90 89 90 93 96 97 97 97 97 92 91 91 90 87 79 88 93 93 85 93 80 76 91
86 79 82 88 97 96 93 82 69 100 96 93 93 93 92 92 94 96 97 97 96 95 93 92 93 94 91 89 91 92 93 94 97 97 97 92 92 91 91 86 81 92 93 94 85 82 88 85 89
79 80 86 84 94 94 91 90 87 98 97 95 94 93 92 93 93 96 97 97 97 95 94 92 93 92 91 91 89 93 94 94 96 96 97 93 92 92 91 93 89 93 78 90 84 86 85 92 91
88 86 85 90 96 91 89 88 90 96 97 96 95 93 93 94 96 97 97 97 97 95 92 91 90 89 91 90 89 90 90 91 93 95 94 93 92 92 88 92 87 92 91 89 89 87 87 87 91
85 85 86 91 95 92 89 88 93 95 96 97 97 94 94 95 95 95 95 96 95 93 92 90 89 89 89 91 90 92 92 94 94 95 94 93 93 92 90 90 84 86 84 89 90 88 89 91 92
83 82 85 85 91 94 89 85 88 96 99 99 100 98 97 95 95 94 94 94 96 93 92 90 88 88 88 89 91 91 92 92 93 93 94 94 93 93 91 91 91 82 91 83 89 88 88 80 90
78 88 88 86 85 78 89 74 85 92 93 95 98 99 98 97 97 97 96 95 95 95 94 92 89 88 88 88 89 86 88 88 92 93 95 95 93 93 93 92 91 90 93 91 91 91 89 86 87
82 90 86 86 83 83 83 79 85 91 88 93 97 100 101 100 99 98 97 96 97 97 95 93 89 87 88 87 87 89 87 92 94 95 91 90 91 92 94 93 90 89 91 93 90 89 86 90 89
90 86 86 85 82 71 79 81 82 88 90 95 98 100 101 102 101 100 100 99 98 99 97 95 90 87 87 88 86 87 86 87 91 92 93 94 94 94 91 93 92 89 90 91 89 89 87 86 89
86 81 70 67 69 68 83 79 82 93 97 98 98 100 102 103 102 100 99 98 97 97 96 96 89 86 87 88 87 86 87 87 88 90 92 93 95 95 92 90 90 90 89 90 91 88 88 86 87
81 81 71 60 66 72 82 74 82 96 100 103 103 104 104 103 103 101 100 99 98 97 96 95 90 87 88 87 86 86 87 91 90 91 95 95 96 97 96 91 91 90 90 90 90 90 89 88 86
81 77 88 79 82 77 81 84 92 97 97 99 99 102 103 103 103 103 102 102 100 98 96 94 92 88 88 88 87 87 87 87 90 88 90 94 93 98 96 94 91 91 90 90 89 90 88 89 86
87 89 75 79 66 66 77 79 81 87 91 96 97 99 102 104 104 104 104 102 102 101 99 97 93 90 89 89 89 89 88 88 89 90 89 90 92 94 95 93 91 90 90 90 88 89 89 87 88
81 81 82 84 80 71 70 78 94 92 93 94 98 100 102 105 104 105 105 105 103 103 101 98 96 93 91 90 90 89 89 90 89 90 91 90 91 92 91 92 91 90 89 89 88 88 90 86 85
88 83 82 74 71 79 80 81 97 99 98 98 97 101 104 106 107 107 106 105 104 102 102 100 99 96 95 92 90 90 90 90 90 89 91 91 90 90 91 90 90 90 90 89 88 87 89 88 85

GFSSGP_sfc_temp_048.txt.gz
Temp
83 87 86 74 63 64 63 73 84 78 77 86 87 81 75 73 70 62 73 80 82 86 85 85 82 83 83 83 83 83 83 83 83 83 83 84 84 84 84 84 84 84 84 84 84 84 84 84 83
90 89 80 71 62 61 67 83 76 79 84 88 86 83 81 70 75 69 73 84 87 89 88 85 82 83 83 83 83 83 84 83 83 83 83 84 84 84 84 84 84 84 84 84 84 84 84 84 84
92 90 73 66 62 58 68 80 80 85 88 86 83 87 84 72 76 73 83 86 89 88 89 83 82 83 83 83 83 83 84 84 84 84 84 84 84 84 84 84 84 84 84 84 84 84 84 84 84
85 81 78 68 63 71 80 78 88 84 86 87 85 78 82 83 78 83 83 88 89 87 89 83 82 83 83 83 83 84 84 84 84 84 84 84 84 84 85 84 84 84 84 84 84 84 84 85 84
85 80 64 60 64 79 88 89 88 85 84 85 84 73 73 83 88 83 86 90 88 86 87 85 83 83 83 84 84 84 84 84 84 84 84 84 84 85 85 85 85 85 85 84 84 84 85 85 85
74 74 59 62 72 87 92 91 88 85 85 85 80 75 74 86 83 86 89 87 84 87 89 86 83 83 83 84 84 84 84 84 84 84 84 84 84 85 85 85 85 85 85 85 85 84 84 85 84
77 70 65 69 77 82 90 96 90 87 88 83 86 72 77 81 87 89 88 90 86 92 89 86 86 85 84 84 84 84 84 84 84 84 84 84 84 85 85 85 85 86 86 85 85 85 85 84 84
87 82 70 75 79 83 93 93 95 90 84 93 88 73 70 80 88 89 90 89 91 90 89 85 85 85 85 85 84 84 84 84 84 84 84 84 85 85 85 84 85 86 86 86 85 85 85 84 84
94 73 62 70 76 86 96 92 94 97 91 91 90 84 83 86 88 86 86 86 88 87 90 90 88 87 86 86 86 84 84 84 84 84 83 81 78 84 85 86 86 86 86 86 86 85 84 85 84
87 70 67 76 78 82 86 93 92 90 89 88 86 85 86 86 83 83 85 83 78 87 90 91 90 89 88 91 83 85 86 86 85 85 78 75 78 80 88 87 86 86 86 86 86 86 85 85 81
88 76 74 80 82 89 77 74 97 90 85 87 80 80 84 83 83 83 85 86 83 87 92 93 89 89 90 85 85 87 88 88 87 83 76 76 80 83 80 81 85 85 85 84 86 84 84 85 84
85 90 85 79 88 89 79 79 93 92 90 94 89 86 85 83 83 85 83 87 87 88 92 92 90 86 87 87 88 90 90 89 90 88 87 80 76 79 74 76 75 79 81 81 80 83 83 80 84
88 92 88 86 94 89 79 68 88 92 96 96 92 89 86 85 85 86 87 90 90 90 92 91 89 86 88 86 88 88 90 92 86 89 88 88 78 81 76 76 75 81 84 82 84 83 84 82 85
94 94 94 97 90 97 90 83 90 92 98 93 90 88 88 88 87 87 87 88 88 91 92 92 89 87 89 88 89 86 90 90 91 90 88 90 87 83 83 80 75 82 83 87 83 85 83 80 79
95 87 92 94 96 94 98 84 87 91 96 91 90 89 91 92 90 88 88 88 91 93 93 90 90 88 87 87 88 89 91 93 90 91 87 91 89 88 84 78 80 81 80 87 84 83 83 80 83
88 90 81 92 94 96 95 81 85 83 77 90 90 90 90 92 94 92 93 93 94 93 89 90 94 89 86 85 86 88 89 90 90 90 88 88 89 89 87 79 76 82 87 83 83 84 81 80 81
84 77 80 85 95 93 92 84 80 83 77 90 90 90 90 91 93 95 97 96 94 92 90 90 91 89 86 85 86 86 87 89 89 90 90 86 88 88 86 80 79 80 81 81 82 80 81 78 81
75 77 81 81 90 92 89 88 86 85 80 90 90 90 90 90 92 94 96 97 95 93 90 88 89 87 84 85 84 87 87 88 88 89 90 86 88 88 87 80 79 80 78 82 83 84 82 81 81
84 82 81 87 93 89 88 86 82 76 72 77 90 90 90 91 94 96 96 96 95 93 89 86 86 85 85 85 83 84 84 85 86 88 90 87 87 87 86 81 80 83 83 83 85 84 83 80 82
83 81 82 88 94 90 88 87 81 73 69 76 83 72 91 92 93 93 93 94 94 90 88 86 85 84 85 85 84 85 85 87 87 87 88 89 87 87 86 83 84 83 76 82 82 82 77 81 82
81 79 81 84 90 91 87 81 87 83 87 73 70 90 94 93 92 92 92 92 93 89 87 85 84 85 85 85 85 85 86 86 85 85 86 88 88 88 85 85 84 83 80 80 81 83 83 75 81
75 86 86 85 84 76 88 71 82 88 90 81 92 96 95 95 95 94 93 92 93 91 90 86 85 84 85 84 84 82 82 82 84 85 86 87 87 88 86 86 84 83 83 82 83 84 83 81 78
80 88 85 85 82 82 82 77 82 88 87 92 94 97 96 97 97 95 95 93 94 94 91 88 85 83 84 83 83 83 82 85 86 86 84 84 85 87 89 86 85 85 85 83 82 82 82 83 80
90 86 85 84 82 71 79 78 78 83 86 92 96 98 98 98 98 97 97 95 94 95 92 90 85 82 83 83 82 82 81 83 84 84 85 86 87 87 86 88 85 84 84 83 84 84 83 81 81
86 80 68 66 67 66 81 77 80 91 94 96 96 97 101 100 99 97 95 95 92 92 92 90 84 81 83 84 83 82 83 82 82 84 85 85 87 87 85 85 84 84 83 84 83 83 82 82 81
81 80 69 57 62 68 79 72 79 94 99 101 101 100 102 102 99 97 96 94 92 92 90 89 84 82 83 83 83 82 82 86 85 84 88 88 89 89 86 85 85 85 84 84 84 84 83 82 81
80 74 85 75 78 71 76 80 89 94 95 98 100 101 101 102 101 99 99 97 94 92 90 88 85 83 83 83 83 83 82 83 85 83 84 88 86 91 89 85 85 85 85 84 83 84 82 83 81
85 88 73 76 61 62 73 75 76 84 89 94 97 99 101 103 102 101 100 98 96 95 93 91 88 84 84 85 84 85 84 83 84 85 83 84 86 87 89 85 86 85 84 84 83 83 83 81 82
81 80 79 80 76 67 67 76 93 87 90 93 97 99 101 103 102 103 101 100 97 97 95 93 90 87 85 85 85 84 85 84 84 85 85 85 85 85 87 86 85 84 84 84 83 82 83 82 80
86 81 81 71 67 76 76 78 95 97 97 97 97 100 102 103 103 103 104 101 100 97 97 95 94 92 88 87 85 85 85 85 85 84 86 86 85 85 86 86 85 84 84 84 83 83 84 83 80

GFSSGP_sfc_temp_051.txt.gz
Temp
80 80 80 73 62 61 60 63 75 74 74 81 83 78 73 71 68 57 70 75 78 79 80 82 82 83 83 82 83 83 83 83 83 83 83 83 83 83 83 84 84 84 84 84 84 84 84 83 83
81 82 77 69 59 55 58 70 71 76 80 81 81 77 76 66 71 67 69 78 81 80 79 80 82 83 83 83 83 83 83 83 83 83 83 83 84 84 84 84 84 84 84 84 84 84 84 83 83
84 86 69 64 60 57 59 75 75 80 84 83 80 80 77 67 70 71 78 79 83 81 80 80 82 83 83 83 83 83 83 84 83 83 84 84 84 84 84 84 84 84 84 84 84 84 84 84 83
80 78 71 60 60 68 69 78 82 82 85 85 80 70 74 77 74 78 81 83 83 79 80 82 83 83 83 83 83 83 84 83 83 83 84 84 84 84 84 84 84 84 84 84 84 84 84 84 84
82 72 61 60 63 70 78 81 82 78 81 78 78 67 66 75 82 80 82 85 81 78 80 81 83 83 83 83 83 84 84 84 83 84 84 84 84 84 84 84 84 84 84 84 84 84 84 84 84
68 68 58 57 63 72 77 84 84 82 79 75 71 69 70 79 77 80 84 83 82 79 80 81 83 83 83 84 84 84 84 84 83 84 84 84 84 84 84 85 85 85 85 84 84 84 84 84 83
69 61 56 60 63 71 70 86 81 81 78 75 79 69 71 72 79 81 83 84 83 82 80 79 80 83 84 84 84 84 84 84 84 84 84 84 84 84 84 85 85 85 85 85 84 84 84 83 83
76 69 62 66 69 73 81 85 85 83 78 85 82 68 64 74 81 84 82 82 82 81 80 79 78 78 77 79 84 84 84 84 84 84 84 84 84 85 85 84 84 86 86 85 85 84 84 84 83
86 62 58 67 70 73 82 82 87 90 81 82 80 77 78 81 84 81 81 81 80 80 80 80 79 77 77 78 82 83 84 84 84 83 84 79 75 76 82 82 84 86 86 85 85 84 84 84 83
76 64 66 79 78 75 82 81 82 82 79 74 75 80 82 82 81 80 78 78 76 78 80 81 80 79 79 84 77 77 80 78 78 77 74 72 73 75 80 83 85 86 86 85 85 84 85 84 78
78 70 77 80 84 83 78 78 85 82 72 75 71 76 81 80 81 79 79 78 79 81 82 82 82 81 81 80 77 77 77 77 77 74 72 71 74 74 71 74 76 77 83 79 83 82 78 79 78
75 83 84 82 84 76 75 77 80 82 78 81 79 80 81 80 80 80 80 79 80 82 83 83 82 82 80 80 78 80 79 78 78 74 73 71 73 73 72 73 73 74 77 77 76 75 78 77 80
79 83 89 86 86 78 77 78 80 83 82 82 82 81 79 79 81 83 82 83 82 81 84 84 83 80 80 80 80 79 81 82 82 77 74 74 73 72 73 72 72 73 78 80 76 78 80 78 80
84 86 88 84 84 80 74 80 79 82 83 80 80 78 79 80 81 82 82 82 82 84 86 84 84 81 84 83 78 82 82 81 86 83 80 80 75 74 74 73 74 76 74 79 78 77 78 78 79
86 80 86 83 82 75 78 73 74 74 84 79 79 79 79 80 82 81 82 82 83 85 86 83 83 81 80 80 80 81 80 82 81 82 81 81 80 76 75 75 75 78 78 79 78 78 77 76 78
78 78 72 83 80 84 76 66 71 77 81 79 80 80 80 80 81 83 84 84 85 84 84 84 88 82 79 79 79 79 80 79 80 82 80 82 80 80 75 73 74 74 76 78 79 76 75 75 75
72 66 69 77 87 87 75 69 74 80 77 75 78 81 82 80 82 83 85 86 86 86 83 84 84 82 79 78 78 78 79 79 80 79 79 80 81 81 77 73 76 76 76 79 79 76 74 75 76
63 64 70 72 84 86 77 72 76 77 75 72 73 79 82 81 82 85 86 87 88 85 84 85 82 81 80 78 77 77 77 78 79 79 79 80 80 81 77 76 74 75 77 76 75 76 75 75 75
74 72 71 78 84 84 79 72 73 71 71 69 68 67 80 84 85 86 87 88 88 85 84 83 79 80 80 78 77 74 75 76 77 79 79 80 80 81 77 75 75 76 76 75 77 76 74 74 73
74 71 71 78 85 82 79 73 72 72 72 71 68 66 69 84 85 87 87 89 87 83 84 79 80 79 80 80 80 75 75 76 77 78 79 80 80 80 80 76 75 76 75 76 76 75 72 73 73
72 70 71 72 81 83 78 71 70 75 73 69 69 67 70 78 85 85 87 86 86 83 82 81 80 79 80 80 79 76 76 75 75 76 77 79 80 80 80 78 76 75 75 74 75 75 74 71 72
65 78 78 77 73 65 79 59 65 69 68 68 71 72 75 76 86 86 87 86 85 83 83 83 80 79 80 79 80 79 79 76 74 76 77 78 80 80 80 79 77 77 75 75 76 77 74 73 70
71 80 77 77 71 65 71 67 68 71 66 67 69 75 77 80 86 87 87 87 87 86 83 82 81 80 81 81 81 78 75 73 75 75 76 76 78 79 81 79 78 78 76 76 76 76 74 74 72
82 76 74 74 69 58 67 64 67 68 70 69 74 75 77 80 88 89 89 89 87 86 84 82 80 80 81 80 77 78 75 74 73 73 74 75 77 80 80 81 78 77 77 76 76 76 76 74 74
76 68 56 54 56 55 64 61 64 78 82 76 77 78 80 86 89 88 87 87 86 85 84 82 80 78 79 80 80 75 76 75 75 75 76 74 76 80 79 78 78 79 77 77 77 77 76 74 73
71 69 53 44 49 55 65 60 67 81 86 92 90 89 89 90 90 89 88 87 87 87 84 82 79 79 80 79 79 80 77 80 80 76 76 79 79 81 82 81 79 80 79 77 77 76 76 75 74
69 65 71 55 56 52 59 67 76 84 83 86 91 92 89 90 90 89 89 89 88 87 84 83 79 79 80 80 79 79 80 77 80 80 76 77 78 81 81 82 79 79 79 77 76 76 76 75 75
74 75 61 63 48 48 58 63 65 73 79 80 83 90 91 91 91 91 90 89 88 89 87 85 81 80 80 80 80 80 80 80 78 80 78 78 78 79 79 82 81 80 80 80 76 76 76 75 74
70 67 68 60 57 49 48 60 79 78 80 81 84 85 93 91 91 91 90 91 89 90 88 85 82 80 80 80 80 80 80 80 81 77 79 79 77 79 78 78 80 80 79 78 77 75 76 75 75
77 71 70 61 53 56 55 62 79 78 86 86 86 86 89 93 93 93 92 91 89 88 88 86 84 82 82 82 81 80 81 80 79 80 78 80 81 77 80 79 80 80 80 79 78 77 79 75 74

GFSSGP_sfc_temp_054.txt.gz
Temp
80 80 78 73 62 61 58 63 67 71 70 77 79 76 71 67 65 57 69 73 76 76 79 81 82 83 83 82 82 83 83 83 83 83 83 83 83 83 83 83 83 84 84 84 83 83 83 83 83
79 79 76 68 59 55 59 69 67 74 77 80 80 75 72 64 69 65 67 76 78 78 78 80 82 82 83 83 83 83 83 83 83 83 83 83 83 83 84 83 84 84 84 84 83 83 83 83 83
79 83 68 63 60 53 59 69 71 77 81 79 75 78 73 64 69 69 76 78 78 77 77 80 82 82 83 83 83 83 83 83 83 83 83 84 84 84 84 84 83 84 84 84 84 83 83 83 83
77 74 71 60 59 67 66 72 78 75 81 79 74 67 71 76 71 76 78 80 77 77 80 82 82 83 83 83 83 83 83 83 83 83 83 83 84 84 84 84 84 84 84 84 84 84 84 84 83
77 72 61 58 63 70 74 76 77 75 77 76 75 63 65 74 79 78 78 80 76 76 79 81 83 83 83 83 83 83 83 83 83 83 83 84 84 84 84 84 84 84 84 84 84 84 84 84 84
66 67 56 56 62 70 74 76 81 78 74 71 67 65 66 75 76 78 80 78 78 77 79 81 83 83 83 84 84 83 83 83 83 83 83 84 84 84 84 84 84 84 84 84 84 84 83 83 82
66 61 58 60 64 67 67 70 77 75 75 71 74 65 65 72 77 79 79 78 78 78 78 79 80 83 84 84 84 83 83 83 83 83 83 83 84 84 84 84 85 85 85 84 84 84 83 83 83
69 64 59 61 65 65 71 75 82 78 75 82 78 63 62 73 78 78 78 78 77 77 77 75 76 76 76 78 84 84 83 83 83 83 83 83 84 84 84 83 84 85 85 85 84 84 83 83 83
80 62 58 67 68 71 75 75 82 83 77 80 80 75 75 78 79 76 76 76 75 76 76 76 75 74 75 77 82 83 83 83 83 83 83 78 74 75 79 82 84 85 85 85 84 84 84 83 84
71 58 64 75 76 73 74 77 78 76 75 72 72 76 78 78 76 74 74 72 72 73 75 76 75 74 75 82 76 75 78 77 77 75 74 73 73 75 78 81 84 85 85 85 84 84 85 83 76
72 65 73 77 80 78 78 77 82 74 67 71 67 71 76 76 76 75 76 74 74 75 77 76 76 75 75 77 74 73 74 75 75 73 72 72 73 71 72 74 75 75 81 78 80 81 78 79 78
67 76 78 80 82 78 75 77 75 78 74 78 75 76 76 75 75 76 76 75 75 76 77 77 77 76 75 75 75 75 75 75 74 71 71 72 71 72 71 73 73 74 76 76 76 73 75 75 76
71 75 81 85 85 78 78 78 79 77 78 79 78 77 76 76 77 78 78 78 78 76 78 78 78 77 77 75 75 74 75 76 77 74 74 72 73 71 71 70 71 71 75 76 75 74 76 76 78
78 78 79 85 81 80 78 78 77 75 78 77 77 75 76 77 78 79 78 78 78 79 79 79 79 78 78 77 73 75 76 76 78 76 74 75 73 71 72 72 72 73 73 76 75 74 76 76 76
79 73 79 83 79 76 81 73 70 76 77 75 75 76 77 78 80 79 80 79 80 80 81 80 79 79 79 77 76 78 77 80 82 81 76 77 75 73 73 72 72 74 76 76 75 74 75 74 76
71 69 64 75 78 80 79 67 69 74 75 73 74 76 76 77 79 80 82 81 82 82 81 81 84 80 80 79 76 77 77 76 79 79 78 78 77 75 73 73 73 73 74 76 75 73 72 73 74
62 59 61 69 78 74 72 64 70 75 74 72 73 75 76 76 79 81 83 83 82 83 82 81 83 80 78 76 77 77 77 76 76 77 77 77 78 77 74 73 75 75 74 75 77 72 73 75 74
55 57 61 67 74 71 71 67 71 71 73 72 73 74 74 76 77 81 82 84 84 80 83 82 83 80 78 75 75 75 75 75 75 76 76 77 77 78 75 74 73 73 73 73 73 74 73 74 72
66 64 64 71 79 75 72 68 69 71 73 73 72 73 73 75 80 82 83 84 84 80 80 81 81 79 78 74 73 71 72 73 74 75 78 77 77 78 75 74 73 74 73 73 74 73 72 71 70
67 64 65 73 78 76 71 68 72 71 72 74 71 71 74 76 78 80 81 83 83 80 80 80 80 79 79 80 79 74 72 72 75 75 76 77 78 78 76 74 73 74 74 74 73 72 70 70 70
66 63 66 66 73 75 71 65 67 70 70 73 73 75 77 76 78 79 81 82 83 81 80 79 79 78 79 78 76 71 73 72 73 73 73 77 78 78 77 76 75 74 73 73 73 73 72 69 69
60 73 72 71 66 58 74 52 62 65 67 67 71 73 76 78 76 82 82 82 83 83 82 81 79 78 79 77 77 77 77 74 72 73 73 75 78 77 77 77 75 74 73 74 73 75 72 70 69
67 74 71 71 62 56 66 56 59 65 64 63 68 74 78 80 79 79 83 84 85 85 83 81 78 78 79 77 78 78 77 75 71 72 74 72 75 77 78 77 76 74 73 74 73 74 72 71 69
77 70 68 67 59 51 64 59 56 58 65 66 71 74 79 77 81 80 86 86 85 85 84 82 78 77 78 78 78 77 76 71 71 70 72 71 73 76 76 78 76 75 74 73 74 74 73 72 71
72 58 51 45 49 49 63 57 61 68 70 73 72 74 78 79 80 81 84 84 83 82 82 81 78 76 77 78 77 76 76 74 73 72 72 71 72 72 75 76 76 76 75 75 74 73 73 72 71
64 64 47 40 43 53 57 52 61 75 77 78 78 77 81 78 82 82 85 86 83 82 81 81 78 78 78 78 77 78 74 77 77 75 72 75 74 78 78 78 78 77 76 76 74 73 74 73 72
65 60 63 49 44 47 53 60 69 74 75 80 78 78 78 79 81 83 87 87 85 82 81 80 79 79 79 78 78 76 77 78 77 74 76 75 73 78 78 79 78 78 77 76 75 73 73 74 72
71 68 55 49 45 40 50 54 61 68 71 79 80 77 80 81 82 85 87 87 86 84 83 81 80 79 80 80 80 80 78 76 78 77 72 73 73 76 78 78 78 78 77 77 74 73 74 74 73
60 65 59 59 50 50 44 54 67 69 71 72 78 81 83 83 83 87 88 87 88 86 84 82 80 80 79 80 79 79 78 79 76 76 77 78 74 75 75 77 78 78 77 77 75 73 74 73 73
73 61 64 58 48 48 50 60 74 76 77 80 78 84 86 85 87 89 89 88 87 86 85 82 81 80 80 80 79 78 78 78 77 77 75 77 76 75 78 75 76 77 78 77 77 75 77 74 73

GFSSGP_sfc_temp_057.txt.gz
Temp
79 79 78 71 62 60 59 63 66 68 68 75 77 74 68 66 65 57 69 71 74 75 78 81 82 83 83 82 83 83 83 83 83 83 83 83 83 83 83 83 83 83 83 83 83 83 83 83 83
78 78 74 68 59 55 58 68 64 70 74 77 76 73 69 62 67 65 67 74 76 76 77 79 82 82 83 83 83 83 83 83 83 82 83 83 83 83 83 83 83 83 83 83 83 83 83 83 83
77 80 67 63 58 55 56 67 69 75 78 77 72 73 70 63 68 68 73 76 77 76 77 79 82 82 83 83 83 83 83 83 83 83 83 83 83 83 83 84 83 83 83 83 83 83 83 83 83
74 72 68 60 57 67 66 71 76 75 76 75 73 64 70 74 71 73 76 77 76 76 78 82 83 83 83 83 83 83 83 83 83 82 83 83 83 83 84 83 83 83 83 82 83 83 83 82 83
74 70 60 59 61 69 72 77 75 75 72 72 72 62 63 71 77 76 76 77 75 75 78 80 83 83 83 83 83 83 83 83 83 82 83 84 84 84 84 84 84 83 83 83 83 83 83 83 83
65 65 55 56 62 70 75 76 78 73 69 67 65 65 66 74 74 75 77 75 76 75 77 79 83 83 83 83 83 83 83 83 83 83 83 83 84 84 84 84 84 84 84 84 83 82 83 83 83
65 59 57 61 65 66 68 73 74 73 69 67 72 62 64 70 75 76 76 76 76 77 77 77 78 82 84 83 83 83 83 83 83 83 83 83 83 84 84 84 84 84 84 84 83 82 83 83 83
69 62 59 62 64 63 71 74 73 75 70 77 76 61 61 70 76 76 75 75 74 75 76 74 75 76 76 78 83 83 83 83 83 83 83 83 83 84 84 83 84 85 85 84 84 83 83 83 83
77 59 55 63 65 67 74 73 79 77 72 78 77 72 74 76 76 73 72 73 74 74 73 73 73 74 74 76 80 83 83 83 83 83 83 79 74 76 79 81 84 85 85 84 84 84 83 83 83
65 58 62 74 74 67 72 75 74 72 73 70 71 75 76 75 73 71 70 71 73 73 72 72 72 73 74 80 76 75 78 77 76 75 74 72 73 74 77 80 84 85 85 85 84 84 85 81 75
67 60 68 75 77 73 73 74 79 72 66 69 66 70 73 73 72 71 71 73 72 74 74 72 72 72 73 75 73 73 73 74 74 73 71 72 73 71 72 73 75 75 81 77 78 78 76 79 76
62 72 74 75 79 79 74 76 75 74 73 76 73 74 73 72 72 72 71 71 72 72 74 73 72 72 72 72 72 72 72 73 72 72 71 71 71 71 71 72 72 73 74 74 74 73 74 74 76
67 70 76 79 76 80 80 76 74 76 77 76 76 74 72 73 73 75 74 74 73 72 74 74 74 72 73 71 71 71 72 73 73 72 72 71 70 70 70 69 70 71 73 74 73 72 73 74 75
72 73 74 77 77 78 78 75 74 74 76 73 73 72 73 74 74 75 74 74 74 74 75 75 74 74 73 71 70 71 72 73 74 73 72 73 72 71 71 70 71 72 72 73 74 72 76 74 77
73 68 73 76 76 76 79 73 68 73 73 70 71 72 74 75 76 75 75 75 75 76 76 75 75 75 73 72 72 72 74 76 74 75 74 73 73 72 72 72 72 72 74 75 74 73 72 71 75
65 64 57 68 75 78 78 63 69 73 71 69 71 72 74 74 76 78 77 77 78 77 76 76 80 77 75 74 73 74 75 75 75 76 75 76 75 74 72 72 72 73 73 73 72 71 71 71 72
56 51 58 66 75 74 72 64 69 72 71 69 70 72 73 74 76 78 80 79 78 78 77 76 77 76 75 76 74 74 75 73 74 75 75 75 76 75 72 72 72 73 73 72 74 71 70 70 71
50 52 57 62 70 71 66 65 68 70 71 69 70 71 72 74 75 79 80 81 80 79 78 78 78 76 75 76 73 73 73 73 73 73 74 75 75 76 73 73 73 72 71 71 72 74 72 70 71
60 59 60 66 72 67 66 65 66 69 70 69 69 70 71 74 77 80 80 81 81 80 78 78 77 77 76 72 72 70 71 71 72 73 76 75 75 76 74 73 73 72 72 72 72 71 71 70 69
60 57 58 66 73 69 67 66 68 69 69 70 69 70 72 73 76 78 79 81 80 78 80 77 78 78 77 78 78 72 71 72 73 73 74 75 76 76 75 73 72 73 72 71 72 71 69 68 68
59 58 59 61 68 72 67 62 63 68 71 72 72 72 74 73 74 76 78 79 81 76 78 78 78 78 78 79 73 70 71 71 71 71 72 74 76 76 76 74 73 72 72 71 71 71 70 68 68
53 67 67 66 61 56 68 48 58 64 65 69 72 72 74 75 76 77 78 78 80 79 79 79 79 79 79 77 77 76 77 75 74 71 71 73 75 76 76 75 74 73 72 72 70 73 71 69 68
61 68 66 65 57 55 63 53 55 65 62 66 70 74 74 76 78 77 79 80 82 83 79 79 78 78 79 76 79 76 73 74 68 70 71 71 73 75 77 75 74 74 72 72 72 72 70 70 68
71 64 61 57 53 48 59 60 53 59 64 67 72 74 75 77 79 80 81 82 81 83 80 79 77 77 78 76 77 76 75 69 68 68 70 69 70 74 74 76 74 74 72 72 72 72 72 71 69
67 55 43 41 43 48 57 56 62 66 71 71 72 75 75 78 79 79 79 80 81 81 80 79 76 76 77 76 76 75 75 71 71 70 72 69 68 70 73 74 73 73 73 73 72 72 72 71 70
60 56 43 36 38 45 57 49 58 72 75 76 79 79 79 79 80 79 80 81 81 82 81 79 76 76 77 76 76 76 76 74 75 74 71 71 73 74 74 76 75 74 74 74 72 72 72 71 71
60 56 61 47 41 46 54 54 66 70 72 73 74 78 77 79 80 78 81 83 83 82 81 79 77 77 77 76 77 76 76 76 75 73 74 74 72 75 74 75 76 75 75 74 73 72 72 72 71
66 64 50 47 40 38 46 50 56 64 68 71 72 74 77 79 80 81 81 83 83 83 82 81 79 78 78 77 78 77 76 76 77 74 72 71 72 73 75 73 75 75 75 74 73 72 73 72 71
61 59 55 56 49 48 40 50 61 66 72 70 74 76 78 78 80 80 82 85 84 84 82 81 80 79 79 78 78 77 76 76 77 74 74 74 72 73 74 73 74 75 75 75 73 73 73 73 73
53 60 55 55 46 45 47 56 70 70 71 75 75 78 81 81 82 82 83 85 85 82 81 81 81 80 80 80 79 78 77 76 76 75 75 74 74 72 73 73 73 75 76 75 75 74 76 73 72

GFSSGP_sfc_temp_060.txt.gz
Temp
79 80 77 71 62 60 58 62 63 66 66 72 76 71 69 66 66 57 68 70 74 74 76 81 82 83 82 83 82 82 83 83 83 83 83 83 83 83 83 83 83 83 83 83 83 83 83 83 83
78 78 73 67 59 54 57 65 63 67 72 74 74 72 69 62 67 66 66 72 76 76 75 78 82 82 83 83 83 83 83 83 83 83 83 83 83 83 83 83 83 83 83 83 83 83 83 83 83
77 79 67 63 58 55 56 67 70 73 76 74 69 73 69 64 68 68 72 75 76 75 75 79 82 83 83 83 83 83 83 83 83 83 83 83 83 83 83 84 83 83 83 83 83 83 83 83 83
74 71 69 60 59 64 64 70 75 72 74 74 72 63 68 73 70 71 75 76 75 75 77 81 83 83 83 83 83 83 83 83 83 83 83 83 83 83 84 83 83 83 83 83 83 83 83 83 83
73 69 59 57 61 66 70 74 75 71 69 68 70 61 63 72 75 74 75 76 75 74 77 80 83 83 83 83 83 83 83 83 83 83 83 83 83 83 83 84 83 83 83 83 83 83 83 83 83
66 64 53 55 60 68 71 73 75 72 69 67 66 65 65 72 72 73 75 75 76 75 76 79 82 83 83 83 83 83 83 83 83 83 83 84 83 83 83 84 84 84 84 83 83 83 83 83 83
63 58 56 59 63 65 68 74 74 69 68 67 71 61 64 69 73 74 74 75 75 76 75 76 78 81 83 83 83 83 83 83 83 82 83 83 83 83 83 84 84 84 83 84 83 83 83 83 83
67 61 57 58 63 64 71 73 73 71 67 75 74 60 61 70 74 74 74 73 74 74 74 74 75 76 76 78 83 83 83 83 83 83 83 83 83 84 84 83 84 83 83 84 84 84 83 83 83
75 59 54 60 63 67 73 70 74 76 70 74 74 70 72 74 74 73 73 73 72 73 72 73 73 74 75 76 80 82 83 83 83 82 83 79 76 78 79 82 84 85 85 83 83 84 83 83 83
65 57 60 69 73 66 73 74 70 71 70 69 69 71 73 73 73 72 72 72 72 73 72 72 73 73 74 79 76 76 78 77 77 76 75 74 75 76 79 81 83 85 83 84 84 84 83 80 79
65 59 68 72 77 72 72 73 77 70 65 67 64 67 70 70 72 72 73 74 74 76 74 72 72 73 74 75 74 74 75 75 75 74 73 74 74 74 74 75 75 77 81 79 80 79 79 79 78
60 68 71 73 76 72 71 74 72 73 72 74 71 71 70 70 71 72 72 74 74 75 75 72 72 72 73 73 73 73 74 74 74 74 73 72 73 73 74 74 74 75 76 76 75 74 75 78 78
63 67 74 75 76 75 77 73 73 73 74 74 73 72 70 71 73 74 73 74 74 73 73 72 72 71 72 72 72 72 73 74 74 74 73 73 72 73 72 72 72 72 73 74 74 75 76 77 78
69 69 72 76 73 75 74 74 74 71 73 72 71 69 70 71 72 71 71 71 71 72 72 73 72 72 72 71 71 71 73 74 74 74 73 74 73 73 72 72 73 74 73 75 74 75 76 76 77
68 63 69 72 71 73 77 67 67 71 72 69 69 70 71 72 73 72 72 72 72 73 74 72 73 72 71 71 71 72 73 75 74 75 74 74 74 73 74 72 74 75 76 75 74 74 74 76 78
61 60 58 66 72 76 73 62 67 70 69 67 68 69 70 72 73 74 75 74 74 74 73 73 77 74 71 71 71 72 73 74 74 75 75 75 75 75 74 73 74 75 76 75 74 73 72 75 75
53 49 55 62 72 72 70 62 67 70 68 66 68 69 70 71 73 75 76 76 75 75 74 73 74 73 72 72 72 72 74 73 74 75 75 75 76 76 74 73 73 75 74 76 75 73 74 74 75
48 48 53 59 69 70 65 65 65 68 67 66 67 68 70 71 72 76 76 77 77 76 74 74 74 71 71 72 72 73 73 73 73 74 75 76 76 77 74 75 75 74 74 74 75 74 73 74 74
57 55 57 62 70 66 64 66 63 67 67 66 66 67 69 71 75 77 77 78 77 76 74 73 72 70 72 71 70 70 71 72 73 73 75 75 76 76 74 74 74 74 74 75 76 74 73 73 73
57 53 54 62 70 66 63 64 65 65 66 68 67 67 69 71 74 75 77 77 77 75 75 74 73 71 74 75 73 73 72 72 74 74 74 76 76 76 76 75 74 75 72 74 75 75 72 72 72
53 55 54 57 65 69 63 58 61 65 68 69 70 70 72 71 72 74 76 76 78 75 75 74 74 73 74 74 72 71 72 72 72 73 73 75 76 76 76 76 75 74 75 73 75 75 74 71 72
45 62 63 61 57 56 65 47 55 61 63 66 68 69 71 72 74 75 76 76 77 77 78 76 75 74 75 74 73 72 72 72 71 72 73 74 75 76 77 76 76 75 75 74 74 75 74 72 72
57 64 61 61 55 53 59 52 55 61 58 63 68 70 72 74 75 75 76 77 79 79 78 78 75 74 74 74 75 74 73 72 71 71 73 73 74 76 77 77 76 76 75 74 74 75 74 74 71
66 59 56 52 50 44 56 57 52 54 62 65 69 72 73 74 76 77 78 80 79 81 78 78 74 74 74 74 74 73 73 70 70 70 71 71 73 74 75 77 76 76 76 74 74 75 75 73 73
62 54 40 38 39 45 56 56 59 62 67 70 70 72 74 76 77 77 76 77 78 78 78 77 74 73 74 74 74 74 74 71 71 71 71 70 71 72 74 75 75 76 76 75 75 74 75 74 74
57 51 40 32 34 47 50 47 56 73 71 74 76 76 76 76 77 77 77 78 78 79 78 76 74 74 74 74 73 74 74 74 74 72 72 73 72 73 74 75 76 76 76 76 75 75 76 75 75
54 52 57 43 38 40 53 52 64 68 73 75 73 73 75 76 77 77 80 80 79 79 78 76 75 74 74 75 74 74 74 74 74 72 72 73 72 75 75 75 76 76 76 76 75 75 75 75 74
53 58 48 43 37 34 43 47 58 61 65 69 68 70 75 77 77 79 80 80 81 81 81 79 77 75 75 76 76 76 75 74 75 73 72 72 72 74 74 74 76 76 76 76 75 75 76 75 75
53 53 51 53 48 42 37 47 58 63 70 72 69 72 75 78 78 79 80 81 81 82 82 80 78 76 76 76 76 76 75 75 75 74 73 73 72 72 73 74 75 75 76 76 75 75 76 75 75
48 45 52 50 44 46 44 51 66 67 69 75 77 73 76 78 80 81 81 81 81 81 82 81 79 78 78 77 76 76 76 75 75 74 74 74 73 73 74 74 75 75 76 76 76 75 77 76 76

GFSSGP_sfc_temp_063.txt.gz
Temp
81 83 80 71 63 61 63 65 73 71 71 78 81 76 72 70 70 65 80 82 84 84 85 86 82 83 83 83 83 83 83 83 83 83 83 83 83 83 83 83 83 83 83 83 83 83 83 83 83
80 79 74 68 60 57 64 71 71 74 77 80 78 77 72 67 71 70 74 82 85 86 88 88 82 82 83 82 83 83 83 83 83 83 83 83 83 82 83 83 83 83 83 84 83 83 84 84 83
80 80 67 63 64 59 63 72 74 76 79 78 73 73 71 67 72 74 81 84 86 85 87 86 82 82 83 83 83 83 83 83 83 83 82 83 83 83 83 84 84 83 84 84 84 83 83 83 83
79 75 70 62 64 71 71 74 76 75 78 78 76 68 70 75 74 78 82 85 85 86 88 84 83 83 83 83 83 83 83 83 82 83 83 83 83 83 84 84 84 83 83 84 84 83 83 83 83
82 71 64 63 67 72 77 80 79 76 75 74 75 64 65 75 78 81 82 85 85 86 87 87 83 83 83 83 83 83 83 83 83 83 83 83 83 84 84 84 83 83 83 84 84 84 84 83 83
69 72 64 65 67 73 76 79 81 77 74 72 70 68 67 78 78 81 84 85 87 86 88 88 84 83 83 83 83 83 83 83 83 83 84 84 84 84 84 84 84 84 84 83 83 83 84 84 83
70 68 65 66 67 70 73 79 79 76 73 72 75 66 69 74 81 82 84 86 86 88 86 86 87 85 84 83 83 83 83 83 83 83 83 84 84 83 84 84 83 84 84 84 84 84 83 83 84
75 72 65 69 70 68 75 75 79 77 70 79 79 67 64 73 81 83 83 84 85 86 86 84 85 87 86 85 83 83 83 83 83 83 83 83 83 84 84 83 83 84 84 84 84 84 84 83 84
77 66 65 69 71 73 77 73 77 77 74 77 78 77 79 79 81 80 79 80 81 83 85 87 86 85 85 85 86 84 83 83 83 84 82 83 87 87 87 83 84 83 84 84 84 84 84 84 84
72 65 69 76 79 77 76 78 76 74 73 73 74 79 78 79 79 77 76 75 80 80 83 86 86 86 85 87 86 86 87 88 86 86 84 86 85 86 88 86 83 84 84 84 84 84 84 86 92
74 67 73 78 80 80 78 78 80 76 72 75 72 73 75 77 77 76 77 78 80 81 83 85 84 84 85 85 86 86 86 86 86 83 83 83 85 86 88 89 84 86 84 90 89 88 92 88 91
68 74 76 77 80 80 77 81 77 79 80 83 79 77 77 75 76 76 79 79 80 80 82 83 83 82 83 85 86 86 86 86 86 86 82 83 86 84 85 88 87 83 84 85 86 88 87 88 88
70 72 77 79 81 82 82 78 79 78 81 82 79 77 77 75 78 80 82 82 81 80 81 82 82 81 82 82 84 85 85 86 87 86 84 85 86 84 86 84 86 85 87 88 86 88 88 88 88
76 76 77 79 81 82 79 80 80 78 80 77 76 76 78 76 79 79 80 80 80 81 82 83 82 82 82 82 81 82 84 85 86 86 85 83 86 84 86 83 85 86 87 88 87 86 79 88 88
77 70 74 78 81 79 82 75 75 77 78 75 75 76 77 78 80 79 81 80 81 81 82 82 82 83 81 81 82 83 85 86 86 87 84 83 84 84 83 85 86 87 83 85 86 85 80 83 89
71 72 67 77 79 81 81 72 76 77 76 74 74 75 76 77 79 81 81 81 82 82 81 82 85 83 82 81 82 84 85 86 86 87 87 84 83 83 84 86 86 85 84 84 87 83 87 88 89
67 65 67 72 80 81 79 73 76 77 77 74 73 74 75 77 79 81 82 82 82 82 81 81 82 83 82 81 82 83 83 84 86 87 87 86 84 84 85 86 86 84 84 84 85 87 87 86 85
63 65 66 69 77 78 76 76 73 75 75 73 74 74 75 76 78 81 82 83 84 83 82 81 82 82 81 82 81 83 84 85 86 86 87 85 86 85 84 86 84 85 82 83 85 83 81 82 86
68 66 67 72 79 77 76 77 75 74 75 74 74 74 75 77 81 82 83 83 83 83 81 80 79 80 81 80 81 82 82 84 84 85 84 85 85 85 84 86 84 84 84 83 83 84 81 85 84
67 64 66 73 77 72 76 75 78 74 73 75 74 74 74 77 79 80 81 82 83 82 81 80 79 79 80 82 82 84 84 85 86 86 84 85 86 85 85 84 84 84 82 82 82 83 85 85 84
65 64 65 68 72 73 74 71 72 74 76 76 76 77 74 77 78 79 80 81 83 81 81 80 79 80 80 82 82 81 82 83 84 84 85 86 86 86 85 84 85 83 81 81 82 84 83 84 84
60 69 68 67 65 61 74 63 70 74 71 73 76 76 77 78 80 82 82 82 83 82 83 82 81 80 81 81 81 80 83 82 85 85 86 86 86 86 86 85 84 83 86 82 81 85 85 84 84
64 71 67 67 64 64 67 64 73 74 70 72 76 78 79 81 81 82 82 83 84 85 84 83 81 80 81 80 81 82 82 85 85 85 83 83 84 85 86 86 85 84 86 83 83 82 82 85 86
72 68 68 67 65 54 63 65 68 71 73 75 78 79 80 82 82 83 85 85 84 86 84 84 80 79 80 80 81 80 81 81 82 83 84 86 86 86 84 86 85 85 85 83 84 83 83 83 84
68 64 54 51 51 52 69 62 66 78 79 82 80 80 81 82 82 82 82 83 83 84 84 84 81 78 80 80 81 81 81 81 80 81 84 85 86 86 84 84 84 86 84 85 84 83 82 83 83
64 64 56 46 50 57 67 58 67 80 84 83 86 85 84 82 83 82 83 83 83 84 83 82 80 79 80 80 80 81 81 84 84 83 86 86 87 87 86 85 86 85 86 85 84 86 86 85 84
64 59 70 61 59 57 64 67 75 79 82 85 83 83 83 83 83 83 84 84 84 84 83 82 81 79 80 81 80 80 81 81 83 83 82 86 84 87 85 86 85 85 85 85 84 86 84 84 84
63 72 58 60 48 48 59 61 64 72 76 81 84 85 85 85 85 86 86 85 86 86 85 84 82 80 81 82 82 82 81 81 82 82 81 83 84 83 85 84 85 85 85 85 83 85 85 83 86
58 59 63 65 61 54 53 60 76 76 79 81 84 86 86 87 86 87 87 87 86 87 87 85 83 82 82 82 81 81 82 82 82 82 82 83 83 82 83 83 84 84 84 84 83 83 84 83 83
57 54 61 55 54 60 60 62 80 81 84 85 87 88 88 88 89 88 89 87 86 86 87 86 86 84 84 83 82 82 82 82 82 82 83 83 82 82 83 83 83 84 85 84 83 83 86 84 83

GFSSGP_sfc_temp_069.txt.gz
Temp
85 90 88 82 63 70 64 73 83 82 83 89 92 85 82 79 74 67 92 92 91 90 89 88 83 83 83 83 83 83 83 83 83 83 83 83 84 83 83 83 83 83 84 84 84 84 84 84 84
92 89 88 72 64 59 64 78 76 84 89 94 92 89 86 79 88 85 86 92 92 93 95 92 82 83 83 83 83 84 84 84 84 84 83 83 83 84 84 83 84 84 84 84 84 84 84 84 83
93 91 71 70 75 58 63 78 85 88 88 90 83 87 84 81 86 87 94 92 96 97 96 87 83 83 84 83 84 84 83 83 83 83 84 83 83 84 84 84 83 84 84 84 84 84 84 84 84
87 82 81 69 68 72 78 82 90 87 90 89 83 78 85 92 87 90 97 94 98 99 96 85 83 84 84 84 84 84 84 84 83 83 84 84 84 84 84 84 84 85 84 84 84 84 84 84 84
88 78 69 73 67 83 85 88 92 85 89 87 86 75 76 89 96 95 97 100 100 99 94 90 83 83 83 83 84 84 83 83 83 84 84 84 84 84 84 84 84 84 85 84 84 84 84 84 84
73 85 71 69 67 81 87 90 88 85 89 88 86 79 78 89 93 97 100 101 102 98 97 91 84 83 84 84 84 83 84 83 83 83 84 84 84 84 84 84 84 84 85 84 84 84 84 84 84
79 72 75 77 77 78 82 93 86 85 86 87 91 81 83 87 95 99 100 102 102 100 96 92 91 86 84 84 83 84 84 84 84 84 84 84 84 84 85 84 85 85 85 85 84 84 84 84 84
90 83 75 81 75 75 91 88 89 90 86 94 92 76 79 90 97 98 99 101 101 100 96 93 91 91 90 89 83 84 84 83 84 84 85 84 85 85 85 84 85 85 85 85 85 84 84 85 84
92 75 76 70 78 73 93 88 92 89 86 88 88 90 92 95 97 93 96 97 97 97 97 98 96 93 92 91 87 84 84 84 84 84 85 85 92 91 89 85 85 85 85 85 85 85 85 84 84
87 79 70 80 89 82 90 87 91 88 87 83 88 94 93 94 92 88 93 93 94 94 97 98 97 93 95 97 89 91 91 93 92 92 90 82 89 87 93 88 85 85 85 85 85 85 85 84 90
89 77 88 85 92 93 91 89 93 88 85 88 87 88 88 87 88 91 94 94 93 94 98 99 96 94 96 92 95 95 92 96 94 91 89 92 93 93 87 91 92 91 86 92 90 86 86 74 86
84 92 93 83 92 90 89 91 91 89 70 96 93 90 86 85 88 93 94 95 93 93 96 97 95 93 95 95 97 97 97 96 95 94 92 91 90 88 82 88 89 81 92 82 78 92 90 92 87
86 90 92 94 92 92 93 90 88 92 97 97 94 90 85 88 90 94 96 97 94 92 95 95 93 91 92 91 96 96 97 97 91 94 94 94 87 88 84 86 91 82 85 93 89 89 79 84 94
92 91 92 94 93 88 89 91 93 92 97 93 91 89 89 90 92 94 95 94 93 93 94 95 93 91 92 91 92 94 97 85 93 87 93 93 83 88 90 90 88 84 73 80 87 89 84 82 88
92 84 89 91 93 90 94 83 88 92 94 91 90 90 91 92 94 93 95 94 94 94 94 93 93 92 90 91 91 94 96 96 87 88 91 93 91 92 89 86 90 85 91 91 92 91 84 92 75
85 86 80 91 92 93 92 78 91 94 92 89 89 90 90 92 93 95 96 95 95 95 92 93 96 93 91 91 91 94 97 97 86 91 94 92 91 91 88 90 93 94 87 77 90 90 76 85 76
83 77 79 85 94 92 90 78 69 93 93 89 89 90 90 91 91 94 96 96 95 94 92 92 93 93 91 90 91 93 93 95 89 87 85 92 92 91 87 80 92 90 89 84 89 82 80 85 88
77 78 84 82 91 91 88 81 66 87 93 89 90 89 89 90 92 93 95 96 96 95 92 91 92 91 89 90 90 93 93 95 95 89 85 92 90 92 91 86 90 92 94 84 76 85 88 83 82
86 84 82 89 94 88 86 86 74 91 93 90 90 89 90 91 94 95 95 96 96 94 91 90 89 89 89 89 88 90 91 93 92 97 95 92 94 93 91 78 90 88 89 87 91 90 88 87 94
82 80 82 88 93 90 87 83 83 91 91 92 90 89 90 92 92 92 93 94 94 92 90 89 88 88 88 90 90 92 92 94 96 96 93 94 93 93 93 80 87 90 88 88 89 86 76 84 88
80 79 80 81 88 89 87 82 86 85 92 94 93 92 93 92 92 91 91 92 93 91 90 88 88 87 87 89 91 91 93 92 93 88 93 93 94 93 93 91 85 89 89 89 88 89 88 87 92
74 83 82 81 80 75 87 71 82 80 86 90 92 93 94 93 94 94 93 92 93 92 92 90 88 87 87 88 88 86 89 89 94 94 95 94 94 94 93 92 90 88 92 90 90 92 89 88 89
76 85 81 81 79 79 79 75 83 86 79 87 92 93 95 96 95 95 94 93 94 94 93 92 88 87 87 86 88 89 87 92 94 96 91 92 91 93 95 92 90 89 91 89 90 89 87 93 90
83 80 80 81 78 67 75 77 78 81 85 87 94 96 95 97 96 97 97 96 95 96 94 92 88 85 86 86 86 87 86 89 92 92 92 92 94 93 92 93 92 89 91 89 90 89 88 87 91
79 75 64 62 64 63 79 75 79 90 94 94 95 95 97 98 97 96 95 95 93 93 94 93 88 84 85 87 86 87 88 87 89 90 92 91 94 96 91 91 90 91 90 91 90 88 88 88 89
76 76 66 55 61 67 78 71 78 92 98 99 101 99 99 98 98 96 96 95 94 94 94 93 88 85 86 87 86 85 87 91 91 91 94 95 97 97 93 91 92 91 92 91 89 90 90 90 89
75 70 81 72 78 71 77 79 88 93 93 95 97 99 95 99 99 97 98 98 96 94 93 92 90 86 86 87 86 86 86 87 90 90 90 94 94 98 96 94 91 91 91 91 90 91 88 87 88
76 83 69 71 58 59 72 75 76 83 87 92 94 96 97 100 100 100 99 98 97 97 96 94 92 88 87 88 88 88 87 87 89 90 89 90 93 93 95 92 92 90 91 91 89 91 91 88 89
71 70 71 76 72 63 64 74 90 87 88 90 94 96 98 101 101 101 101 100 99 99 97 95 93 91 88 89 88 87 88 89 88 91 90 90 91 92 91 91 90 90 90 90 89 89 92 88 88
76 73 74 65 63 71 71 74 94 94 94 94 94 97 100 101 103 103 103 101 99 97 98 97 95 93 92 90 89 88 88 89 89 88 91 91 89 90 91 90 90 90 90 90 89 88 91 89 89

GFSSGP_sfc_temp_072.txt.gz
Temp
83 87 86 74 63 65 58 66 82 80 81 90 90 83 78 80 76 65 86 90 89 87 85 85 82 83 83 83 83 83 82 83 83 83 83 83 83 83 83 83 83 84 84 84 84 84 84 84 84
91 87 79 73 61 53 59 72 76 78 87 88 90 84 83 77 84 82 84 90 90 89 88 86 82 83 83 83 83 83 84 83 83 83 84 83 83 84 83 84 84 84 84 84 84 84 84 83 83
87 88 72 68 66 58 60 78 84 88 92 88 84 85 82 77 83 84 91 91 92 90 89 83 83 83 83 83 83 83 84 83 83 83 83 83 84 83 84 84 84 84 84 83 84 84 84 83 83
83 77 76 66 63 62 67 76 87 87 87 90 85 78 84 88 86 88 93 94 94 90 88 83 83 84 83 84 83 83 83 83 83 83 84 83 84 84 84 84 84 84 84 84 84 84 84 84 83
84 74 67 67 60 65 76 87 88 85 85 85 85 76 77 86 90 92 94 97 94 91 87 85 83 83 83 83 83 84 84 83 83 84 84 84 84 84 84 84 85 85 84 84 84 84 84 84 83
71 78 67 59 62 70 86 88 90 85 85 81 80 78 78 89 88 93 96 96 95 91 90 86 83 83 83 84 84 83 83 83 84 84 84 84 84 84 84 84 84 85 85 85 84 84 84 84 83
77 72 69 63 64 70 84 92 85 83 85 83 86 76 81 84 92 94 97 97 96 94 89 86 85 85 84 84 84 84 83 83 83 84 84 84 84 84 84 84 85 85 85 84 84 84 84 84 84
86 83 75 70 69 65 72 89 86 86 85 94 91 73 75 83 93 97 98 98 96 92 89 86 85 86 85 84 84 84 84 84 84 84 84 84 84 85 85 84 85 85 85 85 85 84 84 84 84
94 78 71 70 68 64 77 84 91 93 90 90 91 86 88 91 96 94 94 95 91 93 91 91 89 87 86 85 85 84 84 84 84 85 84 83 85 85 86 85 85 85 85 85 85 85 84 84 84
86 76 69 79 77 69 76 72 76 88 87 84 88 90 92 93 93 90 92 91 90 90 92 93 92 88 88 91 83 84 86 86 85 86 81 81 79 86 88 86 85 85 85 85 85 84 82 80 74
87 78 80 81 86 76 70 72 75 87 82 85 83 86 90 90 91 91 92 92 90 91 94 95 88 88 91 85 86 88 87 83 83 84 75 82 86 80 84 84 85 81 85 85 85 81 77 75 74
83 90 89 91 88 90 84 88 74 80 73 80 91 91 90 87 89 91 92 92 91 92 91 88 85 88 85 88 90 89 83 88 89 88 86 86 82 77 75 78 81 77 80 75 72 74 78 77 77
87 89 92 94 90 93 93 77 70 75 76 84 92 91 89 88 89 92 93 94 92 91 92 88 89 85 86 88 84 87 89 90 89 88 89 76 81 76 76 80 75 73 77 75 75 78 76 78 81
91 91 92 95 94 93 90 85 84 78 84 86 88 87 89 89 90 92 91 91 90 92 92 91 90 89 89 88 88 85 86 84 83 88 89 81 82 83 81 81 74 74 76 75 79 80 78 79 82
92 85 89 91 92 90 92 84 83 83 90 88 87 85 86 88 91 92 92 91 91 92 92 89 89 90 87 88 90 88 83 76 85 84 89 78 81 85 83 81 74 74 75 77 82 83 80 77 79
85 85 77 89 91 93 90 77 79 81 70 86 87 86 86 87 91 93 94 93 92 92 89 89 93 90 87 87 88 89 91 87 85 86 88 89 88 85 79 85 85 84 81 81 76 76 81 77 78
82 73 77 82 94 91 89 78 78 73 73 85 87 87 88 86 90 92 96 93 92 91 88 88 90 88 87 85 87 88 91 84 85 83 88 89 88 82 77 80 85 86 82 82 78 75 78 81 82
73 76 79 80 89 90 86 80 72 72 70 68 87 88 88 88 88 93 95 95 93 92 89 88 89 85 86 86 85 87 88 88 80 83 84 86 87 86 79 82 86 85 80 81 79 78 80 81 78
82 81 80 85 92 89 86 80 74 72 73 71 86 87 88 89 91 94 95 96 93 91 87 87 85 83 84 85 84 84 84 85 86 81 86 87 84 87 82 83 85 84 82 81 82 84 82 81 80
80 78 79 87 92 90 87 83 71 72 69 73 76 88 89 90 90 91 92 94 92 89 86 85 84 82 83 85 84 85 86 87 84 85 86 88 90 87 83 82 84 87 82 84 81 75 75 81 79
79 76 78 80 88 91 88 81 67 70 72 73 72 91 91 91 90 90 90 92 92 88 85 84 84 83 83 84 84 85 86 85 86 87 86 88 89 89 81 83 84 86 83 80 82 79 79 77 78
73 84 82 81 79 73 87 69 77 73 75 69 81 90 91 92 92 92 91 91 91 89 88 84 84 83 83 84 83 83 83 82 85 83 85 87 89 88 88 86 85 86 82 79 82 85 81 80 80
76 85 82 81 77 77 78 74 79 83 78 69 68 85 93 93 93 93 92 91 93 92 89 87 84 83 83 82 83 83 82 86 84 87 85 84 86 89 86 87 85 85 84 84 84 84 84 82 81
85 81 80 80 76 65 74 75 76 80 76 74 69 71 94 95 95 95 94 93 93 94 90 88 83 81 82 81 82 82 81 84 85 85 84 86 86 87 88 87 85 85 83 83 84 86 85 83 81
81 74 61 60 62 61 77 73 76 88 86 79 78 82 93 96 95 95 92 92 90 90 90 88 82 80 81 81 81 83 82 82 83 84 86 85 86 86 85 86 83 84 83 84 84 84 84 84 82
76 74 63 52 58 64 76 69 76 90 95 92 85 86 90 89 95 94 93 92 90 91 89 87 82 80 81 82 80 81 83 85 85 86 87 88 88 88 85 85 86 86 85 85 84 84 84 84 83
73 69 79 68 72 66 72 77 85 91 92 95 89 82 78 83 96 95 96 95 92 91 89 87 83 81 81 83 81 80 82 83 84 85 86 87 87 91 85 86 86 85 85 84 83 82 82 83 83
76 80 67 70 55 55 67 71 74 81 86 92 94 92 81 76 86 97 97 96 94 93 92 90 87 82 83 83 83 83 82 83 84 83 85 85 87 87 85 85 85 85 86 86 82 83 83 82 82
71 69 72 72 69 59 58 68 88 85 88 90 94 96 83 83 85 97 97 97 96 95 94 92 90 85 83 84 83 83 83 83 83 85 84 85 85 87 87 87 86 85 85 85 84 83 83 81 81
76 71 72 63 60 65 68 70 91 90 94 94 94 97 99 79 87 79 84 97 97 95 94 93 92 90 87 85 83 83 84 83 83 83 85 86 85 85 87 86 86 85 85 84 83 83 85 83 82

GFSSGP_sfc_temp_075.txt.gz
Temp
80 81 80 73 62 61 56 59 69 75 76 83 85 80 75 75 72 60 77 81 81 79 80 82 82 83 83 83 83 83 83 83 83 83 83 83 83 83 83 83 84 83 84 84 83 84 84 84 84
81 82 76 68 59 53 54 66 69 77 82 83 84 81 74 69 77 74 76 82 83 80 80 80 82 82 83 83 83 83 83 83 83 83 83 83 83 83 84 84 83 84 84 84 84 84 83 84 83
84 85 67 62 60 55 57 66 71 83 84 81 79 81 77 71 78 78 83 84 82 81 81 80 82 83 83 83 83 83 83 83 83 83 83 83 83 84 84 84 84 84 83 84 84 84 83 83 83
78 72 69 60 56 65 66 70 79 81 83 82 78 71 79 84 81 83 86 85 83 80 80 82 83 83 83 83 83 83 83 83 83 83 83 84 84 84 84 84 84 84 84 84 84 84 84 83 83
80 70 61 56 59 65 71 73 82 79 79 78 78 71 73 81 86 86 86 85 80 79 80 81 83 83 83 83 83 83 83 83 83 83 84 84 84 84 84 84 84 84 84 84 84 84 83 83 83
68 71 60 55 59 68 73 74 81 78 80 78 75 72 73 86 84 86 88 84 82 80 80 81 83 83 83 84 83 83 83 83 83 83 83 84 84 84 84 84 84 85 84 84 84 84 83 83 83
68 64 62 61 61 65 70 78 79 76 78 76 80 69 74 81 85 88 87 84 83 82 80 79 80 82 84 83 83 83 83 83 84 83 84 84 84 84 84 84 84 85 84 84 84 84 83 83 83
77 70 67 67 65 63 67 70 77 82 78 86 84 69 69 81 87 90 88 85 83 81 80 78 78 77 77 79 84 83 83 83 84 84 84 83 83 84 84 83 84 85 85 85 84 84 84 83 83
85 69 64 65 68 64 69 66 77 85 77 82 82 80 82 86 89 88 85 81 80 81 80 80 79 77 77 78 82 83 84 84 84 83 84 82 77 80 82 83 84 85 85 85 84 84 84 83 80
76 69 70 73 73 67 74 67 66 74 81 77 79 84 86 86 86 84 80 78 78 78 80 81 80 78 79 85 77 77 80 78 76 76 77 77 75 76 81 83 85 85 85 84 84 82 82 80 73
77 70 79 79 77 77 71 66 69 70 77 78 75 80 83 84 85 85 81 82 80 81 83 82 82 81 80 79 77 77 77 76 77 77 76 76 77 75 77 75 76 78 81 77 75 76 74 75 71
73 82 84 87 86 75 70 73 68 68 70 83 83 84 84 84 84 84 82 83 82 83 84 84 82 82 80 79 79 80 79 77 77 75 76 74 71 73 72 73 73 73 72 73 72 73 73 73 75
78 82 87 90 85 77 79 72 70 68 75 81 85 85 84 84 84 86 86 85 84 82 83 82 81 80 80 78 78 79 77 78 78 79 75 74 73 73 73 73 72 72 71 71 70 70 73 73 75
83 84 85 87 88 86 77 73 71 76 81 82 84 83 86 86 85 87 85 84 81 84 84 80 80 80 80 80 80 81 77 77 82 78 75 75 75 77 72 71 72 72 71 72 72 72 72 70 75
84 76 81 83 82 86 85 69 73 73 78 81 82 84 85 86 86 85 85 84 83 84 83 81 80 81 79 80 80 81 78 76 79 81 77 76 75 76 76 73 72 73 70 72 72 74 74 74 75
73 72 64 78 82 86 84 61 68 72 76 77 78 84 84 84 85 88 87 86 84 84 82 83 87 80 79 80 79 79 76 76 79 81 78 80 77 76 74 74 73 73 72 73 72 73 76 74 74
66 57 64 72 84 83 80 60 65 69 73 69 75 78 81 84 86 87 88 87 85 82 82 82 82 79 79 78 79 79 79 80 81 80 80 81 78 77 75 74 74 75 75 72 74 74 73 74 75
58 60 64 67 78 81 77 67 67 70 71 65 69 72 79 81 83 86 87 88 87 83 82 80 82 79 78 78 77 78 81 81 78 79 80 81 77 79 76 75 75 76 75 74 74 74 75 77 77
70 68 67 73 81 77 77 66 68 70 68 66 66 70 77 81 85 88 89 87 86 83 82 80 79 78 79 75 74 75 75 77 78 79 81 81 79 78 76 74 77 75 77 78 75 75 74 74 77
70 67 67 74 82 75 74 66 70 69 68 70 71 72 76 82 84 86 88 87 84 82 80 79 79 77 79 77 76 76 77 79 78 80 79 80 81 79 78 77 76 76 74 76 78 74 72 74 73
69 64 67 68 77 78 73 62 65 69 72 71 73 77 74 82 82 85 85 86 84 81 80 78 78 77 77 80 76 76 77 76 77 76 80 79 81 80 78 77 77 77 76 73 75 74 73 71 73
59 75 76 74 68 56 70 52 59 66 66 71 72 67 70 68 85 86 85 84 83 81 82 79 78 78 77 78 77 74 74 73 77 80 77 79 81 80 79 79 78 78 78 75 75 78 75 73 71
68 76 72 72 65 57 67 55 60 67 62 66 71 69 70 69 81 85 86 86 85 83 82 80 78 79 80 77 78 75 74 76 77 78 78 78 78 80 81 79 79 78 77 75 76 77 76 75 73
79 71 69 65 58 49 60 55 62 61 68 66 67 66 68 68 78 87 88 88 85 84 83 81 78 78 78 77 75 75 75 75 77 79 78 78 77 79 80 80 78 77 77 77 77 77 77 76 75
70 56 45 45 47 49 59 57 63 70 76 69 65 65 70 77 76 85 85 86 85 83 82 81 79 76 78 77 76 74 76 75 75 76 81 80 76 76 77 78 77 77 77 77 77 77 76 76 75
62 58 48 40 42 51 61 53 63 78 82 77 72 73 77 80 79 87 86 86 86 84 82 80 79 78 78 78 78 75 75 78 76 76 77 80 82 81 79 79 78 78 78 78 77 76 76 76 76
62 56 63 52 55 51 56 63 75 78 77 78 76 77 76 80 84 86 88 87 87 85 83 81 79 79 78 78 78 77 75 79 75 77 78 79 79 81 79 79 80 79 78 78 77 75 76 76 75
65 66 51 51 41 43 51 57 57 67 73 77 77 78 80 77 73 76 72 88 87 88 86 84 80 78 79 79 79 78 77 79 77 78 77 78 79 80 81 81 80 78 78 78 76 75 76 76 76
60 55 54 54 51 48 45 53 69 70 72 77 79 81 83 77 75 73 73 72 87 89 87 84 80 79 79 80 79 79 78 77 74 77 77 77 78 78 80 80 78 78 78 78 76 75 76 75 75
64 59 58 48 46 50 48 52 78 77 73 76 82 84 82 79 78 72 73 72 71 87 88 86 82 80 80 80 80 79 80 78 78 75 76 77 77 77 78 81 81 79 78 78 77 76 79 76 75

GFSSGP_sfc_temp_078.txt.gz
Temp
80 80 77 73 61 61 56 59 65 69 73 80 81 77 72 71 69 59 73 77 77 77 79 81 82 83 83 83 83 83 83 83 83 83 82 83 83 83 83 83 83 83 83 83 84 84 83 84 84
79 79 74 67 58 54 56 64 63 70 80 81 81 78 74 67 74 70 71 78 79 78 78 80 82 82 83 83 83 83 83 83 83 83 82 83 83 83 83 84 84 83 84 83 84 83 84 83 83
79 82 67 62 57 54 57 64 70 78 82 80 72 78 74 68 73 73 78 79 79 78 78 79 82 82 83 83 83 83 83 83 83 83 83 83 83 84 83 83 83 83 83 83 84 83 83 83 83
78 73 68 58 57 63 62 68 73 77 76 78 74 67 76 79 76 78 80 80 78 78 79 82 83 83 83 83 83 83 83 83 83 83 83 83 84 84 84 84 84 84 84 84 84 83 83 83 83
77 69 59 56 59 66 65 69 72 71 76 75 75 69 70 77 82 80 79 81 76 76 79 81 83 83 83 83 83 83 83 83 83 83 83 84 84 83 84 84 84 84 84 84 84 83 83 82 83
65 67 57 56 59 65 69 68 72 76 76 74 72 70 70 80 79 80 81 78 79 77 78 80 83 83 83 83 83 83 83 83 83 83 84 84 83 84 84 84 84 84 84 84 84 83 82 82 83
66 62 62 60 60 63 64 69 69 75 74 73 78 67 71 76 81 81 79 78 78 78 78 78 79 82 84 83 83 83 83 83 83 83 83 83 83 83 84 84 84 84 84 84 84 83 83 83 83
71 67 64 67 62 63 67 70 70 75 74 82 81 66 66 76 82 80 79 78 76 77 77 76 76 76 76 79 84 84 83 83 83 83 83 83 83 84 84 83 84 84 84 84 84 83 83 83 82
81 64 57 66 63 66 71 68 71 72 76 80 81 77 79 82 81 78 76 75 75 76 75 75 75 74 75 77 81 83 83 83 83 82 83 81 76 78 80 82 84 85 84 84 84 83 83 81 82
72 60 64 75 71 67 72 70 67 68 74 76 76 81 83 83 79 75 73 72 73 73 75 75 75 74 75 82 76 76 79 77 76 75 76 75 75 75 80 82 85 85 84 84 83 82 80 76 73
71 65 75 76 76 75 71 67 71 67 66 74 72 77 80 81 79 75 75 74 74 75 77 76 76 76 76 77 74 74 75 75 75 75 75 75 74 75 74 74 75 76 79 76 75 74 73 73 72
65 76 79 82 79 74 69 73 70 70 71 78 81 82 81 80 78 77 75 76 75 76 77 77 77 77 74 76 75 75 75 74 74 74 75 73 70 71 72 73 72 71 71 72 71 71 72 73 75
70 75 81 85 83 76 74 70 72 71 76 81 82 83 80 80 79 79 79 79 77 76 78 78 78 76 75 75 75 74 74 74 75 75 74 73 71 71 71 72 72 70 70 70 69 69 71 72 73
77 78 80 84 78 76 72 69 68 74 76 76 80 80 81 80 79 80 80 78 78 79 79 79 79 75 76 75 75 75 75 75 77 75 73 74 73 72 71 71 71 71 70 69 71 70 70 70 74
78 71 75 76 78 73 74 64 63 74 77 76 76 80 82 82 82 80 81 79 81 81 80 79 79 79 78 77 75 77 76 75 77 76 75 75 74 73 72 71 71 71 70 71 71 71 70 70 72
67 65 59 72 75 73 74 60 70 74 73 74 77 81 83 83 82 84 83 80 81 81 79 80 84 80 77 76 78 77 75 76 76 76 74 76 76 75 73 71 71 71 70 71 70 70 70 70 72
59 52 58 67 77 76 76 61 68 69 75 73 75 79 82 82 83 85 85 82 81 80 79 79 78 77 77 76 76 77 75 75 76 76 75 76 76 75 74 72 71 71 71 71 71 69 71 71 73
52 53 56 61 73 73 67 65 65 69 71 72 74 73 77 81 83 84 86 83 82 81 80 79 78 76 76 75 75 75 75 75 76 76 77 77 75 76 73 73 74 73 72 71 71 71 73 73 72
63 59 60 68 75 70 66 64 64 68 69 68 70 72 72 78 85 85 87 83 82 81 79 78 75 74 74 72 72 72 73 74 74 76 78 76 75 77 73 73 74 73 74 72 72 74 74 73 72
64 60 60 67 73 69 63 61 66 66 67 71 70 74 74 77 80 81 84 83 80 79 78 77 77 75 75 74 73 74 73 74 76 77 78 78 76 77 76 74 74 73 72 73 73 72 71 71 71
61 56 60 62 71 68 64 60 61 66 68 70 71 75 74 77 79 79 82 82 80 80 76 77 76 76 76 75 73 73 74 74 73 74 75 76 78 78 76 76 75 74 73 71 73 72 72 70 71
52 68 69 68 60 53 63 46 58 64 61 66 68 72 73 77 81 82 82 82 81 80 79 78 77 76 77 75 73 72 71 71 73 74 77 76 78 77 78 77 76 75 74 72 73 75 73 71 70
63 72 67 65 56 54 57 52 50 63 60 64 67 70 71 76 81 82 82 83 82 82 80 78 78 76 78 78 75 74 71 73 74 75 75 75 75 77 78 77 76 75 74 73 74 74 73 72 71
74 66 61 56 53 45 50 53 49 57 63 66 69 71 73 74 75 76 84 84 82 83 81 79 77 77 76 77 73 73 72 72 72 74 75 74 74 75 76 78 76 76 74 75 75 74 75 73 73
64 53 43 42 43 42 47 52 55 64 71 70 70 73 76 80 78 78 78 82 80 80 80 78 77 75 77 75 75 75 74 73 73 74 78 75 73 73 75 76 74 74 75 75 75 74 75 74 73
55 52 44 37 38 43 53 48 58 69 74 77 75 76 77 78 78 79 81 83 81 80 80 78 76 76 77 76 75 75 75 74 75 74 79 79 79 78 76 77 76 75 75 76 75 74 74 74 74
58 50 56 47 42 43 49 58 67 72 70 74 73 73 76 76 72 77 82 85 82 80 80 79 77 77 77 77 77 73 75 73 76 74 75 78 81 80 76 78 76 76 75 75 74 73 74 74 73
55 59 49 45 37 35 45 49 53 61 63 69 67 69 73 74 75 77 82 83 82 82 81 80 79 78 77 78 78 78 75 73 73 74 74 75 78 77 76 77 77 76 75 75 74 73 74 73 73
51 48 47 45 44 39 38 46 58 60 62 63 68 72 73 77 75 77 81 84 83 82 82 80 80 79 77 78 78 78 77 73 72 73 75 75 76 76 77 78 78 77 76 75 73 73 74 73 73
55 50 44 38 41 43 44 47 64 65 66 69 70 73 75 78 79 80 80 81 83 82 82 80 80 79 79 79 78 77 78 77 72 74 74 75 75 75 76 77 78 78 77 75 74 73 75 73 73

GFSSGP_sfc_temp_081.txt.gz
Temp
80 79 77 71 60 61 56 60 65 69 70 76 77 73 70 70 66 57 70 74 75 76 77 80 82 83 83 82 82 82 82 82 82 82 83 83 82 83 82 82 83 83 83 83 84 83 83 83 83
77 77 73 66 58 52 56 64 62 68 76 77 78 76 71 65 71 66 69 75 78 77 76 78 81 82 83 82 82 83 83 83 82 82 82 82 83 83 83 83 83 83 82 83 83 83 83 83 83
78 80 66 62 58 54 56 63 67 77 80 77 73 75 71 65 69 71 74 77 77 76 76 78 82 82 83 83 83 83 83 83 82 83 83 82 83 82 83 83 83 83 83 83 83 83 83 83 84
75 71 66 58 56 62 61 64 69 74 75 74 71 66 72 75 73 74 77 78 76 76 78 81 82 83 83 83 83 83 83 82 83 83 83 83 83 84 83 83 83 83 83 83 83 83 83 83 83
74 68 58 57 59 64 66 67 70 68 71 71 74 66 66 74 77 77 77 78 74 74 76 80 82 83 83 83 83 83 82 83 83 83 82 83 83 83 83 84 84 83 84 84 83 83 83 83 83
64 67 57 55 59 64 65 66 69 70 70 73 70 68 68 75 75 76 78 75 77 75 76 78 82 83 83 83 83 83 83 83 83 83 83 83 83 83 84 84 84 84 84 84 83 83 83 83 83
66 60 60 61 60 63 65 68 70 73 73 72 74 64 68 71 76 77 76 76 77 77 76 76 78 80 83 83 83 83 83 83 83 83 83 83 83 83 84 84 84 84 84 84 83 83 83 83 83
69 65 61 65 62 64 69 70 70 71 71 81 77 64 64 72 77 76 75 74 74 74 75 74 75 76 76 77 83 83 83 83 83 83 83 82 83 84 84 82 84 84 84 84 83 83 83 83 83
77 61 57 64 61 65 70 67 71 71 70 79 79 75 75 77 76 73 72 71 72 74 73 73 74 74 75 76 80 82 83 83 83 82 83 81 75 77 79 82 84 84 84 84 84 83 83 83 84
66 59 61 71 72 68 71 68 68 66 71 74 74 77 78 75 73 70 69 69 72 72 72 73 73 73 74 81 76 76 78 77 75 75 75 73 73 74 78 80 84 84 84 83 82 81 81 78 73
67 61 70 74 75 75 69 68 70 67 66 74 70 72 75 73 72 71 71 71 71 72 74 72 72 73 74 75 73 73 74 74 74 74 74 73 73 73 73 73 74 74 78 74 75 73 72 72 71
63 72 75 77 75 72 69 72 68 70 71 79 77 77 74 73 72 72 71 71 71 72 74 73 73 73 73 73 73 73 73 73 73 73 73 71 70 71 71 72 72 71 71 70 71 70 71 71 73
66 73 79 79 76 75 74 70 71 70 74 75 79 78 75 74 74 75 75 74 73 72 74 73 73 72 72 73 72 72 72 73 73 73 73 72 70 70 71 71 71 70 70 69 69 69 70 71 73
72 74 75 77 77 74 71 69 72 73 78 73 77 76 77 76 75 75 74 73 73 74 73 74 73 73 73 72 73 72 72 73 73 73 73 73 71 70 71 71 70 70 68 69 69 69 70 70 72
73 68 72 71 71 71 72 65 66 72 73 71 73 77 78 77 76 75 76 74 75 75 75 74 74 74 73 73 73 73 73 74 73 74 73 73 73 71 71 70 70 71 70 70 70 71 70 70 71
63 62 58 64 70 72 70 58 70 73 70 71 75 78 78 77 77 78 78 77 77 77 75 75 81 76 74 74 73 74 74 74 74 74 72 74 74 73 71 70 70 70 69 70 70 70 69 69 69
57 51 55 64 71 69 65 59 69 71 71 69 73 76 78 75 77 79 80 79 79 78 77 76 77 76 75 74 74 73 73 73 74 74 73 74 75 74 72 70 71 70 69 70 70 69 69 68 70
50 51 52 58 69 74 64 64 66 68 70 70 71 75 75 77 76 80 80 81 80 79 78 78 78 74 74 73 73 73 72 73 74 74 73 75 74 75 72 71 71 71 70 70 69 69 70 70 70
60 56 55 62 70 65 65 63 64 67 71 68 70 74 75 79 80 82 81 81 80 79 78 76 77 73 73 71 71 70 70 72 73 73 76 75 74 75 73 72 72 72 71 70 70 71 70 70 70
59 56 55 63 69 63 60 60 65 64 67 70 71 73 75 79 79 80 80 79 78 77 78 77 77 74 74 72 72 73 72 72 73 74 74 75 75 75 74 73 72 71 71 70 71 70 69 69 69
54 53 55 59 65 63 61 57 60 64 66 68 71 71 75 77 77 79 78 78 79 77 76 76 77 75 74 73 72 71 72 72 72 72 73 73 76 75 75 74 72 72 71 71 71 71 71 69 69
48 64 65 63 57 51 59 46 55 62 61 64 67 67 69 75 79 79 78 77 77 78 78 78 77 75 75 73 73 72 71 69 71 72 74 75 75 76 76 75 75 73 71 71 71 73 71 70 69
59 66 63 62 54 50 54 49 50 60 59 62 67 68 69 73 78 78 79 78 79 80 79 78 76 76 76 74 75 72 70 71 72 73 73 73 74 75 76 75 73 72 72 71 72 72 71 71 70
70 61 57 51 50 43 51 50 50 53 60 63 68 70 71 73 76 80 81 81 79 80 79 78 75 75 75 74 72 73 71 71 71 70 72 71 72 73 75 76 74 73 72 72 72 72 72 72 71
59 50 41 41 41 41 45 49 55 61 64 67 68 71 72 74 76 79 78 80 79 78 78 77 75 74 75 75 72 72 72 71 71 71 72 71 71 72 73 74 73 73 73 73 72 72 72 72 72
50 50 42 37 36 42 47 47 56 66 70 70 73 74 74 74 77 79 79 80 80 79 78 77 75 75 75 75 74 72 71 73 72 72 73 74 75 76 76 74 74 74 74 74 73 72 72 73 72
52 46 50 43 38 43 45 53 61 64 66 67 68 70 72 75 76 78 80 81 80 79 78 77 75 76 75 76 76 74 72 71 72 72 73 74 75 77 74 75 74 74 73 73 73 72 72 72 72
53 53 44 42 36 35 43 46 49 55 59 64 65 67 68 71 72 74 79 81 81 81 80 79 77 76 76 77 77 77 74 72 71 72 72 73 74 75 75 74 74 74 74 73 72 72 72 72 71
47 43 42 41 40 36 37 44 55 56 60 62 64 66 68 70 74 74 79 82 82 81 80 79 78 77 76 77 77 77 76 72 70 72 73 73 73 73 74 74 74 74 73 73 72 72 72 72 72
53 43 39 36 34 37 39 44 60 60 63 64 64 66 68 70 73 77 77 81 83 79 80 79 79 78 78 78 77 77 77 74 72 71 73 73 73 73 74 74 74 74 74 73 72 72 74 72 71

GFSSGP_sfc_temp_084.txt.gz
Temp
79 77 75 70 60 60 56 59 65 66 67 74 76 71 67 68 65 56 68 73 74 75 76 80 82 83 83 82 82 82 82 82 82 81 82 82 82 82 83 83 83 83 83 83 83 83 83 83 83
76 76 72 66 58 53 55 64 63 67 73 75 76 74 70 64 69 65 67 74 76 76 75 78 81 82 83 82 82 83 83 82 82 82 82 83 82 83 82 83 83 82 83 83 83 83 83 83 84
77 79 66 61 57 54 55 63 66 70 76 74 71 73 69 64 68 68 71 76 76 75 75 77 82 82 83 83 83 83 83 83 82 82 82 83 82 83 83 83 83 83 83 83 83 83 83 84 84
74 70 66 58 56 60 61 64 69 72 74 72 70 65 69 72 71 72 75 76 75 75 77 81 82 83 83 83 83 83 83 82 82 83 82 83 82 82 83 83 83 83 83 83 83 83 83 84 83
74 67 58 57 58 63 66 67 67 66 71 69 73 64 64 71 74 75 75 76 73 73 76 79 82 83 83 83 83 83 82 82 83 82 83 83 83 83 83 82 83 84 84 83 83 83 83 83 84
65 66 57 55 59 63 66 69 67 67 71 71 67 65 65 72 72 74 75 74 76 75 76 78 83 83 83 83 83 83 82 83 83 83 83 81 82 82 83 84 84 84 84 83 83 83 83 83 84
66 59 60 60 60 62 65 69 66 68 69 71 73 65 67 70 73 75 74 74 76 76 75 76 78 81 83 82 82 83 83 83 83 83 82 83 83 82 82 83 84 84 84 84 83 83 83 83 83
68 62 63 62 61 61 69 66 72 70 67 77 76 63 64 70 74 74 74 73 73 74 74 74 75 76 76 78 83 83 83 83 83 82 83 82 83 82 83 82 83 84 84 84 84 84 83 83 83
76 60 58 63 63 65 71 68 72 71 69 77 78 73 73 73 74 71 71 73 73 73 73 74 74 74 75 77 80 83 82 83 83 82 82 80 76 77 79 82 83 84 84 84 84 84 83 84 83
65 60 62 69 72 68 70 69 69 69 69 69 69 72 73 72 71 70 71 71 73 73 72 73 73 74 75 80 77 77 78 77 76 76 75 74 75 76 79 81 84 84 84 84 83 82 82 77 75
65 62 68 73 74 74 70 68 69 67 66 70 66 68 70 70 70 69 70 71 71 74 73 72 73 73 74 75 74 74 75 74 75 75 75 75 75 75 75 73 74 75 78 76 76 74 75 75 74
60 71 72 73 75 71 69 72 68 70 69 74 73 72 71 69 69 69 68 68 71 73 72 72 73 73 73 74 74 74 74 74 74 75 74 73 72 73 73 73 74 73 73 73 73 72 74 74 75
65 72 75 75 72 71 74 70 71 69 74 75 75 73 71 70 70 71 71 71 70 70 72 72 72 72 72 73 73 73 73 74 75 75 75 73 72 73 73 73 72 72 72 72 72 72 73 74 75
72 74 72 73 71 71 69 69 71 73 75 74 73 71 71 71 71 71 71 69 70 71 71 72 72 72 72 72 72 73 73 74 75 75 74 74 72 73 73 72 72 71 71 71 72 72 73 73 75
69 66 69 67 68 68 71 64 65 73 75 71 71 72 72 73 73 72 72 71 72 72 72 71 72 73 72 72 73 73 73 74 74 74 74 75 73 72 73 72 72 72 71 71 72 73 74 74 75
61 60 56 61 67 69 68 58 68 71 71 69 71 73 73 73 74 75 75 74 73 73 71 72 78 74 72 72 73 74 74 74 73 75 74 73 74 73 72 72 72 72 72 72 72 72 73 73 73
55 50 54 60 68 67 65 60 67 70 71 68 70 72 73 73 74 76 77 75 75 74 72 72 74 73 73 73 73 73 74 72 73 73 74 75 74 74 72 72 73 72 72 72 73 72 73 73 74
49 51 51 56 64 65 61 60 65 67 70 69 71 73 73 73 73 76 77 77 77 76 74 74 75 74 72 73 72 72 72 73 74 75 74 75 74 74 74 72 73 72 72 73 73 73 73 74 74
58 56 55 59 66 63 62 62 62 65 67 67 69 72 73 74 76 78 78 78 77 78 74 73 72 72 72 71 71 71 71 72 74 74 76 75 75 75 73 73 73 73 73 73 73 74 74 74 73
57 54 53 65 68 62 59 58 60 63 65 68 69 71 73 75 75 76 77 77 77 76 74 73 73 71 73 73 72 73 72 73 73 74 75 76 75 75 75 74 74 72 72 72 73 74 73 73 73
53 51 53 58 66 62 58 55 56 62 65 68 70 73 73 75 74 75 76 76 77 75 74 74 73 73 74 72 72 71 72 73 73 74 75 75 76 76 75 76 74 73 73 72 74 74 73 73 72
44 62 63 60 55 49 57 46 51 58 60 64 65 67 69 72 76 77 76 76 76 76 77 76 75 73 74 72 72 71 71 71 72 73 75 74 76 76 77 76 75 74 74 73 74 75 74 74 73
57 64 60 59 52 48 52 49 50 56 57 61 65 67 68 70 74 77 78 77 77 78 77 77 75 74 74 73 73 72 71 72 73 74 74 74 75 76 77 76 75 74 74 74 74 74 74 74 73
66 58 53 49 47 42 49 49 49 53 57 64 67 69 70 70 72 75 79 79 78 79 78 77 74 73 73 73 71 71 72 71 71 72 73 74 74 75 76 77 74 74 74 74 75 75 75 75 73
57 49 39 39 39 40 42 49 52 59 63 64 66 69 72 73 73 74 76 77 76 76 77 76 73 72 73 73 72 71 72 72 72 72 73 73 73 74 75 76 75 75 75 75 75 76 75 76 76
49 48 41 35 35 41 45 45 53 62 64 66 67 69 72 72 75 75 78 77 77 77 76 76 73 73 73 73 72 71 71 74 73 73 73 74 75 76 76 76 76 76 76 76 75 75 74 76 76
49 45 46 40 36 41 44 51 59 62 63 64 65 67 68 71 73 75 79 79 78 77 76 75 74 74 74 74 73 71 71 71 73 72 73 74 75 78 77 77 76 76 75 76 75 74 74 75 76
52 50 44 41 36 35 41 42 46 53 57 61 62 62 65 68 71 74 77 79 80 79 79 77 76 75 75 76 75 74 72 72 73 73 73 74 75 76 76 76 76 76 76 76 75 75 75 75 76
45 42 40 40 38 36 36 40 53 52 55 57 61 64 65 65 67 72 77 79 81 80 80 78 77 75 75 76 76 75 73 71 71 73 74 75 75 75 75 76 76 76 75 76 74 75 76 75 75
46 41 37 38 36 35 37 41 57 56 58 60 61 63 66 67 65 69 74 78 80 79 79 78 78 77 77 76 76 76 75 73 72 72 73 75 75 74 74 75 76 76 76 76 75 75 76 75 75

GFSSGP_sfc_temp_087.txt.gz
Temp
83 83 81 74 62 62 58 61 68 68 71 78 79 74 73 75 70 67 79 85 85 85 85 86 82 83 83 83 82 82 83 82 82 83 83 82 83 83 83 83 83 83 84 84 83 84 84 84 84
83 79 76 69 61 58 61 67 66 68 77 80 80 78 74 69 73 71 76 83 86 86 88 88 81 83 83 83 83 83 83 82 82 82 82 82 83 83 83 83 83 83 84 83 83 84 84 84 84
82 81 70 62 59 59 58 62 68 72 80 80 74 78 73 67 71 77 83 85 86 85 87 85 82 83 83 83 83 83 83 82 82 82 83 83 83 83 83 83 83 83 83 83 83 84 84 84 83
78 74 69 63 57 61 62 64 69 75 77 77 74 66 73 77 76 80 83 86 85 85 87 84 83 83 83 83 83 83 83 82 83 82 82 83 83 83 83 83 83 83 83 83 83 84 84 83 84
76 72 65 61 58 63 65 68 70 69 74 70 75 66 67 75 80 82 83 86 86 87 87 87 83 83 83 83 83 83 83 82 83 82 83 83 83 83 83 83 83 83 83 83 84 84 84 84 84
66 71 63 58 60 65 66 70 68 69 74 70 70 71 68 78 79 82 85 86 88 87 88 88 83 83 83 83 83 83 83 82 83 82 83 83 83 84 84 84 84 84 84 84 83 83 83 83 84
69 68 63 63 62 62 66 71 66 70 73 73 77 69 68 73 81 83 85 86 87 88 87 86 87 85 83 83 83 83 83 82 83 83 82 82 82 83 83 84 85 85 84 84 84 84 84 83 84
75 67 67 65 62 64 69 69 71 71 69 80 81 69 65 73 81 84 85 85 86 86 86 85 85 86 85 86 83 83 83 83 83 82 83 83 83 83 83 82 84 84 84 84 84 84 84 83 83
79 63 65 67 66 68 72 70 71 72 76 77 79 79 79 79 81 81 81 81 82 84 85 87 86 85 85 86 85 83 83 82 83 83 82 83 85 86 87 84 84 84 84 84 84 84 83 83 83
71 67 66 74 75 73 74 73 70 69 72 71 73 77 77 79 79 78 78 76 79 80 83 86 86 86 85 87 85 85 86 85 84 84 84 84 84 86 87 85 84 84 84 84 83 82 81 85 87
71 69 73 75 78 78 72 72 73 71 69 73 68 70 74 78 78 79 79 79 80 81 83 85 84 84 86 84 86 87 83 83 86 83 83 84 84 86 83 82 83 85 83 89 87 87 89 85 87
69 75 77 78 79 76 73 75 71 74 73 80 77 76 75 77 78 79 79 80 80 79 81 83 83 82 84 85 86 86 86 85 87 85 83 83 85 83 81 85 84 84 85 83 84 86 85 85 85
71 75 79 81 79 77 78 73 72 72 77 78 77 77 76 78 79 81 81 81 81 78 81 83 82 82 82 82 84 85 85 86 87 86 84 86 85 83 84 83 85 84 85 85 84 84 85 84 85
77 76 79 81 80 79 74 72 74 74 76 75 75 76 78 78 79 79 79 79 79 80 82 83 82 82 83 82 81 83 85 85 86 86 85 83 85 84 84 83 84 84 85 85 85 84 85 85 86
77 71 78 75 78 75 77 69 69 75 75 73 74 77 78 79 80 79 80 80 81 82 83 82 82 83 81 82 82 84 85 86 86 87 84 83 83 83 82 81 84 84 83 81 83 83 85 88 87
74 73 70 72 76 75 77 69 75 76 72 71 73 76 77 79 80 82 82 82 83 83 81 82 85 83 82 82 83 85 85 86 86 87 85 83 82 82 81 80 83 83 83 84 84 85 86 87 88
70 67 67 68 76 74 72 71 74 76 74 71 74 76 78 78 80 82 83 83 83 83 81 81 83 83 83 82 84 84 83 84 85 86 84 83 83 83 83 84 83 81 83 84 85 85 86 85 87
64 66 68 68 73 73 72 72 72 74 75 72 74 76 78 79 80 83 84 84 84 84 82 82 83 82 81 83 82 84 84 85 86 86 86 84 84 83 83 83 82 83 84 84 85 83 85 87 86
70 70 69 71 75 74 74 74 74 74 74 71 74 76 78 79 83 85 85 85 84 84 81 81 80 81 81 82 82 82 83 83 85 86 85 84 83 82 82 85 83 83 85 84 83 84 83 86 86
70 68 68 71 74 73 72 70 70 72 74 74 75 76 78 81 82 82 84 85 84 83 82 80 80 80 81 83 83 84 84 85 86 85 84 84 84 83 83 83 84 83 84 82 82 83 85 86 86
68 68 67 69 72 72 71 67 67 69 73 76 77 79 81 81 81 82 82 83 84 83 82 81 80 81 81 82 82 82 83 83 84 84 84 85 85 85 83 83 84 83 84 85 83 83 82 85 84
64 71 70 69 69 66 70 65 67 69 70 72 74 77 80 81 83 85 84 83 84 84 84 83 82 81 82 81 82 80 83 83 86 86 87 85 85 85 85 85 82 83 86 83 84 85 85 83 84
67 72 71 70 68 67 67 68 70 68 68 72 74 76 80 83 85 85 85 85 86 86 85 84 82 81 82 80 82 82 82 86 87 86 83 83 83 85 86 85 84 81 84 83 83 82 82 86 87
74 70 67 67 68 60 66 68 65 67 67 72 78 77 78 82 85 86 88 88 86 87 86 85 82 80 81 81 81 80 81 83 84 84 84 86 86 86 85 85 84 83 84 84 85 83 83 84 85
71 68 57 55 56 58 63 65 63 69 70 71 73 79 80 82 83 84 85 85 85 85 85 85 81 79 80 81 81 80 81 82 82 83 85 84 86 86 84 84 84 85 83 83 84 83 83 83 85
69 69 60 50 53 59 61 60 61 70 74 74 76 78 81 82 83 83 84 85 85 84 83 83 80 80 80 81 81 81 81 84 85 85 87 88 88 88 86 85 86 85 85 84 82 86 86 85 86
63 62 66 60 57 61 63 63 68 71 70 71 72 74 75 79 82 84 85 86 85 85 83 82 81 80 81 81 81 80 80 81 84 83 84 87 86 89 87 86 85 85 85 85 83 86 83 84 85
66 65 61 63 51 52 56 56 59 60 63 67 68 69 73 76 77 81 85 86 86 86 85 84 83 80 82 82 82 82 81 81 83 83 82 84 86 86 87 85 86 85 85 84 83 85 84 83 86
62 61 58 63 58 57 53 54 63 60 63 63 66 69 72 74 76 76 80 85 87 87 87 85 83 82 82 83 83 82 82 82 82 83 83 84 85 85 84 85 85 86 85 85 83 83 85 83 83
59 54 56 60 53 55 61 54 65 64 65 65 65 68 70 73 75 76 79 81 86 86 86 86 86 85 84 84 83 82 83 82 82 81 83 84 83 84 85 85 84 85 85 85 83 84 86 84 83

GFSSGP_sfc_temp_093.txt.gz
Temp
85 93 97 89 63 70 67 69 81 78 81 92 94 90 86 84 77 71 95 98 97 94 91 89 83 83 83 83 83 83 83 83 83 83 83 83 83 84 84 84 84 84 84 85 84 85 84 84 84
95 91 90 75 65 62 65 73 73 80 88 93 91 91 88 80 89 90 93 96 98 96 96 92 82 83 83 83 83 83 83 83 83 83 84 83 84 84 84 84 84 84 84 85 85 85 84 84 84
91 91 72 69 73 62 64 72 76 85 91 91 88 94 87 81 91 93 98 98 99 96 96 87 83 83 83 83 83 83 83 83 83 84 84 84 84 84 84 84 84 84 84 84 84 84 84 84 84
90 82 79 69 66 72 73 75 81 87 86 91 89 80 86 95 94 97 99 100 99 99 96 85 83 84 84 84 84 84 83 83 83 84 84 84 84 84 84 84 84 84 84 84 84 84 84 84 84
87 77 66 65 61 66 74 75 84 83 85 86 88 82 81 93 99 98 98 101 100 100 94 91 83 84 83 84 84 83 84 83 84 84 84 84 84 84 84 84 84 84 84 84 84 85 85 84 84
71 75 63 64 61 66 75 81 82 81 86 83 85 82 81 94 96 98 101 100 101 99 97 91 84 84 84 84 84 83 84 83 83 84 83 84 84 84 84 84 84 84 85 84 84 85 84 84 83
74 71 67 65 62 66 74 81 77 81 85 82 89 81 85 91 97 99 102 102 101 101 97 93 92 87 83 84 84 84 84 84 83 83 84 83 84 85 85 84 85 85 85 85 85 84 84 83 83
82 78 69 74 64 65 74 73 71 74 81 93 91 80 81 91 98 100 102 102 102 100 95 93 91 93 91 89 84 84 84 83 84 84 84 84 84 84 84 84 85 85 84 85 85 84 84 83 83
90 72 68 74 74 74 73 71 69 75 85 87 91 90 93 96 98 98 97 98 98 97 94 92 97 93 85 90 87 84 84 84 84 84 84 85 91 90 89 85 85 85 85 85 85 84 84 83 83
85 74 74 78 81 82 80 78 73 73 81 83 89 94 95 95 95 94 94 94 95 93 94 99 92 88 92 91 89 86 87 87 87 88 88 83 83 87 92 87 85 85 85 85 84 85 84 86 94
87 76 82 85 89 83 78 76 83 72 77 85 85 88 91 93 93 93 94 95 94 95 97 92 86 94 93 93 95 86 84 93 91 89 87 88 93 90 92 90 90 90 86 92 91 87 81 92 97
83 77 90 90 91 86 82 86 82 81 79 92 92 92 92 91 93 94 94 95 94 95 95 93 95 89 84 96 91 86 93 94 94 94 92 91 85 89 84 84 94 92 87 92 85 89 93 90 95
84 87 91 93 92 89 88 85 84 82 90 93 92 91 91 93 94 96 97 97 95 93 95 95 93 88 88 93 94 84 94 85 94 93 94 88 85 87 88 91 93 94 94 93 89 93 93 91 95
88 89 91 93 93 90 86 87 87 87 91 89 89 90 92 93 94 94 95 94 93 94 94 95 92 89 89 92 89 88 85 93 86 87 93 93 93 85 92 92 91 94 90 94 88 92 92 89 94
91 85 89 90 93 89 88 80 77 87 88 86 88 90 92 94 95 93 95 93 94 94 95 93 94 94 91 89 92 86 93 89 85 86 90 91 91 91 90 83 91 93 91 90 90 91 94 95 96
86 87 81 89 92 91 83 69 80 85 84 84 87 90 91 93 94 95 96 95 95 95 93 93 97 94 92 90 92 96 88 89 94 80 89 90 89 90 89 91 85 92 92 94 93 85 83 93 93
85 78 78 84 92 90 80 67 81 85 83 81 87 89 90 91 93 94 96 96 95 95 92 92 94 93 91 90 93 95 92 87 92 80 84 91 91 90 84 90 91 89 93 94 92 92 83 93 94
78 79 80 80 87 89 75 76 81 84 84 80 84 87 86 87 92 94 96 97 96 95 93 92 93 91 90 91 91 95 93 87 89 92 86 90 90 90 91 92 90 89 93 93 83 90 90 88 95
87 84 78 84 90 85 82 76 83 83 84 80 80 83 82 86 94 95 96 97 96 95 91 91 90 88 90 90 91 92 90 86 87 85 92 91 92 91 87 82 89 85 85 83 90 91 89 90 94
85 84 80 85 89 88 84 82 85 87 81 78 81 81 83 87 92 93 94 95 95 93 91 89 89 87 89 92 92 94 82 92 93 86 92 93 92 91 91 87 91 87 88 89 89 87 84 89 87
84 84 82 82 85 89 86 80 80 85 88 82 86 87 87 86 89 88 92 94 95 92 91 89 88 87 88 92 90 92 91 79 92 85 92 92 93 92 92 90 86 90 90 90 89 89 85 79 93
78 88 87 84 80 75 87 73 78 83 82 84 88 89 86 85 90 89 91 93 95 93 93 90 88 87 89 90 91 84 85 87 83 92 84 91 92 92 92 91 90 89 87 88 90 93 86 80 90
82 89 84 85 81 82 81 76 76 85 82 84 87 87 86 86 90 90 91 91 93 96 95 93 89 87 89 88 88 89 86 81 88 84 85 84 87 90 93 91 91 89 89 91 91 89 88 90 81
87 85 82 83 82 72 80 79 74 76 80 83 90 89 93 92 90 92 94 91 94 98 96 94 89 86 88 88 87 87 89 87 85 85 91 91 91 91 91 92 90 90 91 90 91 89 89 87 90
83 79 68 66 68 69 83 79 74 81 84 86 89 91 93 94 91 90 90 89 93 91 96 95 89 86 87 88 88 87 87 89 89 88 90 89 91 79 89 89 88 90 89 90 90 89 89 89 90
79 80 71 58 65 71 83 71 71 83 87 89 91 94 95 96 90 90 93 90 91 92 93 95 90 87 87 88 87 88 88 91 91 91 92 93 93 84 89 91 89 90 90 91 90 90 90 91 90
78 74 87 78 81 75 76 73 79 84 84 86 87 89 93 94 95 90 89 94 92 91 94 95 93 89 89 89 88 88 88 88 92 93 91 93 85 82 91 92 91 91 91 90 87 89 89 89 89
79 86 74 77 64 63 72 68 70 75 77 82 84 79 75 81 86 86 82 90 94 95 96 96 94 91 90 91 90 90 89 89 89 91 90 92 93 88 78 89 92 91 91 90 89 91 90 89 91
77 75 79 82 78 69 66 65 79 76 79 79 72 73 74 76 76 80 88 87 88 95 95 97 96 93 91 91 91 90 90 91 90 90 90 90 91 91 90 80 92 91 91 90 88 87 91 88 88
80 79 80 70 68 76 72 64 82 80 81 79 70 66 68 71 75 78 80 83 84 79 79 93 96 96 95 93 91 91 91 91 91 89 91 91 89 90 90 91 90 90 91 90 88 88 91 89 87

GFSSGP_sfc_temp_096.txt.gz
Temp
84 88 89 85 62 63 60 65 80 78 82 93 94 89 82 83 78 66 90 92 90 87 85 86 83 83 83 83 83 83 83 83 83 83 83 83 83 84 84 84 84 84 84 85 84 84 84 84 84
91 93 89 75 60 58 61 74 74 78 89 94 93 88 83 78 86 85 88 92 92 89 89 87 82 83 83 83 83 83 83 83 83 83 83 84 84 84 84 84 84 84 84 84 84 84 84 84 84
86 93 72 67 67 62 58 75 79 85 92 91 86 87 85 80 88 89 94 94 93 91 89 84 83 83 83 83 83 83 83 83 83 84 83 83 84 84 84 84 84 84 84 84 84 84 84 84 84
86 83 77 64 63 69 69 78 84 85 91 91 87 79 89 95 91 93 97 96 94 90 88 83 83 83 84 83 83 83 83 83 83 83 83 84 84 84 84 84 84 84 84 84 84 84 84 84 84
85 76 64 64 64 68 76 80 81 83 85 87 85 80 83 93 96 96 97 98 95 90 87 86 83 83 83 84 83 84 83 84 83 84 84 84 84 84 84 84 85 84 84 85 85 84 84 83 83
73 69 61 60 64 66 73 80 84 82 85 85 82 82 83 94 94 96 99 97 94 91 90 87 84 84 84 84 84 84 83 83 83 83 83 84 84 84 84 84 85 85 84 85 85 84 84 83 83
71 65 66 64 62 65 72 82 80 76 83 82 88 78 85 90 95 99 98 96 95 95 89 86 86 84 84 84 84 84 84 83 83 83 83 84 84 84 84 84 85 85 85 85 85 84 83 83 83
79 72 66 68 68 67 76 77 73 71 82 90 92 78 79 90 97 99 98 98 93 94 91 87 86 86 85 85 84 84 83 83 83 84 84 84 85 85 84 84 84 85 85 85 85 84 83 83 83
86 64 61 69 66 69 75 72 72 72 71 79 91 89 91 95 98 96 94 92 92 92 91 92 89 85 85 86 85 84 83 84 84 84 83 83 82 85 85 84 85 84 85 85 85 84 83 83 83
72 62 67 80 78 73 73 72 69 69 76 84 86 92 94 95 95 93 91 90 89 89 86 90 91 87 86 91 84 84 84 85 85 84 81 77 83 84 87 85 85 85 85 85 85 84 84 85 86
76 63 82 83 86 80 72 73 72 68 69 83 84 87 91 92 93 93 93 91 89 90 88 93 88 82 81 86 87 85 84 86 86 83 83 82 87 84 85 82 84 83 84 83 75 80 82 85 83
68 70 78 87 87 84 78 80 76 74 68 82 91 91 91 91 92 93 93 91 92 85 88 90 85 76 79 81 77 88 85 84 87 84 85 80 82 80 73 80 85 81 75 72 68 76 82 89 88
73 67 76 92 89 84 84 81 79 69 69 81 92 91 90 92 93 95 96 94 93 82 88 90 88 87 87 76 86 86 84 83 89 86 85 84 82 80 82 85 85 83 86 84 77 84 84 85 88
92 73 76 92 91 86 81 80 82 75 78 87 89 89 91 92 93 94 94 92 92 90 90 89 88 88 88 81 82 85 81 84 85 87 89 83 85 84 85 83 85 79 81 83 85 85 83 84 86
94 85 86 92 91 85 87 78 79 85 89 87 87 89 91 92 94 92 93 91 93 94 91 88 88 89 86 87 87 85 88 88 83 86 89 88 87 82 78 81 80 84 85 85 86 86 85 84 87
87 87 76 90 92 89 83 68 81 86 85 84 87 89 90 92 93 94 94 93 92 93 88 90 94 90 88 88 87 87 87 81 73 76 87 88 87 86 79 80 80 85 84 83 84 84 83 83 82
83 76 78 80 93 83 82 63 75 85 84 84 86 88 89 90 92 94 95 94 92 90 89 90 90 90 88 87 88 84 86 79 73 75 76 86 87 88 84 81 82 86 86 83 81 79 81 82 84
75 77 80 77 86 81 74 67 71 82 83 83 85 87 88 89 90 93 94 95 94 91 90 90 90 86 87 86 87 87 87 89 77 77 78 85 86 87 85 82 85 86 83 81 84 83 84 84 80
85 83 77 76 77 74 67 65 69 80 82 82 83 84 85 87 91 93 94 94 94 91 88 88 86 84 85 85 85 86 83 83 82 75 83 85 85 86 85 83 85 84 80 82 84 85 84 82 81
83 83 77 77 80 72 68 62 70 81 82 83 83 82 83 82 86 91 92 93 92 88 87 86 85 84 85 86 86 86 81 85 83 75 80 89 84 86 84 84 84 84 82 85 86 82 80 82 80
82 82 76 67 68 84 76 60 55 79 85 83 83 85 85 83 83 89 91 91 92 87 86 86 84 83 85 87 88 78 74 74 81 80 83 86 87 88 86 80 83 82 84 83 85 85 82 80 80
77 88 85 78 76 73 84 64 69 76 74 71 73 82 84 86 89 91 92 91 91 89 89 86 85 83 85 85 84 83 78 76 80 81 83 85 86 87 87 88 85 81 76 78 83 85 81 80 78
80 90 81 81 78 80 80 71 75 76 65 64 66 81 85 89 90 91 89 91 93 91 90 87 85 83 85 85 84 83 81 76 74 79 74 82 85 89 88 88 87 82 75 78 83 83 80 82 81
89 85 85 82 79 69 77 76 71 70 62 67 68 83 84 85 87 88 91 94 94 92 91 88 84 82 84 84 85 82 76 74 75 77 76 78 83 85 86 86 87 83 78 82 83 85 86 82 82
84 80 68 64 66 66 81 76 67 65 64 76 75 86 80 78 79 89 89 91 89 89 90 87 83 81 83 84 84 84 82 82 72 75 75 82 84 78 83 84 85 85 84 85 86 85 83 84 83
80 80 69 57 62 68 80 65 71 85 89 91 89 90 81 73 72 90 89 90 78 90 89 87 82 81 83 84 83 84 84 82 85 79 87 86 86 81 79 85 85 86 86 85 84 84 83 84 84
78 73 85 75 77 71 69 72 79 84 85 87 83 80 74 83 83 72 86 91 85 83 86 86 83 82 83 84 84 84 84 84 86 86 86 86 85 78 76 82 84 85 84 85 83 80 83 83 84
79 86 72 75 60 60 65 65 66 75 74 78 75 76 72 76 76 70 70 73 72 78 90 88 85 83 84 85 85 85 85 85 85 86 85 86 82 77 74 75 83 84 85 84 82 81 83 81 83
75 73 76 78 75 64 58 62 79 77 74 72 71 71 72 75 76 75 70 69 67 74 80 89 87 86 85 86 85 85 85 86 85 86 87 86 84 80 77 76 80 83 83 84 83 82 82 81 81
82 77 78 67 65 71 56 60 68 75 76 72 70 70 72 74 77 77 77 74 72 72 72 72 74 82 89 88 87 86 86 86 86 85 87 86 85 84 80 79 81 81 85 83 83 83 85 81 81

GFSSGP_sfc_temp_102.txt.gz
Temp
81 80 79 74 61 60 57 63 75 73 75 82 82 78 73 75 70 57 75 78 78 78 80 82 82 83 83 82 82 83 83 83 83 83 83 83 83 83 83 83 84 84 84 84 84 84 84 84 84
79 80 75 68 58 54 57 70 66 74 77 80 80 77 72 65 75 71 72 78 79 79 79 80 82 82 82 83 83 83 83 83 83 83 83 83 83 84 84 84 84 84 84 84 84 84 84 84 84
82 83 66 61 59 55 57 70 72 77 82 81 76 79 74 68 74 74 77 79 79 77 77 80 82 82 82 83 83 83 83 83 83 83 83 83 83 84 83 84 84 84 84 84 84 84 84 84 84
78 72 68 60 59 63 64 70 76 76 79 80 77 69 77 81 77 78 80 81 78 77 79 82 83 83 83 83 83 83 83 83 83 83 84 84 84 84 84 84 84 84 84 84 84 84 84 84 84
73 70 60 59 61 66 71 75 78 75 75 75 76 70 70 79 81 80 80 80 76 76 78 80 83 83 83 83 83 83 83 83 83 83 84 84 84 84 84 84 84 84 84 84 84 84 84 84 84
67 66 58 57 62 64 70 76 78 75 77 75 72 71 69 80 79 80 80 78 79 77 78 80 83 83 83 83 83 83 83 83 83 83 83 84 84 84 84 84 84 84 84 84 84 83 83 83 84
66 62 60 62 62 63 69 76 73 74 74 74 78 67 71 76 81 80 79 79 79 79 78 77 79 82 83 83 83 83 83 83 83 83 83 83 84 84 84 84 84 85 85 84 84 83 83 83 83
71 63 61 64 62 64 68 69 72 70 73 83 81 68 66 77 81 80 79 78 77 77 77 76 76 77 77 78 83 83 83 83 83 83 84 84 84 84 84 83 84 85 85 84 84 83 84 83 83
72 60 58 65 66 66 71 68 71 70 77 80 83 79 80 84 81 78 77 75 75 77 74 76 75 74 75 77 81 82 83 83 83 83 84 81 75 78 79 83 84 85 84 84 84 83 83 84 83
67 57 59 69 70 69 70 69 68 68 69 75 79 83 84 81 79 76 74 73 73 74 74 76 76 73 75 82 75 75 79 76 75 75 75 73 73 75 79 82 84 85 84 84 84 84 84 84 78
66 61 66 70 74 77 71 67 73 66 63 66 75 79 80 80 79 76 76 75 75 76 77 76 76 74 74 75 73 73 74 75 75 74 73 73 74 74 75 75 75 75 79 75 76 77 77 77 76
64 69 73 71 76 74 71 73 68 72 70 77 84 84 81 80 78 78 77 77 76 77 78 77 75 74 74 75 74 73 73 73 74 75 74 72 71 71 72 72 73 73 72 72 71 71 74 76 78
68 70 73 73 72 75 77 73 72 70 77 81 86 84 81 80 81 81 80 79 79 77 78 75 75 73 73 73 74 73 74 74 76 76 75 74 72 70 72 72 73 72 71 70 70 69 73 76 77
76 75 73 71 73 78 70 69 73 73 77 77 84 81 83 82 81 80 79 78 77 77 77 75 74 74 74 72 73 74 75 77 74 75 76 76 71 70 72 73 72 72 72 73 73 73 73 74 77
79 71 76 71 72 73 73 63 64 73 74 79 83 81 80 82 82 78 79 78 77 77 77 76 75 75 74 74 74 75 77 76 74 74 77 76 75 73 72 72 71 72 74 74 75 76 75 76 76
67 66 65 70 71 74 72 56 65 70 72 73 82 82 80 82 81 81 81 80 79 78 77 77 83 77 76 75 75 75 75 72 72 73 74 76 76 74 74 73 73 74 74 74 74 75 74 74 73
61 56 63 68 74 72 69 58 65 70 69 71 77 80 79 82 80 80 81 81 80 80 78 76 78 78 76 75 75 73 73 69 71 72 73 75 77 76 75 75 74 74 74 75 74 73 73 73 74
55 57 64 64 66 68 63 61 67 68 69 70 77 79 77 79 80 81 81 82 82 80 80 78 77 76 76 75 73 71 73 69 70 71 73 77 76 78 75 75 75 75 74 74 74 73 74 73 74
64 63 64 64 68 62 63 59 63 68 69 69 77 75 76 79 81 83 82 82 81 79 76 77 75 74 73 73 71 69 70 69 70 72 75 76 76 77 75 74 75 75 74 73 75 74 74 73 73
65 62 59 64 68 65 64 62 66 68 70 74 76 74 77 78 79 81 80 81 80 78 77 76 76 74 74 74 73 74 73 71 71 72 74 76 77 77 75 74 74 75 74 74 74 73 72 72 72
64 59 60 60 63 64 64 61 61 65 73 77 79 76 80 78 77 79 79 80 80 76 77 76 75 75 73 75 72 71 70 71 71 71 72 75 77 78 76 75 75 75 73 73 74 74 73 71 72
54 71 71 64 58 54 63 48 58 63 63 72 78 77 78 79 80 79 79 79 79 77 78 77 76 75 74 74 73 72 71 69 70 72 72 74 77 78 77 76 75 74 73 73 74 76 73 72 70
66 74 73 66 57 56 57 51 53 62 62 69 71 77 79 82 82 79 79 80 81 79 78 78 76 75 74 75 73 72 70 70 72 73 73 73 75 77 79 76 75 73 72 73 74 73 73 73 72
77 70 66 60 53 46 56 54 54 55 64 66 72 72 77 80 83 82 81 82 80 81 79 78 76 74 73 75 73 72 72 71 71 71 70 71 72 74 76 77 75 74 73 73 73 75 74 73 73
68 56 45 44 48 47 57 55 59 64 68 71 71 72 72 69 73 79 80 78 78 79 78 77 75 72 73 74 74 73 72 71 72 71 70 71 71 72 74 75 74 73 74 74 74 74 75 74 73
59 58 48 44 45 49 59 51 59 69 72 73 74 70 70 70 71 69 74 79 78 79 78 78 74 72 72 74 74 73 73 71 72 73 71 72 73 73 75 75 75 75 76 75 74 74 74 74 73
59 55 62 54 48 51 52 55 64 67 65 70 67 71 70 69 68 68 70 74 72 71 73 77 75 73 72 74 73 73 73 72 73 73 72 73 73 76 75 75 75 76 76 75 74 72 73 73 73
65 65 59 52 44 41 47 49 48 57 61 66 66 64 67 65 67 68 69 69 70 70 70 71 77 75 73 74 75 75 74 73 72 71 72 73 75 76 74 74 75 75 75 75 74 73 73 73 73
60 55 54 54 49 44 42 44 60 60 62 62 64 65 63 64 65 66 67 70 69 70 70 71 69 73 74 74 73 75 75 75 74 73 74 75 74 74 74 73 74 74 74 75 73 72 73 73 72
63 58 54 49 47 47 44 48 62 61 62 63 63 63 64 65 66 67 66 67 70 68 69 69 69 70 71 72 73 72 73 75 74 74 75 74 74 73 73 73 73 73 74 74 73 74 76 74 73

GFSSGP_sfc_temp_105.txt.gz
Temp
80 79 78 72 60 59 56 60 69 72 70 77 77 75 71 71 67 56 71 75 77 77 79 81 82 83 83 82 82 82 82 82 83 82 83 83 83 83 83 83 83 84 84 84 84 84 84 84 84
77 78 74 67 56 53 58 67 67 69 74 78 77 75 70 64 71 69 70 76 78 78 77 79 81 82 83 82 82 83 83 83 83 83 83 83 83 83 83 83 83 84 84 84 84 84 84 84 84
78 81 65 62 58 54 56 68 70 74 79 77 73 75 70 65 72 71 74 77 78 76 76 79 82 82 83 82 83 83 83 83 83 83 83 83 83 84 84 83 83 84 84 84 84 84 84 84 84
76 70 66 59 58 63 63 70 74 74 77 78 73 65 74 77 74 75 78 78 76 75 77 81 82 82 83 83 83 83 82 83 83 83 83 84 83 84 84 84 84 84 84 84 84 84 84 84 84
73 68 59 58 60 66 67 72 73 72 72 74 75 66 67 75 77 77 77 77 73 73 76 79 82 83 83 82 83 83 83 83 83 83 83 83 84 84 84 84 84 84 84 84 84 84 84 84 84
65 66 57 56 60 66 68 73 75 72 73 72 69 67 65 75 74 76 77 75 76 75 76 78 82 83 83 83 83 83 83 82 83 83 83 83 84 83 84 84 84 85 85 84 84 84 84 84 84
65 61 59 61 60 62 66 73 72 71 72 71 75 64 66 71 76 77 76 75 76 77 76 76 77 81 83 83 83 82 83 82 83 83 83 83 83 84 84 84 84 85 85 84 84 84 84 84 84
68 63 60 61 61 60 64 70 72 68 70 79 78 63 62 72 77 76 75 74 73 74 74 74 75 76 76 77 83 83 83 83 83 83 83 83 83 84 84 83 84 85 85 84 84 84 83 83 83
73 59 57 62 62 61 65 68 70 72 74 78 80 74 75 77 76 74 72 71 72 74 72 73 73 74 74 76 80 82 83 83 83 82 83 80 74 76 77 82 84 85 84 84 84 84 83 83 84
65 58 59 68 65 65 68 70 68 71 71 72 73 77 77 76 74 71 70 68 70 70 72 72 72 73 74 80 75 74 77 74 75 74 74 72 73 74 78 82 84 85 84 84 84 84 84 81 76
66 60 64 69 70 67 70 68 70 70 66 72 70 72 74 73 73 72 72 72 71 72 73 73 72 73 73 74 72 72 72 73 73 73 72 72 73 73 74 73 73 73 78 73 74 75 75 76 75
63 69 68 67 72 71 68 71 67 71 71 77 78 77 74 73 73 73 72 72 72 72 73 73 73 73 72 73 72 72 72 72 72 72 72 71 70 71 71 72 72 72 70 70 70 70 74 74 76
65 70 73 72 71 71 72 70 67 69 76 80 79 76 74 74 75 75 76 75 74 72 74 73 73 72 72 72 72 72 72 72 73 73 73 72 70 70 71 72 72 71 70 69 69 69 73 74 74
71 71 72 71 73 74 70 69 72 74 77 79 77 75 76 77 76 76 75 74 74 74 74 73 73 73 73 71 72 72 72 73 72 72 73 73 70 70 71 71 72 71 70 71 71 72 72 73 74
75 65 72 71 72 68 73 65 65 73 73 77 77 76 77 78 78 76 76 75 76 75 74 73 73 74 73 72 72 72 72 73 72 72 73 73 72 70 72 71 71 72 72 72 72 74 73 73 74
64 65 61 68 72 69 71 58 67 71 70 72 77 77 77 78 77 78 78 77 76 75 74 74 81 74 73 73 73 73 73 72 71 73 73 74 74 73 72 71 71 71 73 72 73 72 72 72 72
58 52 63 62 72 69 66 59 66 69 70 70 78 77 78 77 77 78 79 78 77 76 75 74 75 74 74 73 72 71 71 70 70 72 73 74 74 74 73 72 72 73 73 73 72 72 71 72 72
53 54 58 62 67 68 62 61 65 68 68 70 72 75 77 76 76 79 79 79 78 77 75 75 74 73 71 72 71 70 70 69 69 71 72 74 74 76 73 73 73 74 72 72 72 72 72 72 71
62 62 57 61 64 62 59 61 63 68 68 68 69 70 75 75 77 78 79 79 78 76 74 74 73 72 72 71 69 69 68 69 69 70 73 74 74 76 74 73 73 73 73 73 74 73 72 72 71
62 61 56 60 65 62 59 61 64 68 67 69 70 70 74 75 75 78 78 78 77 75 74 73 73 71 72 71 70 71 70 70 70 71 73 75 76 74 74 73 73 73 72 73 73 72 70 70 70
56 56 56 57 63 64 59 59 61 67 70 71 73 73 76 75 74 76 76 77 76 75 74 75 73 72 72 73 70 70 70 70 70 70 71 74 76 76 75 74 73 73 72 72 72 72 72 70 71
48 66 66 61 55 52 65 48 56 62 65 69 72 75 74 76 76 76 76 76 76 76 77 76 74 72 72 72 72 70 69 69 70 70 71 73 76 76 76 75 74 73 72 72 72 75 71 70 69
62 72 67 61 54 53 57 50 50 60 59 63 70 75 76 77 77 75 76 78 77 78 77 76 74 71 72 71 71 71 69 69 70 71 71 72 73 75 76 75 74 73 71 71 72 73 72 71 70
74 66 61 55 50 45 56 53 50 55 61 64 68 75 77 78 79 79 80 80 79 79 77 76 74 71 72 72 71 71 68 70 70 70 70 71 72 73 74 76 74 73 72 72 72 73 73 73 72
63 54 42 41 43 44 51 52 57 63 68 69 69 72 76 78 77 77 76 78 79 77 76 76 73 70 70 72 72 72 71 70 71 71 70 70 70 71 73 74 73 73 72 73 72 72 73 72 72
56 56 45 39 40 45 52 48 56 65 72 72 76 69 70 71 74 73 76 78 78 77 76 76 72 71 70 72 72 72 71 70 71 71 70 71 72 73 74 74 74 74 74 73 73 72 73 73 72
56 53 58 48 44 47 48 52 61 65 63 67 65 68 68 69 70 69 69 70 73 73 72 75 74 71 70 71 72 72 71 71 71 72 71 72 72 74 74 74 74 74 74 73 73 71 72 72 72
61 63 53 48 41 38 45 45 48 56 59 61 63 62 64 66 68 68 69 69 69 70 70 70 72 70 71 72 72 73 72 72 71 71 72 72 72 73 74 73 74 73 73 74 72 71 72 72 71
58 53 51 50 46 41 39 45 61 60 63 62 62 63 64 65 65 67 68 68 69 71 71 70 68 70 71 72 72 72 72 73 72 71 71 73 73 72 72 72 72 73 73 73 72 72 72 71 71
56 54 52 47 43 42 43 47 61 62 63 64 62 63 64 64 64 65 66 68 68 68 69 68 69 69 69 70 71 71 71 71 71 71 72 74 72 72 72 72 71 72 73 73 72 72 74 72 72

GFSSGP_sfc_temp_108.txt.gz
Temp
79 78 77 72 59 59 55 60 68 65 65 72 75 71 67 67 64 55 69 73 75 75 77 80 81 83 82 82 82 82 83 83 83 83 83 83 83 83 83 83 84 84 84 84 84 84 84 84 84
77 77 73 67 56 53 56 66 65 68 72 75 74 73 68 62 70 67 69 75 77 76 76 78 81 82 82 82 82 82 82 83 82 83 83 83 83 83 83 84 84 84 84 84 84 84 84 84 84
77 79 64 61 57 53 56 66 67 73 76 74 70 73 69 65 71 70 73 76 77 75 76 78 82 82 82 83 82 82 83 83 82 83 83 83 84 83 83 84 84 84 83 84 84 84 84 84 84
74 70 66 58 56 61 62 69 73 73 74 74 71 64 71 76 72 73 76 77 75 74 77 81 82 82 82 82 82 82 82 83 83 82 83 83 84 84 84 84 84 84 84 84 83 84 84 84 84
72 67 58 58 60 62 66 71 73 71 72 72 73 63 66 71 75 75 75 75 73 73 76 78 82 83 83 82 82 83 82 83 82 83 83 83 84 84 83 84 84 84 84 84 84 84 84 84 84
64 66 57 55 59 64 66 69 73 71 72 70 67 66 64 73 73 74 75 73 75 73 75 78 82 83 82 82 83 83 83 82 83 83 83 83 83 83 83 84 84 84 84 84 84 84 84 84 83
65 61 58 59 60 63 63 69 69 70 71 69 73 63 66 69 73 74 73 73 74 75 75 76 77 81 83 83 83 83 82 83 83 83 83 83 83 83 83 84 85 85 85 84 84 84 83 84 83
68 63 59 60 59 59 64 69 71 70 67 77 75 61 62 68 73 73 73 71 72 73 74 74 75 76 76 77 82 83 83 82 83 82 83 83 84 84 83 83 84 85 85 84 84 84 84 83 83
74 58 56 60 62 60 65 67 72 73 72 76 75 72 72 73 73 71 70 71 71 73 72 73 73 74 75 76 80 82 82 83 83 82 82 77 74 76 78 83 84 84 84 84 84 84 84 82 83
64 57 60 68 65 63 65 67 68 69 68 67 68 72 73 72 71 69 68 70 71 70 72 72 72 73 74 79 75 74 76 75 75 75 74 74 75 76 78 83 84 84 84 84 84 84 84 81 77
66 60 66 67 67 66 67 68 70 68 64 69 65 67 70 70 70 69 69 69 70 70 73 72 72 73 74 74 73 73 73 73 73 73 73 74 75 73 74 74 74 74 78 75 76 77 77 79 78
62 69 68 69 70 67 65 70 67 71 69 74 72 71 71 69 69 69 69 69 69 70 72 72 72 73 73 73 73 73 73 73 73 73 74 73 73 73 73 74 74 73 72 72 73 73 75 77 78
64 69 70 71 71 69 68 65 69 70 74 76 75 73 70 71 71 72 72 71 70 70 72 72 73 72 72 72 72 73 73 73 74 74 74 74 73 73 73 74 74 73 72 73 73 73 75 76 77
69 69 69 72 70 70 68 64 67 71 76 74 73 71 71 72 72 72 71 71 71 72 72 73 73 73 73 72 72 73 72 74 73 73 74 74 73 73 73 74 73 73 73 74 75 75 75 74 75
69 63 69 70 70 69 71 62 64 73 75 72 71 71 72 73 74 73 73 72 73 72 73 73 73 74 72 73 72 73 73 74 72 73 74 74 74 73 74 73 73 74 75 75 75 76 76 76 77
62 61 57 67 70 70 69 57 67 71 72 70 71 72 73 74 74 75 76 75 74 73 72 73 79 73 73 72 73 73 73 73 73 73 73 75 74 72 73 73 74 74 75 75 75 75 74 75 76
56 50 59 61 70 68 64 58 66 69 70 69 71 72 73 73 74 75 78 76 75 74 72 72 74 73 73 73 72 72 73 72 71 73 74 75 75 75 73 74 75 75 75 76 75 75 75 75 75
50 51 58 61 66 68 62 62 66 67 68 69 71 72 72 73 73 75 78 77 75 74 73 73 73 73 72 72 70 69 70 71 71 73 74 75 74 76 74 74 76 76 75 76 76 75 76 75 74
60 56 57 61 63 61 59 60 63 64 66 67 68 71 73 73 75 77 77 77 75 74 73 72 71 71 72 72 70 69 68 70 71 72 75 75 75 76 74 74 75 75 75 76 76 76 74 75 74
60 55 55 60 65 63 59 60 65 66 67 67 68 68 73 71 73 74 75 75 75 73 73 72 71 71 72 72 71 71 70 71 71 72 75 76 76 76 74 74 74 75 75 76 76 75 75 75 74
54 54 54 55 61 62 62 58 60 66 69 69 71 72 74 71 70 72 74 74 74 73 72 72 72 71 72 73 71 71 71 71 71 72 73 75 77 77 77 75 74 75 75 75 76 76 75 74 75
49 65 63 58 53 49 62 48 57 62 64 67 69 69 71 72 73 74 74 74 74 74 75 73 72 71 72 72 72 72 71 70 71 72 73 74 77 77 77 76 76 75 74 75 76 77 75 75 73
60 67 64 61 54 51 55 50 55 61 59 63 67 71 73 74 74 74 75 75 76 76 75 74 72 71 72 72 73 72 71 71 71 72 73 73 75 77 78 77 76 75 74 75 76 76 76 75 75
69 61 58 53 51 44 51 52 50 56 61 64 66 71 73 75 76 77 77 78 78 78 76 74 71 71 71 71 72 71 70 69 71 71 71 72 73 75 76 77 76 75 74 75 76 76 76 76 75
60 49 42 40 42 42 48 51 53 61 66 68 66 71 73 75 75 76 76 77 77 75 75 74 71 70 71 72 71 71 71 71 71 72 71 71 72 73 74 75 75 75 75 76 75 75 76 76 76
54 53 43 38 39 43 49 47 56 63 68 73 72 73 72 73 74 73 75 77 73 76 74 74 71 70 71 72 72 72 72 70 73 73 72 71 74 75 76 76 75 76 76 76 75 75 76 76 76
53 50 55 46 42 44 46 51 59 63 64 69 66 69 71 72 73 72 72 72 71 73 74 72 71 70 70 71 72 72 71 72 71 73 73 71 74 76 76 76 76 76 76 76 75 75 76 76 76
58 60 50 46 40 38 44 46 48 57 57 62 64 65 65 67 69 69 70 69 71 71 72 73 73 71 71 72 72 73 71 72 72 72 72 72 73 75 75 76 76 76 76 76 75 75 75 76 76
55 50 48 48 44 41 39 44 59 60 60 61 63 65 65 66 68 68 70 71 69 70 69 69 69 71 72 72 73 73 74 72 71 72 72 72 72 73 73 74 74 74 74 75 74 74 75 75 75
54 51 50 46 43 41 43 45 62 62 64 63 62 64 64 65 67 68 68 69 69 69 69 68 69 70 69 70 71 72 73 73 73 73 73 73 73 74 72 73 73 73 75 76 75 75 76 75 75

GFSSGP_sfc_temp_114.txt.gz
Temp
85 94 96 89 72 72 68 71 80 78 80 85 88 84 81 80 78 71 93 95 93 94 92 90 82 83 83 83 83 83 83 83 83 83 83 83 83 83 84 84 84 84 84 84 83 84 83 84 84
95 90 85 83 67 62 67 79 76 82 84 88 86 85 83 75 82 85 87 93 95 96 97 93 81 83 83 83 83 83 83 83 83 83 83 83 83 84 84 84 84 84 84 85 84 84 84 84 83
92 89 78 72 63 62 67 79 81 84 86 85 80 87 82 74 85 88 93 94 96 95 95 88 82 83 83 83 83 83 83 83 83 83 83 84 84 84 84 84 84 84 84 84 84 84 84 84 83
90 89 84 65 65 67 73 80 84 83 85 83 83 76 79 86 87 91 94 95 95 94 95 85 83 83 83 83 83 83 83 83 83 83 84 84 84 84 84 84 84 84 84 84 84 84 84 84 83
90 74 63 63 66 72 78 83 85 82 83 81 83 76 74 84 91 93 93 96 95 97 95 90 83 82 83 83 83 83 83 83 83 84 83 85 84 84 84 84 84 84 85 84 84 84 84 83 83
68 72 60 56 64 72 76 80 84 83 83 80 79 78 76 87 90 92 95 96 98 97 97 91 84 83 83 83 83 83 83 83 83 84 84 84 84 84 84 85 85 85 85 85 84 84 84 83 83
72 65 65 61 65 68 72 77 79 81 82 81 86 76 78 84 91 94 95 96 97 97 95 92 92 86 83 83 83 83 83 83 83 83 84 84 84 85 85 85 85 85 85 85 85 84 83 83 83
81 76 65 65 62 63 70 75 81 83 78 88 90 75 72 83 91 94 95 95 96 96 94 91 92 91 92 90 83 83 83 83 83 83 84 84 84 85 85 84 85 85 85 85 85 84 84 83 83
84 70 67 63 61 61 71 74 80 83 81 84 86 87 85 89 92 92 91 92 91 93 94 92 93 93 90 91 88 84 83 83 83 83 83 85 89 90 89 85 85 85 85 85 85 84 84 84 83
79 72 68 73 68 64 70 74 78 79 78 80 84 87 88 89 89 88 88 88 89 89 93 93 96 93 93 90 87 88 90 93 87 90 88 91 89 88 92 88 85 85 85 85 84 84 84 87 97
79 71 76 73 73 69 69 74 82 80 76 81 79 82 85 87 88 89 89 89 89 90 93 94 91 91 93 86 91 91 93 92 90 87 91 90 91 90 93 92 93 92 87 97 94 95 98 94 96
75 79 78 69 71 69 67 75 75 79 82 87 87 87 87 86 89 90 89 89 88 89 91 92 90 88 89 92 93 93 92 92 93 91 90 90 92 91 91 94 92 93 94 92 93 95 92 96 94
80 78 79 72 74 73 73 73 72 78 84 88 88 87 87 89 90 91 91 91 89 88 90 90 90 88 88 87 91 92 91 94 93 92 92 93 92 90 92 91 94 94 97 96 95 95 93 94 95
83 81 79 74 68 68 67 67 72 80 86 85 85 87 89 89 90 90 90 88 88 89 89 90 90 88 88 85 86 89 92 91 93 93 91 90 93 91 92 92 93 94 96 96 95 92 94 94 96
84 77 78 71 66 65 68 63 67 81 85 83 85 87 88 89 90 88 90 89 89 91 90 89 90 90 87 86 88 92 92 94 93 93 90 90 91 89 90 92 94 95 93 93 93 94 96 97 98
81 79 71 69 64 65 67 60 69 81 82 82 84 86 86 87 89 91 91 91 90 92 88 89 93 90 88 88 90 92 93 93 93 94 93 90 89 89 90 93 94 94 96 97 95 96 95 96 96
80 73 69 64 69 67 63 61 66 72 78 82 84 86 86 87 89 90 92 92 91 91 89 89 90 90 89 87 87 89 88 91 93 94 94 90 90 90 93 94 92 91 96 96 97 95 96 94 96
75 76 75 63 67 70 71 65 64 67 75 82 84 85 86 87 88 90 92 93 92 91 89 87 90 88 87 89 86 89 91 92 93 94 94 90 91 90 92 93 92 93 96 96 94 90 94 96 95
81 80 74 73 68 66 68 64 65 65 69 79 81 85 87 88 91 92 92 93 92 91 89 87 85 85 88 87 89 89 89 90 91 93 90 90 90 90 90 94 91 93 94 91 92 95 91 95 96
80 78 74 72 73 69 66 69 73 66 67 82 82 83 86 88 87 90 90 91 92 89 88 87 86 84 84 87 88 91 90 92 92 92 90 91 91 90 90 91 92 90 93 90 90 89 95 95 94
79 77 76 73 74 77 72 63 67 65 70 82 86 87 86 86 89 89 89 90 92 90 88 87 87 85 85 88 86 88 87 89 89 89 90 91 91 91 90 90 92 90 92 93 92 91 89 92 94
76 80 78 75 73 64 77 54 67 64 69 77 84 87 89 90 92 92 91 91 91 91 91 89 87 86 87 86 88 84 83 83 91 90 92 91 90 91 91 90 90 89 94 90 92 94 92 90 92
77 81 79 79 78 73 71 62 62 68 63 66 77 84 90 92 93 92 93 93 93 93 93 91 88 86 88 87 84 87 86 90 92 91 86 88 87 90 91 90 89 89 93 90 91 90 89 95 94
81 79 78 77 77 66 74 73 64 67 71 74 75 78 87 92 93 94 95 93 93 94 93 92 87 85 86 86 86 85 86 87 87 86 83 88 89 90 89 90 89 88 90 90 91 91 89 90 92
80 76 65 63 65 67 76 72 75 80 79 78 77 78 86 91 93 93 93 89 92 92 92 92 87 84 86 86 87 86 86 86 85 86 88 87 88 89 86 87 87 90 89 90 91 88 90 90 92
76 75 65 55 63 69 72 67 73 82 87 85 82 78 87 90 92 93 92 91 83 91 91 90 87 85 86 86 86 87 86 89 89 89 88 92 88 90 88 89 89 90 90 90 89 91 92 91 91
76 72 81 71 77 71 73 75 73 78 80 82 83 81 76 86 89 91 93 93 91 90 90 89 87 86 87 88 86 86 86 85 85 88 88 91 90 92 90 90 89 89 89 89 89 91 89 90 89
81 84 71 74 62 59 69 71 73 71 77 80 81 81 75 81 85 90 91 91 91 80 89 86 89 86 87 89 87 89 87 87 86 85 86 86 89 89 89 89 89 89 89 89 87 90 89 88 91
75 74 77 80 75 67 65 71 81 75 77 81 83 81 80 81 85 86 90 89 88 86 80 87 86 87 88 89 87 88 88 88 87 87 87 87 86 87 87 87 88 88 88 89 87 87 89 87 88
83 78 78 69 66 73 72 67 77 79 78 81 82 81 84 83 87 86 84 85 84 81 79 76 80 87 88 89 88 86 87 88 88 88 89 88 87 87 87 88 87 88 88 88 87 87 90 87 87

GFSSGP_sfc_temp_117.txt.gz
Temp
87 95 99 89 66 71 71 76 86 83 85 93 94 89 83 83 77 71 96 99 98 96 92 90 83 83 83 83 83 84 84 83 83 83 84 84 84 84 84 84 84 83 84 84 84 84 84 83 83
99 96 91 76 64 63 68 83 80 85 90 93 92 89 83 79 90 91 93 98 99 98 97 93 82 83 83 83 84 83 84 84 83 84 83 84 84 84 84 84 84 84 84 84 84 84 84 83 83
94 95 78 70 65 60 68 83 85 88 91 90 88 90 84 82 91 92 98 100 99 89 94 88 83 83 83 83 83 83 83 84 84 84 83 84 84 84 85 85 84 84 84 84 84 84 84 83 83
92 84 81 66 67 73 78 85 88 88 90 90 88 78 87 95 93 96 99 98 90 93 95 85 83 83 83 83 83 83 83 84 84 84 83 84 85 84 84 84 84 84 84 84 84 84 84 83 83
90 84 70 64 67 77 84 88 89 86 86 87 86 80 83 92 98 99 99 99 95 88 95 91 83 83 83 83 84 84 84 84 84 85 85 84 84 84 85 84 85 85 84 84 84 84 84 83 83
70 81 68 65 66 74 82 90 87 88 87 86 82 81 83 95 95 98 101 97 89 94 93 92 83 83 83 83 83 84 84 83 84 84 84 84 84 84 84 85 85 85 85 85 84 84 83 83 83
76 72 67 68 68 68 73 84 86 86 86 85 90 79 86 91 97 100 98 94 94 83 91 92 92 86 84 84 84 84 83 84 84 84 84 84 85 85 85 85 85 85 85 85 85 84 83 83 83
84 76 68 71 67 65 75 79 87 84 80 95 94 78 81 92 98 100 98 93 96 96 92 92 89 93 90 90 84 84 84 84 84 84 84 84 85 85 85 83 85 85 85 85 85 84 84 83 83
90 70 67 68 66 66 76 76 85 89 86 90 92 90 92 96 99 98 94 87 96 97 95 94 93 90 89 90 88 84 84 84 83 85 85 84 94 92 88 85 85 85 85 85 85 84 84 83 83
80 71 71 77 76 72 77 79 80 83 84 85 89 92 94 96 95 94 94 93 94 94 89 92 94 92 87 92 89 90 89 93 90 89 90 91 85 86 93 88 85 85 85 85 85 85 85 85 96
82 72 78 78 77 75 75 77 87 83 78 86 84 87 92 93 93 94 94 94 93 94 90 92 89 87 91 90 92 92 93 92 92 90 84 89 91 92 94 92 92 92 88 89 91 92 96 97 98
76 82 83 73 73 75 75 84 82 83 83 92 91 91 92 91 93 94 94 94 93 91 89 91 89 83 91 92 84 97 96 95 94 94 86 90 91 94 94 94 94 94 95 94 96 95 95 97 97
76 83 82 77 74 73 78 76 80 83 89 93 92 91 91 93 94 96 96 96 94 92 93 93 90 85 90 80 95 95 94 97 95 94 90 88 94 92 94 91 88 96 95 96 96 95 96 96 97
87 82 82 78 72 72 75 75 82 86 92 90 90 90 93 93 94 94 94 93 93 92 92 93 92 90 89 90 91 93 92 94 95 95 94 94 95 93 93 92 94 88 84 93 96 93 96 96 97
90 74 79 73 68 65 74 69 75 87 90 88 89 91 93 93 95 92 93 92 94 90 93 93 92 93 86 87 91 94 94 97 96 93 92 93 93 91 91 90 87 92 94 93 94 94 96 98 98
85 83 66 65 65 65 68 59 69 87 87 86 89 90 91 92 94 94 95 94 95 89 91 93 97 93 86 87 93 95 97 97 96 95 94 92 91 91 90 86 90 96 95 97 98 97 97 98 97
83 71 66 60 68 65 63 60 73 86 87 86 88 90 90 91 93 94 95 95 95 88 87 87 93 91 89 90 92 93 92 95 96 95 94 91 91 92 88 90 93 91 96 98 98 97 97 95 97
74 75 72 60 66 66 61 62 70 78 84 85 88 89 89 90 92 94 95 96 96 93 85 85 89 90 89 89 89 86 92 89 97 96 88 92 93 92 90 93 93 90 96 94 95 91 96 97 96
84 81 69 66 68 64 60 61 69 71 70 79 87 88 90 90 92 95 96 96 96 94 85 89 86 88 86 88 86 86 81 83 84 95 92 91 92 92 91 88 92 85 91 91 93 93 92 96 97
84 81 65 68 66 61 61 65 71 67 69 80 83 85 87 89 89 91 91 94 95 93 91 83 86 87 86 90 79 85 82 85 83 84 92 93 92 91 92 87 91 85 93 92 91 90 94 96 96
83 76 67 67 64 66 66 62 65 69 68 70 80 85 87 85 90 85 88 92 92 90 91 90 86 86 87 87 90 90 86 86 88 85 91 89 92 93 93 91 88 92 91 92 92 93 91 93 94
77 84 71 70 67 59 73 56 63 64 64 67 71 82 86 90 86 92 89 91 95 94 94 92 89 86 86 87 86 84 87 87 81 86 83 87 90 91 93 91 91 90 83 91 92 95 92 90 93
78 87 67 62 73 56 69 64 66 67 61 63 70 80 83 87 88 95 95 92 94 96 95 93 90 87 85 84 85 88 86 90 92 82 87 86 89 90 93 92 90 90 93 92 91 91 90 94 92
87 84 82 78 77 62 67 71 63 59 62 70 79 85 90 90 94 93 94 94 91 98 97 94 89 87 87 86 87 86 88 85 86 87 89 91 90 91 91 92 90 90 90 91 92 91 90 89 91
83 79 63 62 64 64 76 75 67 76 78 80 79 86 92 95 94 95 93 89 92 94 96 94 89 85 87 88 88 88 88 88 86 87 89 91 92 91 88 90 89 90 89 91 92 90 91 91 90
80 78 66 57 65 71 80 72 73 86 88 87 85 87 87 90 96 97 92 88 92 91 95 94 88 85 87 88 88 88 88 90 91 89 81 92 93 93 89 90 90 89 90 91 90 92 92 92 91
80 72 85 73 79 64 68 75 83 89 86 87 85 83 83 88 92 96 95 95 91 94 87 93 89 87 88 89 86 87 87 88 89 86 90 91 89 92 90 90 89 91 91 91 90 91 90 90 90
84 88 74 75 63 63 67 60 72 78 82 86 84 87 86 89 84 96 92 85 94 92 90 92 91 88 89 91 89 89 88 88 89 89 87 88 88 90 89 90 90 90 90 89 89 91 91 89 91
79 78 80 80 79 66 68 63 84 81 84 84 87 87 87 81 70 82 94 92 77 94 92 92 91 89 90 91 91 90 91 90 89 89 88 89 89 88 89 89 89 89 89 90 88 87 89 88 88
86 81 82 72 69 78 72 65 78 86 88 87 87 87 86 83 77 87 90 85 90 87 84 82 90 90 91 91 89 89 90 91 90 89 90 90 87 86 88 89 88 89 90 89 88 88 91 89 88

GFSSGP_sfc_temp_123.txt.gz
Temp
81 83 81 74 62 60 59 72 79 75 75 83 85 80 77 80 71 58 82 82 82 80 81 83 82 83 83 83 83 83 83 83 83 83 83 83 83 83 83 84 84 84 84 84 84 84 83 84 83
83 87 80 68 58 55 62 76 74 75 79 84 82 79 75 71 81 79 78 83 83 82 80 81 82 83 83 83 83 83 83 83 83 83 83 83 83 84 84 84 84 84 84 84 84 84 84 84 84
82 87 66 62 59 57 62 76 77 80 85 82 79 83 79 73 82 82 84 85 85 81 80 81 83 83 83 83 83 83 83 83 83 83 83 83 84 84 84 84 84 84 84 84 84 84 84 83 83
82 74 68 59 60 67 70 78 81 80 82 83 82 75 83 88 83 86 86 83 81 79 80 82 83 83 83 83 83 83 83 83 83 83 84 84 84 84 84 84 84 84 84 84 84 84 83 83 83
82 71 60 58 57 63 73 80 83 79 80 79 81 74 74 85 88 87 84 83 78 78 80 81 83 83 83 83 83 83 84 84 83 83 84 84 84 84 84 85 85 85 84 84 84 84 84 83 83
67 70 59 55 58 65 73 78 82 79 81 80 77 75 74 85 85 86 85 82 82 80 80 81 83 83 83 84 83 83 84 84 83 83 84 84 84 84 84 85 85 85 84 84 84 83 83 83 83
70 63 61 60 60 61 73 78 76 79 78 78 82 72 76 83 88 86 83 85 82 82 80 79 79 83 84 83 84 84 84 84 83 83 83 84 84 84 84 85 85 85 84 84 84 83 83 83 83
75 67 62 60 57 60 75 77 79 80 77 87 85 71 69 81 86 84 83 81 81 82 80 79 77 78 77 80 84 84 84 84 84 84 84 84 84 85 85 83 84 85 85 84 84 83 83 83 83
86 63 60 61 60 64 73 75 82 86 82 84 87 82 80 86 85 82 78 78 75 81 80 78 79 76 78 78 82 83 84 84 84 83 84 82 78 79 81 83 85 85 85 85 84 84 83 83 83
76 62 65 69 73 69 76 78 79 76 77 80 81 84 85 86 83 78 77 73 73 75 75 75 79 80 80 84 77 77 80 77 77 76 78 76 76 77 82 83 85 85 85 85 85 84 84 84 80
77 67 76 73 77 75 76 77 83 76 71 80 78 82 85 85 84 81 77 74 74 75 78 77 78 79 77 79 76 76 76 76 77 77 76 78 78 77 77 76 79 77 82 80 83 82 79 80 80
69 73 77 74 73 71 72 81 72 74 76 85 85 86 85 83 83 84 77 76 78 73 80 81 79 80 76 78 75 76 76 77 76 78 78 75 76 76 76 76 74 74 75 74 76 77 79 79 79
71 73 77 74 75 72 74 74 71 70 84 89 88 88 85 85 85 82 80 78 78 76 77 77 79 77 78 79 80 78 75 78 75 75 76 76 78 74 71 72 71 73 74 74 77 79 82 81 84
69 70 74 77 73 72 73 71 76 75 86 86 86 83 86 86 84 81 78 76 77 80 78 79 79 78 80 79 78 78 76 73 73 73 74 78 77 76 72 72 72 73 74 77 80 78 79 79 82
71 66 71 70 69 68 72 69 68 80 84 83 84 83 84 84 87 84 81 80 81 80 80 78 79 81 79 79 80 80 80 76 73 72 76 79 77 76 72 71 72 73 74 79 79 80 79 79 82
69 67 57 64 67 67 69 60 71 79 82 80 82 84 85 86 86 85 83 82 82 80 78 81 86 80 78 78 78 78 81 76 76 76 80 80 79 76 73 73 72 75 79 81 78 77 78 77 76
61 53 57 59 67 67 67 62 71 75 82 79 81 82 84 85 85 84 84 83 82 81 78 80 81 79 78 78 78 80 77 81 78 78 79 81 80 75 74 73 74 76 77 74 78 78 80 75 75
61 60 63 58 63 65 64 64 68 71 80 79 80 82 81 83 81 85 84 84 82 82 79 81 79 79 77 78 78 79 81 76 78 78 78 80 78 76 73 73 74 72 74 75 78 79 80 73 74
74 65 62 61 65 62 60 62 65 68 72 77 77 81 80 81 82 85 85 84 82 79 78 76 74 75 75 73 72 74 75 76 75 78 80 80 78 78 73 76 77 73 73 75 79 79 77 74 73
68 65 58 61 64 62 59 61 65 67 67 74 77 81 80 82 81 83 83 83 82 77 78 75 75 75 74 72 72 73 77 76 79 77 79 80 80 79 79 77 74 73 73 75 80 78 76 76 75
64 60 60 58 63 64 60 56 58 66 67 72 74 80 81 82 80 79 80 80 80 76 77 75 74 74 73 74 73 73 73 73 73 75 76 78 81 82 81 79 76 73 72 74 76 77 76 74 77
60 64 68 61 59 51 61 48 56 61 65 67 71 76 78 82 83 82 78 79 79 78 79 77 75 74 72 71 71 71 71 70 73 76 76 79 80 80 82 80 76 75 70 73 75 82 77 76 73
61 64 63 64 57 55 56 52 56 61 60 65 69 74 76 82 83 82 82 80 81 81 80 79 75 74 74 72 72 70 71 72 73 74 77 78 77 80 81 80 78 75 74 74 75 78 77 76 74
76 63 62 60 55 48 54 53 54 56 60 67 71 72 76 77 83 84 83 84 82 82 82 80 77 74 75 74 73 72 73 74 72 72 74 75 76 77 81 80 79 78 76 76 76 77 78 77 75
72 59 45 43 46 45 56 53 59 68 70 71 71 72 75 81 80 82 80 81 82 83 80 79 77 75 75 75 75 75 73 73 73 73 74 73 73 75 77 78 77 77 77 78 77 77 77 77 76
67 65 53 43 44 50 60 54 60 74 76 74 78 75 76 78 80 80 81 78 81 83 80 79 76 75 76 76 75 74 74 72 72 73 73 74 77 77 78 77 78 78 79 78 77 77 77 77 76
66 60 73 55 53 47 52 58 66 75 72 74 74 76 75 78 80 81 81 82 78 81 81 78 77 75 76 76 75 76 75 75 74 75 76 76 78 82 78 79 78 78 78 78 77 76 76 77 77
69 72 56 57 47 43 52 55 56 61 62 68 73 74 76 78 79 81 80 79 79 82 82 80 79 77 77 77 76 77 75 76 76 76 76 77 77 78 78 77 78 78 78 78 77 76 76 76 76
65 61 60 60 59 52 46 52 64 62 66 64 66 71 76 78 80 81 81 81 80 80 80 79 78 77 76 77 76 76 76 77 76 76 78 78 77 77 76 76 77 78 78 78 76 76 77 76 76
71 66 63 52 53 58 56 54 70 67 66 67 65 69 70 80 81 78 79 80 80 74 77 78 78 78 77 77 76 76 76 77 77 76 78 78 77 77 77 77 77 77 77 77 76 76 78 76 76

GFSSGP_sfc_temp_129.txt.gz
Temp
80 81 79 71 60 59 56 63 73 69 71 76 79 75 69 69 66 56 72 75 77 77 78 81 81 82 82 82 82 82 83 83 82 83 83 83 83 83 83 83 82 83 83 84 83 83 84 83 83
79 82 74 66 57 52 57 69 68 70 74 78 77 75 70 63 71 68 70 77 78 77 76 78 81 82 82 82 83 82 83 83 83 83 83 83 83 83 83 83 83 83 84 84 84 84 84 84 83
81 83 66 61 56 53 57 71 70 74 79 77 73 76 72 65 71 72 75 78 78 75 76 78 82 82 82 83 83 82 83 83 83 83 83 83 84 84 84 84 84 84 84 84 84 84 84 84 83
76 72 68 59 58 61 63 70 73 74 76 76 73 66 74 78 75 75 78 78 75 75 77 81 83 83 83 83 83 83 83 83 83 83 84 83 84 84 84 84 84 84 84 84 84 84 84 84 84
73 68 58 57 57 64 69 75 75 72 73 73 74 67 67 75 77 77 77 77 74 74 76 79 83 83 83 83 83 83 84 83 83 83 84 84 84 84 84 84 84 84 84 84 84 83 84 84 84
66 66 57 55 58 65 70 77 75 72 72 72 69 68 65 75 75 76 77 75 76 75 76 79 82 83 83 83 83 83 83 83 83 84 84 84 84 84 84 84 84 84 84 84 84 83 83 83 84
65 62 58 59 58 62 67 79 72 71 71 71 75 63 66 71 75 76 74 75 75 75 75 75 77 81 83 83 83 83 83 83 83 83 83 84 84 84 84 84 84 84 84 84 84 84 83 83 84
70 65 59 61 58 58 68 74 76 72 70 79 78 63 63 70 72 74 75 72 72 73 74 73 73 75 76 78 83 83 83 84 83 83 84 84 84 84 84 82 84 84 85 85 84 84 83 83 83
76 61 56 59 59 60 67 73 78 80 74 77 79 74 74 75 75 73 71 71 71 74 72 72 72 73 74 76 81 82 83 84 83 82 83 80 75 76 78 82 84 85 85 85 84 84 84 84 83
68 59 61 66 69 64 69 73 73 74 73 71 72 76 77 76 74 70 70 69 69 70 71 72 72 73 74 80 75 74 78 76 75 75 74 73 73 74 79 80 84 84 84 84 84 84 84 82 77
72 64 67 68 68 70 69 73 77 72 67 71 67 70 74 73 72 70 71 71 70 72 73 72 72 72 73 73 72 73 73 73 73 74 73 73 73 73 73 71 73 75 81 76 79 78 77 77 76
66 72 71 70 68 69 65 72 73 75 73 77 75 75 74 72 72 72 72 73 71 71 73 72 73 72 72 72 72 72 73 74 73 73 73 71 71 72 71 70 72 72 72 75 73 74 76 76 76
67 70 71 70 71 70 70 67 72 74 77 79 78 76 74 74 74 75 75 74 73 71 73 72 73 72 72 72 72 72 72 72 73 73 73 72 71 70 71 70 69 69 71 72 73 74 75 75 76
73 72 69 68 68 71 70 66 69 73 78 77 76 75 75 75 75 72 74 72 72 73 73 73 73 72 73 72 72 72 71 72 72 72 73 73 71 71 71 71 71 70 70 73 73 73 74 74 76
72 65 68 64 65 69 72 66 66 76 77 75 75 75 75 78 76 73 75 74 74 74 73 74 73 73 73 73 73 72 73 72 70 71 73 74 72 70 70 70 70 72 73 73 74 73 74 72 76
65 63 57 61 66 67 68 57 67 77 76 73 75 75 77 77 75 76 78 75 75 74 73 74 81 75 72 72 72 71 73 72 71 71 72 74 73 72 69 71 72 72 73 73 74 73 74 72 71
59 54 58 59 65 66 64 59 65 72 77 73 74 75 75 74 74 76 78 77 76 74 73 74 76 74 73 72 71 72 72 69 70 72 72 73 74 73 72 72 72 72 72 73 75 73 73 72 71
52 54 59 58 61 65 63 59 64 69 73 75 76 75 73 72 73 77 77 78 76 74 75 74 74 73 73 73 72 72 70 71 71 71 72 73 74 74 72 72 72 71 72 73 74 74 72 71 71
64 58 58 61 63 61 60 60 61 65 70 73 70 71 71 72 76 79 78 78 76 75 73 72 72 71 71 70 69 69 72 70 71 72 74 74 75 74 72 72 72 71 72 73 75 73 73 71 69
62 59 59 58 63 60 58 60 63 64 66 68 69 73 72 73 75 75 76 76 75 75 74 72 72 71 71 70 70 70 71 71 72 73 73 73 74 75 75 73 70 72 72 75 75 73 72 72 68
59 57 59 58 61 62 60 57 58 64 66 68 68 75 75 74 72 73 74 74 76 74 73 72 71 71 71 71 70 70 70 70 71 72 72 74 75 76 76 74 72 72 71 72 73 74 73 70 69
55 67 63 60 56 51 61 46 54 60 62 65 67 68 73 73 74 74 74 73 75 76 76 73 71 71 71 71 71 71 69 68 70 71 72 74 75 75 76 75 73 71 69 72 73 76 73 72 69
59 68 63 62 56 55 54 48 52 59 59 63 64 68 72 75 75 74 74 75 76 77 76 74 71 70 70 70 70 70 68 68 70 70 72 72 73 75 76 75 74 72 71 73 73 74 73 72 70
68 61 59 56 53 46 53 52 53 55 63 67 66 67 72 74 75 76 77 76 75 76 76 74 71 70 70 69 70 70 70 69 69 70 70 71 71 73 75 75 74 73 73 73 73 73 73 73 70
60 49 44 43 45 45 54 52 54 65 69 72 70 68 71 76 75 74 73 74 73 74 75 74 72 70 70 70 69 70 70 70 70 70 70 70 70 71 73 74 73 73 74 74 73 73 73 73 72
56 50 48 40 41 47 55 49 58 71 73 76 77 75 75 76 76 75 74 74 74 75 74 75 71 70 70 70 70 70 70 69 70 70 70 70 72 73 74 74 74 74 75 74 74 72 73 73 72
59 53 62 50 49 48 50 56 63 69 70 71 75 75 73 75 76 74 75 75 74 75 74 74 71 70 70 70 70 70 70 70 70 71 71 71 72 75 74 75 74 74 75 74 73 71 73 72 72
62 66 53 49 42 40 48 49 51 60 63 65 68 72 73 75 75 75 75 75 75 76 76 76 74 72 72 71 71 72 71 71 71 70 71 72 73 73 74 74 74 74 74 74 73 72 73 73 72
57 53 54 53 51 45 43 49 62 63 65 64 68 71 73 74 73 74 76 76 76 76 75 75 73 71 71 71 71 72 72 72 72 72 72 73 73 73 73 72 73 74 74 73 73 72 73 73 72
57 56 55 50 49 49 52 55 63 62 64 64 65 67 71 74 75 74 74 75 72 73 74 74 73 73 74 72 71 71 72 73 72 72 72 73 73 73 73 73 73 73 74 73 72 73 75 73 73

GFSSGP_sfc_temp_132.txt.gz
Temp
80 80 78 71 60 58 54 61 70 65 66 73 76 72 66 66 64 55 70 73 76 75 77 80 82 82 82 82 82 83 83 83 83 82 83 83 83 82 82 82 82 83 83 83 83 84 83 83 83
78 79 73 65 57 51 54 67 65 68 72 75 74 72 68 62 69 66 68 75 76 76 76 78 81 82 82 82 82 83 82 83 83 83 82 83 82 82 83 83 83 82 82 82 83 83 82 82 83
80 82 66 61 57 52 54 66 68 72 76 73 70 74 70 65 69 70 73 76 76 74 75 78 82 82 82 83 83 83 83 83 83 83 83 83 83 83 83 83 83 83 82 83 83 83 83 83 83
76 71 68 58 56 60 63 68 73 72 74 73 71 65 71 75 73 73 76 76 74 74 76 80 82 83 83 83 83 83 82 83 82 83 83 83 83 82 83 83 83 84 83 83 83 83 84 84 84
74 67 58 56 58 64 69 72 73 70 71 71 72 64 65 72 75 75 75 75 73 73 76 79 82 83 83 83 83 83 83 83 83 83 83 84 84 84 83 84 84 84 84 83 83 83 83 84 84
65 66 57 55 58 65 70 74 72 70 69 70 67 65 65 73 73 74 75 73 74 74 76 78 82 83 83 83 83 83 83 83 83 83 83 82 83 83 84 84 84 84 84 84 83 83 83 84 83
64 61 57 58 58 63 67 74 69 71 69 69 73 62 67 69 73 74 72 73 74 75 75 75 77 81 82 83 83 83 83 83 83 83 83 83 83 84 84 84 84 85 85 84 84 83 83 83 83
67 64 60 59 58 57 65 71 75 71 67 76 75 62 62 70 72 73 72 71 72 73 74 73 74 76 77 78 83 83 83 83 83 83 83 83 84 83 83 82 84 85 85 85 84 84 83 83 83
75 60 56 60 59 61 69 68 75 77 72 75 76 71 71 71 73 71 69 70 71 73 71 72 73 74 75 76 80 82 83 82 83 82 82 78 75 77 78 83 85 85 85 85 85 84 84 82 83
66 60 62 68 66 63 68 70 71 71 69 68 68 71 71 72 71 69 67 67 69 71 71 71 72 73 75 79 75 75 76 74 74 75 74 74 74 77 79 78 82 82 84 83 83 84 83 81 79
68 62 68 68 71 70 69 70 77 69 64 69 65 66 69 71 70 69 69 69 69 70 72 71 72 73 74 74 73 73 74 75 74 74 74 74 74 74 73 72 74 74 78 76 78 78 78 79 78
63 70 69 70 71 69 65 73 71 73 71 74 72 71 71 69 69 69 70 69 69 70 71 71 72 72 73 73 73 72 74 74 74 75 74 73 72 73 72 72 72 72 73 74 75 77 77 78 78
65 68 70 69 71 68 67 67 69 73 74 76 74 73 71 70 70 71 73 72 70 69 71 71 72 72 72 72 72 72 73 73 74 74 75 74 73 72 72 72 72 73 73 74 76 76 77 77 78
70 70 67 67 68 70 63 66 66 72 75 73 72 71 71 71 71 71 71 70 70 71 71 72 72 72 72 72 72 72 72 73 73 74 74 75 73 73 73 73 73 73 74 76 76 76 76 75 77
69 63 66 64 65 65 66 61 62 74 74 71 71 71 72 73 74 72 73 72 72 72 73 72 72 73 72 72 73 73 73 73 72 73 75 75 75 73 73 72 73 75 75 77 77 75 76 76 78
63 62 56 61 65 65 67 56 64 74 73 69 70 72 73 72 73 74 75 74 73 72 72 73 78 74 72 72 72 72 73 73 72 72 74 76 75 74 73 74 73 73 75 76 76 76 75 74 75
58 52 56 57 65 64 64 57 64 70 73 69 71 71 73 73 73 73 76 75 73 73 72 72 74 73 73 72 72 73 72 71 71 72 73 74 75 75 74 74 74 74 75 76 77 75 76 75 75
50 52 58 56 61 65 60 58 64 66 72 71 71 72 72 70 72 74 75 75 74 73 73 73 73 72 72 71 70 71 70 70 72 73 74 75 76 75 74 73 73 74 76 76 77 76 73 74 73
59 56 56 59 62 59 58 59 63 66 67 68 70 70 70 71 74 75 75 76 74 73 72 71 71 71 71 70 69 70 70 71 72 73 74 75 74 76 75 71 73 74 74 76 77 76 74 73 73
60 56 53 58 62 61 58 59 62 64 64 68 71 70 71 69 70 74 73 74 73 72 72 71 71 71 71 71 70 71 71 72 73 74 74 75 76 76 76 73 74 75 74 76 76 76 75 74 70
55 57 55 57 61 61 60 54 58 62 64 68 69 73 72 70 70 72 72 73 73 72 72 71 70 71 71 72 71 70 71 72 72 73 73 75 75 77 77 76 75 74 74 75 76 77 76 74 72
49 65 63 60 56 51 61 46 53 59 61 65 67 69 71 71 73 72 72 72 73 74 73 72 71 71 71 71 71 71 70 69 71 72 73 75 76 77 77 76 75 74 74 76 76 78 76 75 73
58 66 62 61 55 53 54 50 53 58 57 62 64 67 71 73 73 72 73 74 75 76 74 73 71 70 71 71 71 71 70 71 71 72 73 74 75 77 77 76 76 74 76 76 77 76 76 75 74
66 60 57 56 53 46 53 50 49 54 59 64 65 66 70 71 73 74 75 76 74 76 74 73 71 70 70 71 71 71 70 70 70 71 72 72 73 75 77 77 76 76 76 77 76 76 77 75 74
58 50 40 40 43 44 52 50 56 64 67 67 68 67 69 73 73 72 72 74 73 73 74 73 71 70 70 70 71 71 71 71 71 71 72 71 72 74 74 75 75 76 76 76 77 77 77 77 77
54 49 42 39 40 45 55 49 56 69 72 72 74 71 72 73 74 73 73 73 73 73 73 73 71 70 70 70 70 71 71 70 71 72 71 72 73 75 76 76 76 76 76 77 76 76 77 77 77
56 49 56 49 50 47 51 55 63 69 70 70 73 72 70 72 75 73 74 74 73 74 73 73 71 71 71 71 70 70 71 71 71 72 72 72 74 76 76 76 76 76 76 76 76 75 76 77 76
59 61 51 51 43 42 47 49 52 62 64 67 69 73 72 73 74 74 74 74 74 75 74 74 73 72 72 72 72 72 71 71 72 72 72 72 74 74 75 75 76 75 76 76 75 75 76 76 76
56 52 52 54 52 44 43 48 61 62 64 67 68 71 73 72 73 74 74 74 74 74 74 73 73 71 71 72 71 72 72 72 72 71 72 73 74 74 74 74 75 75 75 76 75 74 75 75 75
55 50 50 49 49 49 50 53 60 60 64 66 66 68 71 72 74 76 75 75 73 72 73 73 73 73 73 73 72 72 73 73 73 73 73 74 73 75 75 75 74 75 76 75 75 75 77 75 75

GFSSGP_sfc_temp_135.txt.gz
Temp
84 85 81 74 65 70 64 66 75 72 72 79 81 77 73 72 69 67 82 84 85 86 86 86 82 82 82 82 82 83 83 83 82 83 83 83 82 83 82 83 83 84 83 83 84 83 83 83 82
86 82 77 68 61 62 63 72 71 75 79 81 79 77 73 67 73 75 79 83 86 86 88 87 81 82 83 82 83 82 83 83 83 82 83 83 83 83 83 83 83 83 82 83 82 83 83 83 83
84 82 67 68 64 59 63 72 74 78 80 78 74 79 73 68 75 78 83 84 86 84 86 84 82 82 82 83 83 83 83 83 83 83 83 83 83 83 84 83 82 82 83 82 83 83 83 83 84
81 77 71 60 62 65 68 73 77 77 78 78 77 70 75 81 79 81 84 85 85 86 87 84 83 83 83 83 83 83 83 83 83 83 83 83 83 84 84 83 83 84 83 82 82 83 84 84 83
81 76 62 58 63 68 75 77 78 76 75 75 76 68 70 77 82 83 83 85 85 87 88 86 82 83 83 83 83 83 83 83 83 83 84 84 84 84 84 84 84 84 84 83 83 84 84 84 83
73 73 61 58 61 69 74 78 76 75 75 74 73 73 71 79 80 82 85 85 87 86 87 87 83 83 83 83 83 83 83 83 83 83 83 83 83 84 84 84 84 84 84 84 84 84 84 83 83
68 64 62 60 61 65 68 78 75 75 75 73 79 71 70 74 81 83 84 85 86 86 86 86 87 85 84 83 84 83 83 83 83 83 84 84 84 84 84 84 85 85 85 84 84 84 83 83 83
70 70 61 59 59 62 70 75 78 75 71 81 82 68 66 73 78 82 83 84 85 85 85 84 84 86 87 87 84 84 83 83 83 83 83 83 84 84 83 83 85 85 85 85 84 84 84 83 83
76 63 61 60 59 63 70 72 78 80 76 78 79 78 80 78 80 81 79 79 79 82 84 86 86 85 84 82 86 84 83 83 83 83 81 83 87 87 88 84 85 85 85 85 85 84 83 83 83
75 67 66 71 65 65 70 73 74 74 74 71 73 77 78 79 79 77 78 78 79 78 81 83 84 86 86 86 84 84 80 83 84 84 84 85 84 84 86 83 82 83 82 83 83 83 83 86 90
75 68 71 71 70 70 69 72 79 75 70 74 73 73 77 78 78 78 79 79 80 79 82 83 83 84 85 84 85 84 86 86 84 83 84 84 85 85 84 86 87 86 84 90 90 90 91 89 90
71 74 75 72 72 70 67 74 73 75 75 81 80 78 77 77 78 80 80 80 79 77 81 81 82 81 82 84 84 85 86 86 87 86 83 84 87 84 84 86 86 85 87 86 87 90 88 89 88
73 71 73 74 71 70 68 70 70 75 79 81 79 78 77 79 79 81 83 83 81 79 81 81 81 81 82 81 84 84 84 86 86 86 85 86 86 84 85 84 86 86 88 90 88 89 89 89 90
74 72 72 72 71 69 66 65 66 74 79 77 77 77 78 79 80 80 81 80 80 81 81 82 82 81 82 82 81 83 84 85 86 86 86 83 86 85 87 86 87 87 89 90 89 88 89 89 90
75 69 71 70 71 67 66 60 62 75 78 76 76 77 78 79 81 80 82 81 82 82 82 82 82 82 81 82 83 84 85 86 86 87 85 85 84 84 82 86 87 87 87 87 88 87 89 90 91
71 71 64 64 68 65 63 55 65 72 76 76 76 76 77 78 81 82 82 83 83 83 81 82 85 83 82 82 83 85 86 86 86 86 87 86 85 83 83 87 86 85 88 89 90 90 89 90 90
68 62 63 61 68 65 62 57 64 69 74 75 76 77 78 79 81 82 84 84 83 83 82 82 83 83 82 81 83 84 82 84 84 86 86 84 84 83 85 86 85 84 88 88 90 87 89 88 88
63 63 63 60 61 66 64 58 63 66 69 74 77 77 78 79 81 83 84 85 84 84 83 82 83 82 81 82 81 83 83 84 85 85 86 84 86 84 86 85 86 88 89 89 88 85 86 87 86
70 67 62 60 65 61 57 60 62 64 66 70 74 78 79 81 84 84 84 84 84 84 82 82 81 80 81 81 80 81 82 82 84 84 83 83 84 84 84 87 87 88 88 86 86 87 85 86 86
70 66 61 63 66 66 58 59 65 63 65 70 76 78 80 81 82 81 82 83 83 82 82 81 81 80 80 82 82 84 83 84 86 85 84 84 85 85 86 84 87 84 88 86 86 87 88 87 84
69 66 63 65 65 66 63 57 61 63 65 66 74 79 82 81 81 81 81 82 83 81 81 81 80 80 81 81 81 80 82 82 83 83 84 86 84 86 85 85 86 85 88 88 86 86 85 86 84
66 72 69 65 64 57 63 50 59 60 61 65 69 79 81 82 83 84 83 82 83 83 83 82 81 80 81 81 81 78 82 81 84 85 85 86 85 85 86 85 85 84 88 85 86 88 86 86 86
67 72 69 66 63 60 59 57 63 65 59 61 70 73 81 84 83 84 84 84 85 85 83 83 81 80 81 80 81 83 82 82 85 84 82 83 83 84 86 86 85 85 89 86 85 86 84 88 87
72 68 66 65 61 53 58 58 59 61 64 68 67 73 79 83 83 85 85 86 85 86 84 84 80 79 80 80 80 80 81 81 83 83 83 84 86 86 85 85 85 85 86 86 87 86 85 86 85
70 68 54 54 53 51 61 53 62 73 73 75 68 76 79 82 83 83 82 82 83 83 83 83 80 78 79 80 81 81 81 81 80 80 83 84 85 86 84 84 84 86 85 86 86 85 85 86 87
68 70 61 48 47 52 60 55 66 75 80 78 79 76 76 81 82 82 82 83 83 83 82 82 80 79 80 80 80 80 81 84 84 83 86 86 87 87 85 85 85 85 86 85 85 87 88 86 88
65 62 70 61 59 54 58 64 73 76 74 71 76 76 77 80 82 81 83 85 84 83 82 82 81 79 80 81 80 80 80 81 83 82 83 86 84 87 85 85 85 85 85 85 84 86 85 85 85
71 75 61 63 51 48 54 58 63 69 72 68 73 72 80 81 82 82 83 83 84 85 84 83 82 80 81 82 81 82 81 81 81 82 81 82 84 83 84 84 84 85 85 84 83 85 85 84 87
68 67 67 68 63 56 53 59 66 66 68 72 71 73 79 81 81 78 82 83 83 84 84 83 82 81 81 82 82 81 81 82 81 82 82 82 82 82 82 83 84 84 84 84 82 83 84 83 84
70 68 69 63 59 59 59 62 67 66 68 72 72 74 77 82 83 81 82 82 82 80 81 81 82 82 82 83 81 81 82 82 82 81 82 82 82 82 83 83 82 83 84 83 82 83 86 83 83

GFSSGP_sfc_temp_138.txt.gz
Temp
86 94 95 81 74 81 72 74 84 79 80 86 87 85 82 81 77 69 93 94 94 94 92 90 82 83 83 82 82 83 83 83 83 83 83 83 83 82 83 83 83 83 83 83 82 83 83 83 84
96 90 90 68 71 70 71 80 79 82 86 89 86 84 83 76 84 85 87 92 95 96 97 93 81 83 83 83 83 83 83 83 83 83 83 83 83 83 83 83 84 83 83 83 83 83 82 82 83
92 86 73 75 76 70 70 80 83 85 88 85 80 87 82 77 86 87 92 94 95 95 94 88 82 83 83 83 83 83 83 83 83 83 83 83 83 84 83 83 83 83 83 84 83 83 81 82 83
90 82 73 64 71 73 77 82 85 84 86 85 85 77 83 90 87 91 94 95 95 95 95 85 83 83 83 83 83 83 83 83 83 83 83 84 84 84 83 84 84 83 83 83 82 83 83 83 83
92 86 68 63 69 77 82 85 86 81 82 82 84 77 78 86 92 93 93 96 96 97 95 91 83 83 83 83 83 83 83 83 83 83 83 83 84 84 84 84 84 83 83 84 85 84 84 83 83
80 85 69 60 69 73 80 85 84 82 82 82 81 80 79 89 90 92 95 96 98 96 96 92 83 83 83 84 84 84 83 83 83 83 83 84 84 84 84 85 85 84 84 84 84 83 83 83 83
75 76 67 63 68 69 75 85 82 82 82 82 87 79 80 87 92 94 95 96 98 97 93 92 92 86 84 84 84 83 83 84 84 84 84 84 84 84 85 85 85 84 84 85 84 83 84 83 83
84 84 67 61 65 66 76 81 84 83 79 89 90 76 76 87 91 94 95 95 96 96 94 90 90 87 92 91 84 84 84 84 84 84 84 84 84 84 85 84 85 84 85 85 85 84 84 84 83
79 69 67 64 60 68 75 78 83 85 82 85 86 87 88 89 91 92 91 92 91 93 95 97 94 93 90 92 88 85 84 84 83 84 83 87 95 94 92 85 85 86 85 85 85 84 84 84 83
84 72 71 77 68 71 75 80 79 80 80 79 84 89 88 88 89 87 88 88 89 89 92 94 96 93 92 95 89 87 91 93 92 90 90 92 90 90 92 87 83 84 84 84 84 84 84 86 97
83 73 78 76 72 74 76 78 83 81 77 82 80 83 86 87 88 88 89 89 89 89 92 94 92 92 93 91 85 90 94 93 91 88 89 90 93 93 95 94 96 96 86 98 94 93 98 95 97
80 80 80 77 75 73 72 79 79 82 82 87 88 88 87 87 89 89 90 90 88 87 89 91 91 88 88 92 93 94 93 94 94 92 90 91 94 92 93 95 95 95 96 94 95 96 94 96 96
81 79 82 78 77 74 74 71 76 80 85 90 89 88 87 88 89 91 92 92 89 87 89 89 90 88 86 88 92 93 92 95 94 94 92 94 94 91 94 92 95 94 98 97 96 96 96 96 97
83 80 81 80 76 70 69 67 75 81 88 86 86 86 88 89 89 89 90 89 89 89 89 90 90 89 89 89 88 90 93 92 94 94 92 90 94 92 94 94 96 96 97 97 97 96 96 97 97
84 77 78 76 75 70 69 62 68 82 86 84 84 86 87 88 89 88 90 89 89 90 90 89 90 90 88 87 89 92 93 95 94 94 91 91 92 90 92 94 96 96 95 94 94 95 96 98 98
80 80 69 68 71 68 69 58 67 78 81 83 84 85 86 87 89 90 91 91 90 91 88 89 93 90 88 88 89 93 94 94 94 95 95 92 90 89 92 95 94 94 96 97 96 97 97 97 97
77 73 69 63 71 65 62 58 67 75 77 82 84 85 86 87 88 90 91 92 91 90 88 88 90 90 89 87 90 91 89 93 93 95 95 90 91 90 95 95 94 94 97 96 97 96 96 94 97
74 72 72 66 64 66 58 59 65 70 67 79 85 86 86 87 89 90 92 92 92 91 89 88 90 88 87 89 88 91 91 93 94 94 94 91 92 91 94 94 93 97 98 96 96 92 95 96 97
79 76 70 70 70 64 59 59 64 66 66 70 80 86 87 88 92 92 92 92 92 91 88 87 85 85 86 88 88 89 89 90 92 93 90 90 91 90 91 96 95 96 95 92 92 93 92 95 95
78 73 70 71 73 73 68 64 66 64 64 65 82 82 86 89 90 90 90 91 91 89 89 86 85 85 85 89 89 91 91 92 93 92 90 92 91 91 92 90 94 91 95 91 91 92 96 95 96
77 74 72 71 72 76 70 67 62 62 64 69 75 85 86 89 90 90 89 90 91 89 88 87 86 85 85 88 89 86 86 89 89 90 91 92 91 92 92 91 92 92 94 94 93 93 90 94 94
75 80 76 72 73 68 73 59 64 64 61 68 72 84 86 88 92 93 92 90 90 90 90 89 87 85 85 85 87 85 87 87 90 91 92 92 90 91 93 92 92 91 95 91 94 94 93 91 93
76 80 76 74 75 70 69 63 68 71 59 63 70 81 88 92 93 93 93 92 93 92 91 90 87 85 87 84 87 88 86 91 91 92 87 89 89 90 92 91 91 91 96 91 91 91 89 95 94
81 76 74 75 73 64 69 67 71 65 73 65 67 78 85 91 94 94 96 95 93 94 92 91 87 84 86 84 86 85 87 88 90 89 89 91 92 92 90 92 90 91 92 91 93 91 90 90 90
80 75 63 62 62 65 72 66 72 78 80 82 73 75 82 88 93 93 93 93 92 92 91 91 87 84 85 85 86 86 85 86 85 85 88 90 92 93 90 89 89 92 90 90 91 90 90 92 92
76 78 66 56 61 64 68 63 71 83 86 87 88 84 78 87 91 93 92 92 91 91 90 90 87 84 86 86 85 85 86 87 90 89 92 92 94 94 92 90 90 90 91 91 90 92 93 92 92
76 69 82 67 72 67 71 71 79 83 83 85 86 85 79 86 91 92 93 93 92 91 90 89 87 85 86 87 86 86 86 85 90 90 89 92 91 95 92 90 90 90 90 90 90 92 90 90 90
79 83 70 72 53 56 64 65 69 76 78 82 77 84 85 88 90 92 92 92 94 94 93 91 89 86 87 88 87 88 87 86 87 86 86 89 90 90 91 90 90 90 89 89 88 91 90 88 91
75 74 76 71 58 57 61 65 80 76 75 77 73 79 84 83 85 89 92 92 92 94 93 91 90 88 88 88 88 87 88 88 87 88 88 88 88 88 87 88 88 88 88 88 87 87 89 88 88
81 78 76 65 65 71 67 68 76 74 74 80 78 74 74 83 90 85 92 93 92 90 90 90 90 89 89 89 88 87 87 88 88 87 88 89 87 87 87 86 88 88 89 89 87 87 90 88 87

GFSSGP_sfc_temp_141.txt.gz
Temp
86 94 101 91 74 71 74 76 87 84 85 92 92 88 84 84 77 70 97 97 95 93 91 88 82 82 83 82 82 83 83 83 83 83 83 83 83 83 83 83 83 83 83 83 82 82 83 84 84
96 96 89 79 68 69 70 83 79 84 90 93 91 91 86 80 90 91 92 97 95 91 92 92 82 83 83 83 83 83 83 83 83 83 83 83 83 82 83 83 83 83 83 83 83 82 82 82 82
95 87 79 69 74 60 73 82 85 89 92 91 86 91 88 83 92 93 97 98 94 91 93 87 83 83 83 83 83 83 83 83 83 84 83 84 83 82 83 83 84 84 84 83 82 81 80 79 82
92 81 74 63 61 80 81 84 89 88 89 91 89 81 91 94 93 96 99 98 96 95 94 85 83 83 83 83 84 83 83 83 83 84 83 84 83 84 84 84 83 84 83 84 82 81 80 82 83
96 84 64 67 72 78 85 89 90 84 85 87 87 81 83 93 97 98 99 96 84 95 95 91 83 84 83 83 84 84 84 83 83 83 83 84 84 84 84 84 83 84 84 84 84 84 84 83 84
73 83 68 62 69 79 86 91 88 83 87 87 85 83 84 95 95 98 100 94 94 94 96 92 84 83 84 83 84 84 83 84 84 84 84 84 84 84 85 85 85 85 85 85 84 83 83 83 83
78 75 64 66 69 73 79 90 84 83 86 83 90 80 86 92 97 100 101 100 95 89 96 94 92 86 84 84 84 84 84 84 84 84 84 84 85 85 85 85 85 85 85 85 84 84 83 83 83
85 81 74 67 68 69 82 86 88 86 82 96 93 80 81 92 97 101 101 98 98 96 89 92 91 90 91 90 84 84 84 84 84 85 85 84 85 85 85 84 85 85 85 85 85 84 84 83 83
90 67 67 64 66 73 82 82 87 90 87 90 91 91 93 96 98 98 97 95 96 94 93 92 89 83 87 89 86 85 84 84 84 85 85 85 93 92 89 85 85 86 86 85 85 84 84 83 83
82 70 71 80 70 77 79 81 84 85 85 85 88 94 94 95 95 94 94 93 94 94 95 95 88 96 91 94 90 91 89 94 92 93 93 94 86 89 94 88 85 86 86 86 85 85 85 85 95
86 76 81 79 71 76 78 83 88 85 82 87 86 88 90 92 93 93 93 93 89 94 97 99 92 88 83 90 92 95 95 94 92 91 93 93 94 94 95 92 91 91 87 91 89 91 93 97 100
80 86 86 80 77 74 74 84 82 87 83 91 92 91 91 91 93 95 94 94 92 92 94 96 94 86 88 87 91 87 96 96 92 93 91 91 89 95 84 94 95 93 97 96 97 97 96 98 99
85 84 86 84 82 81 79 76 82 82 89 94 93 92 91 92 93 96 96 96 93 91 93 94 93 86 90 90 93 91 95 94 96 96 91 78 95 92 90 93 93 94 89 98 97 96 97 97 98
88 86 83 84 80 74 73 73 79 84 92 91 91 91 92 92 92 93 93 93 92 93 92 94 93 89 91 89 91 93 96 95 89 94 94 92 94 85 94 77 91 93 96 100 98 97 97 97 98
90 82 85 76 77 71 70 64 70 80 91 88 88 89 88 90 92 93 95 93 93 94 93 92 91 93 90 89 91 91 96 92 93 93 93 93 94 92 90 86 91 95 96 95 95 97 98 99 99
86 85 72 75 72 71 69 56 67 72 85 85 84 85 86 86 90 92 95 94 94 95 92 93 96 94 91 90 91 88 88 93 90 96 96 93 92 93 91 92 86 97 98 99 98 99 99 99 99
84 68 64 69 75 65 62 58 67 77 82 80 84 86 85 89 88 91 93 95 94 94 92 92 93 93 91 90 93 85 91 85 89 91 89 92 93 93 90 84 95 90 98 98 98 99 98 97 98
58 76 75 67 68 65 61 59 64 69 75 73 85 87 86 88 85 92 93 92 95 92 92 91 93 91 89 90 85 83 93 91 93 85 90 92 94 93 89 95 94 88 91 97 97 95 97 98 98
69 72 65 74 75 71 66 63 62 65 70 72 73 78 85 87 89 93 95 93 94 88 86 86 85 87 90 90 90 87 90 91 91 84 92 92 93 92 92 95 95 89 94 93 93 93 92 96 96
84 75 72 76 78 77 69 65 63 63 64 69 76 72 81 89 82 90 92 93 92 86 87 85 85 86 88 92 85 85 83 93 84 87 92 94 93 92 92 90 94 76 94 92 93 92 95 97 98
83 78 73 71 78 81 75 65 63 64 64 67 74 78 71 73 76 86 91 93 90 86 85 87 87 85 87 87 88 86 81 87 92 90 92 92 93 94 93 92 91 92 83 94 93 94 92 92 96
78 85 81 77 77 55 80 63 67 67 62 63 71 69 78 82 83 88 92 91 89 86 89 90 88 86 87 87 82 86 87 86 89 92 91 92 93 93 94 93 93 91 91 91 94 95 92 91 92
78 83 80 79 77 75 70 72 66 72 61 62 70 78 77 79 86 90 92 92 95 89 87 92 88 87 88 87 82 88 87 87 94 84 86 90 90 92 94 93 92 92 90 92 92 92 90 95 92
88 81 80 80 77 67 72 74 63 66 71 66 70 79 83 81 91 93 90 93 95 96 88 94 88 85 87 87 87 87 87 79 91 87 90 92 93 92 92 93 92 92 92 92 93 92 91 90 91
84 80 67 64 66 67 75 74 70 81 82 79 74 78 86 89 87 84 90 91 90 93 91 88 88 83 86 87 87 87 86 87 89 89 91 92 94 95 89 91 91 92 91 92 92 91 91 92 91
80 81 69 48 61 57 76 69 66 85 89 84 82 80 86 91 93 87 91 87 93 92 94 93 88 85 85 87 86 87 87 90 91 89 92 94 94 96 91 91 92 92 93 92 91 92 93 93 92
79 75 87 72 74 66 68 76 84 86 84 77 78 85 86 87 92 89 96 80 94 92 93 92 89 87 87 89 85 86 86 87 90 89 90 94 93 91 93 92 91 92 92 91 91 92 91 92 91
83 79 74 77 57 56 62 70 64 79 77 80 85 85 86 88 86 94 95 94 91 94 96 94 92 88 88 90 89 89 87 87 88 85 88 88 86 93 87 91 92 91 91 91 90 91 92 89 91
79 78 78 79 66 50 53 58 83 81 83 85 82 80 85 87 88 92 92 96 89 91 92 94 92 89 89 90 90 89 89 90 88 89 89 89 90 90 90 89 90 90 90 89 86 87 87 88 89
71 63 78 72 64 68 49 53 83 82 83 85 82 80 84 78 91 91 92 94 96 89 90 93 93 92 91 91 90 89 89 90 90 89 90 90 89 89 89 87 88 88 89 89 88 87 90 89 88